<?xml version="1.0" encoding="UTF-8" standalone="no" ?>
<gpx xmlns="http://www.topografix.com/GPX/1/1" xmlns:xsi="http://www.w3.org/2001/XMLSchema-instance" xsi:schemaLocation="http://www.topografix.com/GPX/1/1 http://www.topografix.com/GPX/1/1/gpx.xsd" version="1.1" creator="VisuGPX - https://www.visugpx.com">
  <metadata>
    <name>St-Pierre sur Mer (Le parcours des vignes.)</name>
    <desc><![CDATA[Il fait du vent à la mer, il pleut sur la montagne!... vous voulez marcher:  - Faites ce parcours santé pédestre sur les hauteurs de St-Pierre.
adresse du Blog:
http://vttolonzac.blogspot.fr/2012/12/st-pierre-sur-mer.html]]></desc>
  </metadata>
  <trk>
    <name><![CDATA[Tracé 001]]></name>
    <trkseg>
      <trkpt lat="43.18345" lon="3.18206">
        <ele>-34.47</ele>
        <time>2012-12-03T09:21:38Z</time>
      </trkpt>
      <trkpt lat="43.18345" lon="3.18206">
        <ele>-37.35</ele>
        <time>2012-12-03T09:21:39Z</time>
      </trkpt>
      <trkpt lat="43.18346" lon="3.18206">
        <ele>-30.62</ele>
        <time>2012-12-03T09:21:41Z</time>
      </trkpt>
      <trkpt lat="43.18346" lon="3.18207">
        <ele>-36.39</ele>
        <time>2012-12-03T09:21:42Z</time>
      </trkpt>
      <trkpt lat="43.18346" lon="3.18207">
        <ele>-26.3</ele>
        <time>2012-12-03T09:21:43Z</time>
      </trkpt>
      <trkpt lat="43.18346" lon="3.18207">
        <ele>-42.16</ele>
        <time>2012-12-03T09:21:44Z</time>
      </trkpt>
      <trkpt lat="43.18346" lon="3.18207">
        <ele>-22.45</ele>
        <time>2012-12-03T09:21:45Z</time>
      </trkpt>
      <trkpt lat="43.18346" lon="3.18207">
        <ele>-26.78</ele>
        <time>2012-12-03T09:21:46Z</time>
      </trkpt>
      <trkpt lat="43.18346" lon="3.18207">
        <ele>-19.57</ele>
        <time>2012-12-03T09:21:47Z</time>
      </trkpt>
      <trkpt lat="43.18346" lon="3.18208">
        <ele>-18.61</ele>
        <time>2012-12-03T09:21:49Z</time>
      </trkpt>
      <trkpt lat="43.18346" lon="3.18207">
        <ele>-15.24</ele>
        <time>2012-12-03T09:21:50Z</time>
      </trkpt>
      <trkpt lat="43.18346" lon="3.18207">
        <ele>-10.44</ele>
        <time>2012-12-03T09:21:51Z</time>
      </trkpt>
      <trkpt lat="43.18346" lon="3.18207">
        <ele>-11.88</ele>
        <time>2012-12-03T09:21:52Z</time>
      </trkpt>
      <trkpt lat="43.18346" lon="3.18207">
        <ele>-7.55</ele>
        <time>2012-12-03T09:21:55Z</time>
      </trkpt>
      <trkpt lat="43.18346" lon="3.18207">
        <ele>-5.15</ele>
        <time>2012-12-03T09:21:57Z</time>
      </trkpt>
      <trkpt lat="43.18346" lon="3.18207">
        <ele>-0.34</ele>
        <time>2012-12-03T09:21:59Z</time>
      </trkpt>
      <trkpt lat="43.18346" lon="3.18207">
        <ele>-0.34</ele>
        <time>2012-12-03T09:22:00Z</time>
      </trkpt>
      <trkpt lat="43.18346" lon="3.18207">
        <ele>3.98</ele>
        <time>2012-12-03T09:22:03Z</time>
      </trkpt>
      <trkpt lat="43.18347" lon="3.18207">
        <ele>9.75</ele>
        <time>2012-12-03T09:22:06Z</time>
      </trkpt>
      <trkpt lat="43.18346" lon="3.18207">
        <ele>8.31</ele>
        <time>2012-12-03T09:22:07Z</time>
      </trkpt>
      <trkpt lat="43.18346" lon="3.18207">
        <ele>15.04</ele>
        <time>2012-12-03T09:22:11Z</time>
      </trkpt>
      <trkpt lat="43.18346" lon="3.18207">
        <ele>10.71</ele>
        <time>2012-12-03T09:22:12Z</time>
      </trkpt>
      <trkpt lat="43.18346" lon="3.18207">
        <ele>15.04</ele>
        <time>2012-12-03T09:22:14Z</time>
      </trkpt>
      <trkpt lat="43.18346" lon="3.18207">
        <ele>9.75</ele>
        <time>2012-12-03T09:22:15Z</time>
      </trkpt>
      <trkpt lat="43.18346" lon="3.18208">
        <ele>18.4</ele>
        <time>2012-12-03T09:22:16Z</time>
      </trkpt>
      <trkpt lat="43.18346" lon="3.18208">
        <ele>16.48</ele>
        <time>2012-12-03T09:22:17Z</time>
      </trkpt>
      <trkpt lat="43.18346" lon="3.18208">
        <ele>9.75</ele>
        <time>2012-12-03T09:22:18Z</time>
      </trkpt>
      <trkpt lat="43.18346" lon="3.18208">
        <ele>19.36</ele>
        <time>2012-12-03T09:22:19Z</time>
      </trkpt>
      <trkpt lat="43.18346" lon="3.18208">
        <ele>24.17</ele>
        <time>2012-12-03T09:22:24Z</time>
      </trkpt>
      <trkpt lat="43.18346" lon="3.18206">
        <ele>27.05</ele>
        <time>2012-12-03T09:22:35Z</time>
      </trkpt>
      <trkpt lat="43.18346" lon="3.18206">
        <ele>29.94</ele>
        <time>2012-12-03T09:22:43Z</time>
      </trkpt>
      <trkpt lat="43.18346" lon="3.18205">
        <ele>34.74</ele>
        <time>2012-12-03T09:22:49Z</time>
      </trkpt>
      <trkpt lat="43.18346" lon="3.18205">
        <ele>33.78</ele>
        <time>2012-12-03T09:22:50Z</time>
      </trkpt>
      <trkpt lat="43.18346" lon="3.18206">
        <ele>35.23</ele>
        <time>2012-12-03T09:22:56Z</time>
      </trkpt>
      <trkpt lat="43.18346" lon="3.18206">
        <ele>40.99</ele>
        <time>2012-12-03T09:23:03Z</time>
      </trkpt>
      <trkpt lat="43.18346" lon="3.18205">
        <ele>36.67</ele>
        <time>2012-12-03T09:23:04Z</time>
      </trkpt>
      <trkpt lat="43.18346" lon="3.18206">
        <ele>41.95</ele>
        <time>2012-12-03T09:23:14Z</time>
      </trkpt>
      <trkpt lat="43.18346" lon="3.18206">
        <ele>40.03</ele>
        <time>2012-12-03T09:23:22Z</time>
      </trkpt>
      <trkpt lat="43.18351" lon="3.18213">
        <ele>41.47</ele>
        <time>2012-12-03T09:23:29Z</time>
      </trkpt>
      <trkpt lat="43.18353" lon="3.18214">
        <ele>42.44</ele>
        <time>2012-12-03T09:23:31Z</time>
      </trkpt>
      <trkpt lat="43.18355" lon="3.18215">
        <ele>42.44</ele>
        <time>2012-12-03T09:23:33Z</time>
      </trkpt>
      <trkpt lat="43.18362" lon="3.18214">
        <ele>43.4</ele>
        <time>2012-12-03T09:23:38Z</time>
      </trkpt>
      <trkpt lat="43.18365" lon="3.18213">
        <ele>43.4</ele>
        <time>2012-12-03T09:23:41Z</time>
      </trkpt>
      <trkpt lat="43.18377" lon="3.18205">
        <ele>43.88</ele>
        <time>2012-12-03T09:23:51Z</time>
      </trkpt>
      <trkpt lat="43.18391" lon="3.18202">
        <ele>44.36</ele>
        <time>2012-12-03T09:24:02Z</time>
      </trkpt>
      <trkpt lat="43.18396" lon="3.18201">
        <ele>43.88</ele>
        <time>2012-12-03T09:24:06Z</time>
      </trkpt>
      <trkpt lat="43.18406" lon="3.18199">
        <ele>42.92</ele>
        <time>2012-12-03T09:24:14Z</time>
      </trkpt>
      <trkpt lat="43.18425" lon="3.18199">
        <ele>43.4</ele>
        <time>2012-12-03T09:24:30Z</time>
      </trkpt>
      <trkpt lat="43.18425" lon="3.18201">
        <ele>42.92</ele>
        <time>2012-12-03T09:24:33Z</time>
      </trkpt>
      <trkpt lat="43.18424" lon="3.18204">
        <ele>42.92</ele>
        <time>2012-12-03T09:24:50Z</time>
      </trkpt>
      <trkpt lat="43.18424" lon="3.18203">
        <ele>43.4</ele>
        <time>2012-12-03T09:25:20Z</time>
      </trkpt>
      <trkpt lat="43.18423" lon="3.18204">
        <ele>43.4</ele>
        <time>2012-12-03T09:25:31Z</time>
      </trkpt>
      <trkpt lat="43.18424" lon="3.18203">
        <ele>43.4</ele>
        <time>2012-12-03T09:25:38Z</time>
      </trkpt>
      <trkpt lat="43.18431" lon="3.18198">
        <ele>43.88</ele>
        <time>2012-12-03T09:25:44Z</time>
      </trkpt>
      <trkpt lat="43.1845" lon="3.18189">
        <ele>41.47</ele>
        <time>2012-12-03T09:25:59Z</time>
      </trkpt>
      <trkpt lat="43.18457" lon="3.18184">
        <ele>41.47</ele>
        <time>2012-12-03T09:26:04Z</time>
      </trkpt>
      <trkpt lat="43.18472" lon="3.18176">
        <ele>41.47</ele>
        <time>2012-12-03T09:26:16Z</time>
      </trkpt>
      <trkpt lat="43.18488" lon="3.1817">
        <ele>40.51</ele>
        <time>2012-12-03T09:26:28Z</time>
      </trkpt>
      <trkpt lat="43.18507" lon="3.18164">
        <ele>39.55</ele>
        <time>2012-12-03T09:26:42Z</time>
      </trkpt>
      <trkpt lat="43.18526" lon="3.18159">
        <ele>39.07</ele>
        <time>2012-12-03T09:26:55Z</time>
      </trkpt>
      <trkpt lat="43.18534" lon="3.18156">
        <ele>39.55</ele>
        <time>2012-12-03T09:26:58Z</time>
      </trkpt>
      <trkpt lat="43.18547" lon="3.18152">
        <ele>38.11</ele>
        <time>2012-12-03T09:27:03Z</time>
      </trkpt>
      <trkpt lat="43.18556" lon="3.18147">
        <ele>38.11</ele>
        <time>2012-12-03T09:27:09Z</time>
      </trkpt>
      <trkpt lat="43.18566" lon="3.18141">
        <ele>37.15</ele>
        <time>2012-12-03T09:27:16Z</time>
      </trkpt>
      <trkpt lat="43.18568" lon="3.18141">
        <ele>37.15</ele>
        <time>2012-12-03T09:27:18Z</time>
      </trkpt>
      <trkpt lat="43.18579" lon="3.18143">
        <ele>36.19</ele>
        <time>2012-12-03T09:27:27Z</time>
      </trkpt>
      <trkpt lat="43.18586" lon="3.1815">
        <ele>35.71</ele>
        <time>2012-12-03T09:27:33Z</time>
      </trkpt>
      <trkpt lat="43.18588" lon="3.18155">
        <ele>35.23</ele>
        <time>2012-12-03T09:27:36Z</time>
      </trkpt>
      <trkpt lat="43.18586" lon="3.18178">
        <ele>35.71</ele>
        <time>2012-12-03T09:27:49Z</time>
      </trkpt>
      <trkpt lat="43.18579" lon="3.18204">
        <ele>36.67</ele>
        <time>2012-12-03T09:28:05Z</time>
      </trkpt>
      <trkpt lat="43.18578" lon="3.18207">
        <ele>36.67</ele>
        <time>2012-12-03T09:28:08Z</time>
      </trkpt>
      <trkpt lat="43.18577" lon="3.18229">
        <ele>37.15</ele>
        <time>2012-12-03T09:28:20Z</time>
      </trkpt>
      <trkpt lat="43.18576" lon="3.18231">
        <ele>37.63</ele>
        <time>2012-12-03T09:28:21Z</time>
      </trkpt>
      <trkpt lat="43.18576" lon="3.18252">
        <ele>37.63</ele>
        <time>2012-12-03T09:28:32Z</time>
      </trkpt>
      <trkpt lat="43.18579" lon="3.18267">
        <ele>37.63</ele>
        <time>2012-12-03T09:28:40Z</time>
      </trkpt>
      <trkpt lat="43.18582" lon="3.18273">
        <ele>37.63</ele>
        <time>2012-12-03T09:28:45Z</time>
      </trkpt>
      <trkpt lat="43.18586" lon="3.1829">
        <ele>37.15</ele>
        <time>2012-12-03T09:28:54Z</time>
      </trkpt>
      <trkpt lat="43.18594" lon="3.18305">
        <ele>37.15</ele>
        <time>2012-12-03T09:29:03Z</time>
      </trkpt>
      <trkpt lat="43.18597" lon="3.18312">
        <ele>36.67</ele>
        <time>2012-12-03T09:29:07Z</time>
      </trkpt>
      <trkpt lat="43.18603" lon="3.1833">
        <ele>37.63</ele>
        <time>2012-12-03T09:29:18Z</time>
      </trkpt>
      <trkpt lat="43.18605" lon="3.1834">
        <ele>37.63</ele>
        <time>2012-12-03T09:29:24Z</time>
      </trkpt>
      <trkpt lat="43.18606" lon="3.18352">
        <ele>38.11</ele>
        <time>2012-12-03T09:29:30Z</time>
      </trkpt>
      <trkpt lat="43.18606" lon="3.18374">
        <ele>39.55</ele>
        <time>2012-12-03T09:29:42Z</time>
      </trkpt>
      <trkpt lat="43.18608" lon="3.18381">
        <ele>39.55</ele>
        <time>2012-12-03T09:29:46Z</time>
      </trkpt>
      <trkpt lat="43.1861" lon="3.18399">
        <ele>40.03</ele>
        <time>2012-12-03T09:29:56Z</time>
      </trkpt>
      <trkpt lat="43.18609" lon="3.18422">
        <ele>41.47</ele>
        <time>2012-12-03T09:30:09Z</time>
      </trkpt>
      <trkpt lat="43.18607" lon="3.18445">
        <ele>42.44</ele>
        <time>2012-12-03T09:30:20Z</time>
      </trkpt>
      <trkpt lat="43.18609" lon="3.18463">
        <ele>42.44</ele>
        <time>2012-12-03T09:30:29Z</time>
      </trkpt>
      <trkpt lat="43.18613" lon="3.18487">
        <ele>42.44</ele>
        <time>2012-12-03T09:30:43Z</time>
      </trkpt>
      <trkpt lat="43.18615" lon="3.18497">
        <ele>42.92</ele>
        <time>2012-12-03T09:30:48Z</time>
      </trkpt>
      <trkpt lat="43.18616" lon="3.185">
        <ele>42.92</ele>
        <time>2012-12-03T09:30:50Z</time>
      </trkpt>
      <trkpt lat="43.18617" lon="3.18503">
        <ele>42.92</ele>
        <time>2012-12-03T09:30:52Z</time>
      </trkpt>
      <trkpt lat="43.18627" lon="3.18529">
        <ele>42.44</ele>
        <time>2012-12-03T09:31:07Z</time>
      </trkpt>
      <trkpt lat="43.18629" lon="3.18532">
        <ele>42.92</ele>
        <time>2012-12-03T09:31:09Z</time>
      </trkpt>
      <trkpt lat="43.18638" lon="3.18552">
        <ele>42.92</ele>
        <time>2012-12-03T09:31:21Z</time>
      </trkpt>
      <trkpt lat="43.18649" lon="3.1857">
        <ele>41.95</ele>
        <time>2012-12-03T09:31:34Z</time>
      </trkpt>
      <trkpt lat="43.18661" lon="3.1859">
        <ele>41.47</ele>
        <time>2012-12-03T09:31:47Z</time>
      </trkpt>
      <trkpt lat="43.18662" lon="3.18595">
        <ele>41.95</ele>
        <time>2012-12-03T09:31:51Z</time>
      </trkpt>
      <trkpt lat="43.18665" lon="3.186">
        <ele>41.47</ele>
        <time>2012-12-03T09:31:55Z</time>
      </trkpt>
      <trkpt lat="43.18673" lon="3.18626">
        <ele>40.99</ele>
        <time>2012-12-03T09:32:09Z</time>
      </trkpt>
      <trkpt lat="43.18679" lon="3.18651">
        <ele>40.99</ele>
        <time>2012-12-03T09:32:23Z</time>
      </trkpt>
      <trkpt lat="43.18686" lon="3.18674">
        <ele>40.99</ele>
        <time>2012-12-03T09:32:36Z</time>
      </trkpt>
      <trkpt lat="43.18691" lon="3.1869">
        <ele>40.99</ele>
        <time>2012-12-03T09:32:46Z</time>
      </trkpt>
      <trkpt lat="43.18696" lon="3.18718">
        <ele>40.51</ele>
        <time>2012-12-03T09:33:02Z</time>
      </trkpt>
      <trkpt lat="43.18697" lon="3.18726">
        <ele>40.51</ele>
        <time>2012-12-03T09:33:07Z</time>
      </trkpt>
      <trkpt lat="43.18697" lon="3.18735">
        <ele>40.51</ele>
        <time>2012-12-03T09:33:12Z</time>
      </trkpt>
      <trkpt lat="43.18694" lon="3.1875">
        <ele>40.51</ele>
        <time>2012-12-03T09:33:19Z</time>
      </trkpt>
      <trkpt lat="43.18688" lon="3.18772">
        <ele>40.51</ele>
        <time>2012-12-03T09:33:31Z</time>
      </trkpt>
      <trkpt lat="43.18694" lon="3.18778">
        <ele>40.03</ele>
        <time>2012-12-03T09:33:37Z</time>
      </trkpt>
      <trkpt lat="43.1871" lon="3.18795">
        <ele>40.51</ele>
        <time>2012-12-03T09:33:51Z</time>
      </trkpt>
      <trkpt lat="43.18724" lon="3.18809">
        <ele>40.51</ele>
        <time>2012-12-03T09:34:03Z</time>
      </trkpt>
      <trkpt lat="43.18733" lon="3.18818">
        <ele>40.03</ele>
        <time>2012-12-03T09:34:11Z</time>
      </trkpt>
      <trkpt lat="43.18742" lon="3.18818">
        <ele>40.51</ele>
        <time>2012-12-03T09:34:17Z</time>
      </trkpt>
      <trkpt lat="43.18749" lon="3.18819">
        <ele>39.55</ele>
        <time>2012-12-03T09:34:22Z</time>
      </trkpt>
      <trkpt lat="43.18764" lon="3.18825">
        <ele>39.55</ele>
        <time>2012-12-03T09:34:32Z</time>
      </trkpt>
      <trkpt lat="43.18782" lon="3.18835">
        <ele>39.07</ele>
        <time>2012-12-03T09:34:44Z</time>
      </trkpt>
      <trkpt lat="43.18794" lon="3.18842">
        <ele>39.55</ele>
        <time>2012-12-03T09:34:54Z</time>
      </trkpt>
      <trkpt lat="43.18798" lon="3.18845">
        <ele>39.07</ele>
        <time>2012-12-03T09:34:57Z</time>
      </trkpt>
      <trkpt lat="43.18811" lon="3.18844">
        <ele>39.07</ele>
        <time>2012-12-03T09:35:06Z</time>
      </trkpt>
      <trkpt lat="43.18824" lon="3.18843">
        <ele>38.11</ele>
        <time>2012-12-03T09:35:15Z</time>
      </trkpt>
      <trkpt lat="43.18827" lon="3.18843">
        <ele>38.11</ele>
        <time>2012-12-03T09:35:18Z</time>
      </trkpt>
      <trkpt lat="43.18835" lon="3.18844">
        <ele>37.15</ele>
        <time>2012-12-03T09:35:25Z</time>
      </trkpt>
      <trkpt lat="43.18838" lon="3.18863">
        <ele>37.15</ele>
        <time>2012-12-03T09:35:37Z</time>
      </trkpt>
      <trkpt lat="43.18839" lon="3.18872">
        <ele>37.63</ele>
        <time>2012-12-03T09:35:43Z</time>
      </trkpt>
      <trkpt lat="43.1884" lon="3.18876">
        <ele>37.15</ele>
        <time>2012-12-03T09:35:47Z</time>
      </trkpt>
      <trkpt lat="43.18836" lon="3.18861">
        <ele>38.11</ele>
        <time>2012-12-03T09:35:57Z</time>
      </trkpt>
      <trkpt lat="43.18833" lon="3.18847">
        <ele>37.63</ele>
        <time>2012-12-03T09:36:08Z</time>
      </trkpt>
      <trkpt lat="43.18833" lon="3.18847">
        <ele>38.11</ele>
        <time>2012-12-03T09:36:10Z</time>
      </trkpt>
      <trkpt lat="43.18838" lon="3.1886">
        <ele>37.15</ele>
        <time>2012-12-03T09:36:20Z</time>
      </trkpt>
      <trkpt lat="43.18837" lon="3.18864">
        <ele>37.63</ele>
        <time>2012-12-03T09:36:22Z</time>
      </trkpt>
      <trkpt lat="43.18838" lon="3.18871">
        <ele>37.63</ele>
        <time>2012-12-03T09:36:27Z</time>
      </trkpt>
      <trkpt lat="43.18844" lon="3.18876">
        <ele>38.11</ele>
        <time>2012-12-03T09:36:32Z</time>
      </trkpt>
      <trkpt lat="43.18848" lon="3.18878">
        <ele>37.15</ele>
        <time>2012-12-03T09:36:36Z</time>
      </trkpt>
      <trkpt lat="43.18856" lon="3.18892">
        <ele>36.19</ele>
        <time>2012-12-03T09:36:46Z</time>
      </trkpt>
      <trkpt lat="43.18857" lon="3.18901">
        <ele>35.23</ele>
        <time>2012-12-03T09:36:56Z</time>
      </trkpt>
      <trkpt lat="43.18857" lon="3.18902">
        <ele>35.23</ele>
        <time>2012-12-03T09:36:58Z</time>
      </trkpt>
      <trkpt lat="43.18858" lon="3.18906">
        <ele>35.71</ele>
        <time>2012-12-03T09:37:01Z</time>
      </trkpt>
      <trkpt lat="43.18858" lon="3.18914">
        <ele>35.71</ele>
        <time>2012-12-03T09:37:06Z</time>
      </trkpt>
      <trkpt lat="43.18859" lon="3.18937">
        <ele>34.74</ele>
        <time>2012-12-03T09:37:19Z</time>
      </trkpt>
      <trkpt lat="43.18861" lon="3.18945">
        <ele>34.26</ele>
        <time>2012-12-03T09:37:28Z</time>
      </trkpt>
      <trkpt lat="43.18862" lon="3.18952">
        <ele>34.26</ele>
        <time>2012-12-03T09:37:32Z</time>
      </trkpt>
      <trkpt lat="43.18864" lon="3.18979">
        <ele>33.78</ele>
        <time>2012-12-03T09:37:46Z</time>
      </trkpt>
      <trkpt lat="43.18866" lon="3.19007">
        <ele>33.78</ele>
        <time>2012-12-03T09:38:00Z</time>
      </trkpt>
      <trkpt lat="43.18867" lon="3.19015">
        <ele>33.78</ele>
        <time>2012-12-03T09:38:04Z</time>
      </trkpt>
      <trkpt lat="43.18864" lon="3.19043">
        <ele>33.78</ele>
        <time>2012-12-03T09:38:19Z</time>
      </trkpt>
      <trkpt lat="43.18861" lon="3.19049">
        <ele>32.82</ele>
        <time>2012-12-03T09:38:26Z</time>
      </trkpt>
      <trkpt lat="43.18858" lon="3.19058">
        <ele>33.78</ele>
        <time>2012-12-03T09:38:31Z</time>
      </trkpt>
      <trkpt lat="43.18858" lon="3.19063">
        <ele>32.82</ele>
        <time>2012-12-03T09:38:34Z</time>
      </trkpt>
      <trkpt lat="43.18859" lon="3.19073">
        <ele>33.3</ele>
        <time>2012-12-03T09:38:40Z</time>
      </trkpt>
      <trkpt lat="43.18862" lon="3.19088">
        <ele>32.34</ele>
        <time>2012-12-03T09:38:49Z</time>
      </trkpt>
      <trkpt lat="43.18863" lon="3.19109">
        <ele>31.38</ele>
        <time>2012-12-03T09:39:02Z</time>
      </trkpt>
      <trkpt lat="43.18865" lon="3.19114">
        <ele>31.38</ele>
        <time>2012-12-03T09:39:05Z</time>
      </trkpt>
      <trkpt lat="43.18864" lon="3.1912">
        <ele>31.38</ele>
        <time>2012-12-03T09:39:08Z</time>
      </trkpt>
      <trkpt lat="43.18865" lon="3.19142">
        <ele>30.9</ele>
        <time>2012-12-03T09:39:21Z</time>
      </trkpt>
      <trkpt lat="43.18866" lon="3.19147">
        <ele>30.9</ele>
        <time>2012-12-03T09:39:24Z</time>
      </trkpt>
      <trkpt lat="43.18869" lon="3.19171">
        <ele>29.94</ele>
        <time>2012-12-03T09:39:38Z</time>
      </trkpt>
      <trkpt lat="43.18871" lon="3.19193">
        <ele>29.46</ele>
        <time>2012-12-03T09:39:51Z</time>
      </trkpt>
      <trkpt lat="43.18873" lon="3.19213">
        <ele>27.53</ele>
        <time>2012-12-03T09:40:03Z</time>
      </trkpt>
      <trkpt lat="43.18875" lon="3.19217">
        <ele>27.53</ele>
        <time>2012-12-03T09:40:07Z</time>
      </trkpt>
      <trkpt lat="43.18875" lon="3.19241">
        <ele>26.57</ele>
        <time>2012-12-03T09:40:21Z</time>
      </trkpt>
      <trkpt lat="43.18874" lon="3.1926">
        <ele>26.09</ele>
        <time>2012-12-03T09:40:33Z</time>
      </trkpt>
      <trkpt lat="43.18873" lon="3.19269">
        <ele>25.61</ele>
        <time>2012-12-03T09:40:39Z</time>
      </trkpt>
      <trkpt lat="43.18873" lon="3.19275">
        <ele>25.61</ele>
        <time>2012-12-03T09:40:42Z</time>
      </trkpt>
      <trkpt lat="43.18872" lon="3.19282">
        <ele>24.65</ele>
        <time>2012-12-03T09:40:46Z</time>
      </trkpt>
      <trkpt lat="43.1887" lon="3.19295">
        <ele>25.13</ele>
        <time>2012-12-03T09:40:54Z</time>
      </trkpt>
      <trkpt lat="43.18868" lon="3.19304">
        <ele>24.17</ele>
        <time>2012-12-03T09:41:00Z</time>
      </trkpt>
      <trkpt lat="43.18871" lon="3.19312">
        <ele>22.73</ele>
        <time>2012-12-03T09:41:06Z</time>
      </trkpt>
      <trkpt lat="43.18883" lon="3.19315">
        <ele>20.81</ele>
        <time>2012-12-03T09:41:21Z</time>
      </trkpt>
      <trkpt lat="43.18886" lon="3.19314">
        <ele>20.81</ele>
        <time>2012-12-03T09:41:25Z</time>
      </trkpt>
      <trkpt lat="43.18889" lon="3.19316">
        <ele>19.36</ele>
        <time>2012-12-03T09:41:31Z</time>
      </trkpt>
      <trkpt lat="43.18891" lon="3.19319">
        <ele>17.92</ele>
        <time>2012-12-03T09:41:42Z</time>
      </trkpt>
      <trkpt lat="43.18891" lon="3.19324">
        <ele>16</ele>
        <time>2012-12-03T09:41:54Z</time>
      </trkpt>
      <trkpt lat="43.18891" lon="3.19328">
        <ele>14.56</ele>
        <time>2012-12-03T09:42:01Z</time>
      </trkpt>
      <trkpt lat="43.18892" lon="3.19331">
        <ele>14.08</ele>
        <time>2012-12-03T09:42:03Z</time>
      </trkpt>
      <trkpt lat="43.18893" lon="3.19339">
        <ele>12.15</ele>
        <time>2012-12-03T09:42:09Z</time>
      </trkpt>
      <trkpt lat="43.18894" lon="3.19365">
        <ele>11.19</ele>
        <time>2012-12-03T09:42:23Z</time>
      </trkpt>
      <trkpt lat="43.18894" lon="3.19372">
        <ele>11.19</ele>
        <time>2012-12-03T09:42:28Z</time>
      </trkpt>
      <trkpt lat="43.18893" lon="3.19377">
        <ele>10.71</ele>
        <time>2012-12-03T09:42:32Z</time>
      </trkpt>
      <trkpt lat="43.18895" lon="3.19382">
        <ele>10.71</ele>
        <time>2012-12-03T09:42:36Z</time>
      </trkpt>
      <trkpt lat="43.18896" lon="3.19387">
        <ele>9.75</ele>
        <time>2012-12-03T09:42:39Z</time>
      </trkpt>
      <trkpt lat="43.189" lon="3.19406">
        <ele>7.83</ele>
        <time>2012-12-03T09:42:52Z</time>
      </trkpt>
      <trkpt lat="43.18902" lon="3.1941">
        <ele>7.83</ele>
        <time>2012-12-03T09:42:55Z</time>
      </trkpt>
      <trkpt lat="43.18904" lon="3.19417">
        <ele>6.87</ele>
        <time>2012-12-03T09:42:59Z</time>
      </trkpt>
      <trkpt lat="43.18908" lon="3.1944">
        <ele>5.91</ele>
        <time>2012-12-03T09:43:11Z</time>
      </trkpt>
      <trkpt lat="43.18909" lon="3.19457">
        <ele>4.46</ele>
        <time>2012-12-03T09:43:20Z</time>
      </trkpt>
      <trkpt lat="43.18909" lon="3.19465">
        <ele>4.94</ele>
        <time>2012-12-03T09:43:24Z</time>
      </trkpt>
      <trkpt lat="43.18909" lon="3.19492">
        <ele>3.5</ele>
        <time>2012-12-03T09:43:39Z</time>
      </trkpt>
      <trkpt lat="43.1891" lon="3.19497">
        <ele>3.02</ele>
        <time>2012-12-03T09:43:42Z</time>
      </trkpt>
      <trkpt lat="43.18914" lon="3.19515">
        <ele>2.54</ele>
        <time>2012-12-03T09:43:54Z</time>
      </trkpt>
      <trkpt lat="43.18917" lon="3.19528">
        <ele>2.06</ele>
        <time>2012-12-03T09:44:02Z</time>
      </trkpt>
      <trkpt lat="43.18921" lon="3.19534">
        <ele>2.06</ele>
        <time>2012-12-03T09:44:06Z</time>
      </trkpt>
      <trkpt lat="43.18928" lon="3.19546">
        <ele>1.1</ele>
        <time>2012-12-03T09:44:14Z</time>
      </trkpt>
      <trkpt lat="43.18933" lon="3.19568">
        <ele>1.58</ele>
        <time>2012-12-03T09:44:27Z</time>
      </trkpt>
      <trkpt lat="43.18933" lon="3.19589">
        <ele>1.1</ele>
        <time>2012-12-03T09:44:39Z</time>
      </trkpt>
      <trkpt lat="43.18942" lon="3.19611">
        <ele>1.1</ele>
        <time>2012-12-03T09:44:53Z</time>
      </trkpt>
      <trkpt lat="43.18946" lon="3.19616">
        <ele>1.58</ele>
        <time>2012-12-03T09:44:57Z</time>
      </trkpt>
      <trkpt lat="43.18957" lon="3.19624">
        <ele>1.58</ele>
        <time>2012-12-03T09:45:07Z</time>
      </trkpt>
      <trkpt lat="43.18972" lon="3.19627">
        <ele>2.06</ele>
        <time>2012-12-03T09:45:20Z</time>
      </trkpt>
      <trkpt lat="43.18982" lon="3.19626">
        <ele>0.62</ele>
        <time>2012-12-03T09:45:29Z</time>
      </trkpt>
      <trkpt lat="43.18998" lon="3.19625">
        <ele>-0.82</ele>
        <time>2012-12-03T09:45:40Z</time>
      </trkpt>
      <trkpt lat="43.19018" lon="3.19618">
        <ele>-0.82</ele>
        <time>2012-12-03T09:45:54Z</time>
      </trkpt>
      <trkpt lat="43.19022" lon="3.19613">
        <ele>-1.3</ele>
        <time>2012-12-03T09:45:58Z</time>
      </trkpt>
      <trkpt lat="43.19038" lon="3.19593">
        <ele>-1.3</ele>
        <time>2012-12-03T09:46:13Z</time>
      </trkpt>
      <trkpt lat="43.19039" lon="3.1959">
        <ele>-1.3</ele>
        <time>2012-12-03T09:46:15Z</time>
      </trkpt>
      <trkpt lat="43.1904" lon="3.19585">
        <ele>-1.3</ele>
        <time>2012-12-03T09:46:18Z</time>
      </trkpt>
      <trkpt lat="43.19048" lon="3.19571">
        <ele>-0.34</ele>
        <time>2012-12-03T09:46:28Z</time>
      </trkpt>
      <trkpt lat="43.19057" lon="3.19568">
        <ele>-1.3</ele>
        <time>2012-12-03T09:46:35Z</time>
      </trkpt>
      <trkpt lat="43.19062" lon="3.19568">
        <ele>-0.82</ele>
        <time>2012-12-03T09:46:39Z</time>
      </trkpt>
      <trkpt lat="43.19071" lon="3.19562">
        <ele>-1.3</ele>
        <time>2012-12-03T09:46:47Z</time>
      </trkpt>
      <trkpt lat="43.19083" lon="3.19557">
        <ele>-0.34</ele>
        <time>2012-12-03T09:46:56Z</time>
      </trkpt>
      <trkpt lat="43.1909" lon="3.19556">
        <ele>-0.82</ele>
        <time>2012-12-03T09:47:02Z</time>
      </trkpt>
      <trkpt lat="43.19102" lon="3.19555">
        <ele>-0.82</ele>
        <time>2012-12-03T09:47:11Z</time>
      </trkpt>
      <trkpt lat="43.19108" lon="3.19554">
        <ele>-0.34</ele>
        <time>2012-12-03T09:47:16Z</time>
      </trkpt>
      <trkpt lat="43.19112" lon="3.1955">
        <ele>-0.34</ele>
        <time>2012-12-03T09:47:19Z</time>
      </trkpt>
      <trkpt lat="43.19122" lon="3.19545">
        <ele>0.14</ele>
        <time>2012-12-03T09:47:27Z</time>
      </trkpt>
      <trkpt lat="43.19136" lon="3.19527">
        <ele>0.14</ele>
        <time>2012-12-03T09:47:41Z</time>
      </trkpt>
      <trkpt lat="43.19139" lon="3.19524">
        <ele>0.14</ele>
        <time>2012-12-03T09:47:44Z</time>
      </trkpt>
      <trkpt lat="43.19145" lon="3.19518">
        <ele>0.14</ele>
        <time>2012-12-03T09:47:50Z</time>
      </trkpt>
      <trkpt lat="43.19156" lon="3.19506">
        <ele>0.62</ele>
        <time>2012-12-03T09:47:59Z</time>
      </trkpt>
      <trkpt lat="43.1916" lon="3.195">
        <ele>0.62</ele>
        <time>2012-12-03T09:48:03Z</time>
      </trkpt>
      <trkpt lat="43.19175" lon="3.19485">
        <ele>0.62</ele>
        <time>2012-12-03T09:48:16Z</time>
      </trkpt>
      <trkpt lat="43.19178" lon="3.19484">
        <ele>0.62</ele>
        <time>2012-12-03T09:48:18Z</time>
      </trkpt>
      <trkpt lat="43.19184" lon="3.19474">
        <ele>1.1</ele>
        <time>2012-12-03T09:48:25Z</time>
      </trkpt>
      <trkpt lat="43.19195" lon="3.19463">
        <ele>0.62</ele>
        <time>2012-12-03T09:48:39Z</time>
      </trkpt>
      <trkpt lat="43.19196" lon="3.19463">
        <ele>1.1</ele>
        <time>2012-12-03T09:48:51Z</time>
      </trkpt>
      <trkpt lat="43.19196" lon="3.1946">
        <ele>1.1</ele>
        <time>2012-12-03T09:48:53Z</time>
      </trkpt>
      <trkpt lat="43.19197" lon="3.19457">
        <ele>1.1</ele>
        <time>2012-12-03T09:49:05Z</time>
      </trkpt>
      <trkpt lat="43.19198" lon="3.19457">
        <ele>1.1</ele>
        <time>2012-12-03T09:49:18Z</time>
      </trkpt>
      <trkpt lat="43.19199" lon="3.19455">
        <ele>1.1</ele>
        <time>2012-12-03T09:49:45Z</time>
      </trkpt>
      <trkpt lat="43.19199" lon="3.19455">
        <ele>0.62</ele>
        <time>2012-12-03T09:50:09Z</time>
      </trkpt>
      <trkpt lat="43.19201" lon="3.19454">
        <ele>0.62</ele>
        <time>2012-12-03T09:50:22Z</time>
      </trkpt>
      <trkpt lat="43.19211" lon="3.19442">
        <ele>1.58</ele>
        <time>2012-12-03T09:50:34Z</time>
      </trkpt>
      <trkpt lat="43.19216" lon="3.19435">
        <ele>1.1</ele>
        <time>2012-12-03T09:50:39Z</time>
      </trkpt>
      <trkpt lat="43.19217" lon="3.19432">
        <ele>1.1</ele>
        <time>2012-12-03T09:50:41Z</time>
      </trkpt>
      <trkpt lat="43.1922" lon="3.19422">
        <ele>0.62</ele>
        <time>2012-12-03T09:50:48Z</time>
      </trkpt>
      <trkpt lat="43.1922" lon="3.19414">
        <ele>1.1</ele>
        <time>2012-12-03T09:50:53Z</time>
      </trkpt>
      <trkpt lat="43.19222" lon="3.19409">
        <ele>0.62</ele>
        <time>2012-12-03T09:50:56Z</time>
      </trkpt>
      <trkpt lat="43.19224" lon="3.19405">
        <ele>0.62</ele>
        <time>2012-12-03T09:50:59Z</time>
      </trkpt>
      <trkpt lat="43.19226" lon="3.194">
        <ele>0.62</ele>
        <time>2012-12-03T09:51:04Z</time>
      </trkpt>
      <trkpt lat="43.19242" lon="3.19387">
        <ele>0.14</ele>
        <time>2012-12-03T09:51:18Z</time>
      </trkpt>
      <trkpt lat="43.19243" lon="3.19386">
        <ele>0.14</ele>
        <time>2012-12-03T09:51:19Z</time>
      </trkpt>
      <trkpt lat="43.19251" lon="3.1938">
        <ele>0.62</ele>
        <time>2012-12-03T09:51:25Z</time>
      </trkpt>
      <trkpt lat="43.19265" lon="3.19366">
        <ele>1.1</ele>
        <time>2012-12-03T09:51:38Z</time>
      </trkpt>
      <trkpt lat="43.19272" lon="3.19352">
        <ele>1.1</ele>
        <time>2012-12-03T09:51:49Z</time>
      </trkpt>
      <trkpt lat="43.19279" lon="3.19347">
        <ele>0.62</ele>
        <time>2012-12-03T09:51:59Z</time>
      </trkpt>
      <trkpt lat="43.19292" lon="3.19352">
        <ele>0.14</ele>
        <time>2012-12-03T09:52:09Z</time>
      </trkpt>
      <trkpt lat="43.19312" lon="3.19352">
        <ele>0.62</ele>
        <time>2012-12-03T09:52:23Z</time>
      </trkpt>
      <trkpt lat="43.19314" lon="3.19351">
        <ele>0.62</ele>
        <time>2012-12-03T09:52:25Z</time>
      </trkpt>
      <trkpt lat="43.19327" lon="3.1935">
        <ele>0.14</ele>
        <time>2012-12-03T09:52:34Z</time>
      </trkpt>
      <trkpt lat="43.19336" lon="3.19353">
        <ele>0.14</ele>
        <time>2012-12-03T09:52:41Z</time>
      </trkpt>
      <trkpt lat="43.19339" lon="3.19354">
        <ele>0.62</ele>
        <time>2012-12-03T09:52:44Z</time>
      </trkpt>
      <trkpt lat="43.19354" lon="3.19366">
        <ele>1.1</ele>
        <time>2012-12-03T09:52:58Z</time>
      </trkpt>
      <trkpt lat="43.19367" lon="3.19381">
        <ele>1.1</ele>
        <time>2012-12-03T09:53:10Z</time>
      </trkpt>
      <trkpt lat="43.19381" lon="3.19391">
        <ele>1.1</ele>
        <time>2012-12-03T09:53:23Z</time>
      </trkpt>
      <trkpt lat="43.19386" lon="3.19393">
        <ele>1.1</ele>
        <time>2012-12-03T09:53:28Z</time>
      </trkpt>
      <trkpt lat="43.19403" lon="3.19409">
        <ele>1.1</ele>
        <time>2012-12-03T09:53:43Z</time>
      </trkpt>
      <trkpt lat="43.19413" lon="3.19418">
        <ele>1.1</ele>
        <time>2012-12-03T09:53:53Z</time>
      </trkpt>
      <trkpt lat="43.19418" lon="3.19421">
        <ele>1.1</ele>
        <time>2012-12-03T09:53:57Z</time>
      </trkpt>
      <trkpt lat="43.19421" lon="3.19422">
        <ele>1.1</ele>
        <time>2012-12-03T09:53:59Z</time>
      </trkpt>
      <trkpt lat="43.19432" lon="3.19427">
        <ele>1.1</ele>
        <time>2012-12-03T09:54:08Z</time>
      </trkpt>
      <trkpt lat="43.1944" lon="3.19428">
        <ele>1.1</ele>
        <time>2012-12-03T09:54:14Z</time>
      </trkpt>
      <trkpt lat="43.19461" lon="3.19427">
        <ele>0.62</ele>
        <time>2012-12-03T09:54:28Z</time>
      </trkpt>
      <trkpt lat="43.19473" lon="3.19425">
        <ele>0.14</ele>
        <time>2012-12-03T09:54:37Z</time>
      </trkpt>
      <trkpt lat="43.19494" lon="3.1942">
        <ele>0.62</ele>
        <time>2012-12-03T09:54:54Z</time>
      </trkpt>
      <trkpt lat="43.19506" lon="3.1942">
        <ele>0.62</ele>
        <time>2012-12-03T09:55:03Z</time>
      </trkpt>
      <trkpt lat="43.19515" lon="3.19419">
        <ele>0.62</ele>
        <time>2012-12-03T09:55:10Z</time>
      </trkpt>
      <trkpt lat="43.19526" lon="3.19415">
        <ele>1.58</ele>
        <time>2012-12-03T09:55:19Z</time>
      </trkpt>
      <trkpt lat="43.1953" lon="3.19414">
        <ele>0.62</ele>
        <time>2012-12-03T09:55:23Z</time>
      </trkpt>
      <trkpt lat="43.19537" lon="3.19411">
        <ele>0.62</ele>
        <time>2012-12-03T09:55:29Z</time>
      </trkpt>
      <trkpt lat="43.19548" lon="3.19411">
        <ele>1.1</ele>
        <time>2012-12-03T09:55:37Z</time>
      </trkpt>
      <trkpt lat="43.19558" lon="3.1941">
        <ele>0.62</ele>
        <time>2012-12-03T09:55:44Z</time>
      </trkpt>
      <trkpt lat="43.19566" lon="3.19407">
        <ele>1.1</ele>
        <time>2012-12-03T09:55:50Z</time>
      </trkpt>
      <trkpt lat="43.19574" lon="3.19402">
        <ele>1.1</ele>
        <time>2012-12-03T09:55:57Z</time>
      </trkpt>
      <trkpt lat="43.19588" lon="3.19384">
        <ele>0.14</ele>
        <time>2012-12-03T09:56:11Z</time>
      </trkpt>
      <trkpt lat="43.19597" lon="3.19372">
        <ele>0.62</ele>
        <time>2012-12-03T09:56:22Z</time>
      </trkpt>
      <trkpt lat="43.19606" lon="3.19362">
        <ele>0.14</ele>
        <time>2012-12-03T09:56:33Z</time>
      </trkpt>
      <trkpt lat="43.19609" lon="3.19359">
        <ele>0.62</ele>
        <time>2012-12-03T09:56:36Z</time>
      </trkpt>
      <trkpt lat="43.19614" lon="3.19355">
        <ele>0.62</ele>
        <time>2012-12-03T09:56:41Z</time>
      </trkpt>
      <trkpt lat="43.19615" lon="3.19353">
        <ele>1.1</ele>
        <time>2012-12-03T09:56:46Z</time>
      </trkpt>
      <trkpt lat="43.19617" lon="3.1935">
        <ele>0.62</ele>
        <time>2012-12-03T09:56:49Z</time>
      </trkpt>
      <trkpt lat="43.19624" lon="3.19344">
        <ele>0.62</ele>
        <time>2012-12-03T09:56:57Z</time>
      </trkpt>
      <trkpt lat="43.19632" lon="3.19328">
        <ele>1.1</ele>
        <time>2012-12-03T09:57:10Z</time>
      </trkpt>
      <trkpt lat="43.19633" lon="3.19324">
        <ele>1.58</ele>
        <time>2012-12-03T09:57:24Z</time>
      </trkpt>
      <trkpt lat="43.19634" lon="3.19321">
        <ele>1.58</ele>
        <time>2012-12-03T09:57:43Z</time>
      </trkpt>
      <trkpt lat="43.19636" lon="3.1932">
        <ele>1.58</ele>
        <time>2012-12-03T09:58:05Z</time>
      </trkpt>
      <trkpt lat="43.19638" lon="3.1932">
        <ele>1.58</ele>
        <time>2012-12-03T09:58:20Z</time>
      </trkpt>
      <trkpt lat="43.19643" lon="3.19316">
        <ele>1.58</ele>
        <time>2012-12-03T09:58:29Z</time>
      </trkpt>
      <trkpt lat="43.19644" lon="3.19314">
        <ele>1.58</ele>
        <time>2012-12-03T09:58:32Z</time>
      </trkpt>
      <trkpt lat="43.19646" lon="3.19311">
        <ele>1.58</ele>
        <time>2012-12-03T09:58:34Z</time>
      </trkpt>
      <trkpt lat="43.19647" lon="3.19307">
        <ele>1.1</ele>
        <time>2012-12-03T09:58:37Z</time>
      </trkpt>
      <trkpt lat="43.19649" lon="3.19302">
        <ele>2.06</ele>
        <time>2012-12-03T09:58:41Z</time>
      </trkpt>
      <trkpt lat="43.1965" lon="3.193">
        <ele>1.58</ele>
        <time>2012-12-03T09:58:43Z</time>
      </trkpt>
      <trkpt lat="43.1965" lon="3.193">
        <ele>1.58</ele>
        <time>2012-12-03T09:58:55Z</time>
      </trkpt>
      <trkpt lat="43.19654" lon="3.1929">
        <ele>1.1</ele>
        <time>2012-12-03T09:59:04Z</time>
      </trkpt>
      <trkpt lat="43.19659" lon="3.19267">
        <ele>2.06</ele>
        <time>2012-12-03T09:59:19Z</time>
      </trkpt>
      <trkpt lat="43.19659" lon="3.1926">
        <ele>2.06</ele>
        <time>2012-12-03T09:59:23Z</time>
      </trkpt>
      <trkpt lat="43.1966" lon="3.19253">
        <ele>3.5</ele>
        <time>2012-12-03T09:59:28Z</time>
      </trkpt>
      <trkpt lat="43.19662" lon="3.1923">
        <ele>3.5</ele>
        <time>2012-12-03T09:59:40Z</time>
      </trkpt>
      <trkpt lat="43.19665" lon="3.19219">
        <ele>3.98</ele>
        <time>2012-12-03T09:59:56Z</time>
      </trkpt>
      <trkpt lat="43.19667" lon="3.19216">
        <ele>3.98</ele>
        <time>2012-12-03T10:00:12Z</time>
      </trkpt>
      <trkpt lat="43.19668" lon="3.19215">
        <ele>3.98</ele>
        <time>2012-12-03T10:00:32Z</time>
      </trkpt>
      <trkpt lat="43.19669" lon="3.19214">
        <ele>3.5</ele>
        <time>2012-12-03T10:00:57Z</time>
      </trkpt>
      <trkpt lat="43.19669" lon="3.19213">
        <ele>3.5</ele>
        <time>2012-12-03T10:01:11Z</time>
      </trkpt>
      <trkpt lat="43.19669" lon="3.19213">
        <ele>3.98</ele>
        <time>2012-12-03T10:01:22Z</time>
      </trkpt>
      <trkpt lat="43.19669" lon="3.19213">
        <ele>3.98</ele>
        <time>2012-12-03T10:01:43Z</time>
      </trkpt>
      <trkpt lat="43.19669" lon="3.19213">
        <ele>3.5</ele>
        <time>2012-12-03T10:02:02Z</time>
      </trkpt>
      <trkpt lat="43.19669" lon="3.19212">
        <ele>3.5</ele>
        <time>2012-12-03T10:02:28Z</time>
      </trkpt>
      <trkpt lat="43.19669" lon="3.19208">
        <ele>3.5</ele>
        <time>2012-12-03T10:02:48Z</time>
      </trkpt>
      <trkpt lat="43.19669" lon="3.19208">
        <ele>3.5</ele>
        <time>2012-12-03T10:02:50Z</time>
      </trkpt>
      <trkpt lat="43.19668" lon="3.19201">
        <ele>3.5</ele>
        <time>2012-12-03T10:02:54Z</time>
      </trkpt>
      <trkpt lat="43.19668" lon="3.1919">
        <ele>3.98</ele>
        <time>2012-12-03T10:02:59Z</time>
      </trkpt>
      <trkpt lat="43.1967" lon="3.19164">
        <ele>3.98</ele>
        <time>2012-12-03T10:03:08Z</time>
      </trkpt>
      <trkpt lat="43.1967" lon="3.19158">
        <ele>3.98</ele>
        <time>2012-12-03T10:03:10Z</time>
      </trkpt>
      <trkpt lat="43.19669" lon="3.19149">
        <ele>3.5</ele>
        <time>2012-12-03T10:03:15Z</time>
      </trkpt>
      <trkpt lat="43.19672" lon="3.19132">
        <ele>3.98</ele>
        <time>2012-12-03T10:03:23Z</time>
      </trkpt>
      <trkpt lat="43.19677" lon="3.19103">
        <ele>3.5</ele>
        <time>2012-12-03T10:03:35Z</time>
      </trkpt>
      <trkpt lat="43.1968" lon="3.19085">
        <ele>3.02</ele>
        <time>2012-12-03T10:03:46Z</time>
      </trkpt>
      <trkpt lat="43.19681" lon="3.19081">
        <ele>3.5</ele>
        <time>2012-12-03T10:03:48Z</time>
      </trkpt>
      <trkpt lat="43.19681" lon="3.19073">
        <ele>3.5</ele>
        <time>2012-12-03T10:03:52Z</time>
      </trkpt>
      <trkpt lat="43.19682" lon="3.19066">
        <ele>3.02</ele>
        <time>2012-12-03T10:03:57Z</time>
      </trkpt>
      <trkpt lat="43.19683" lon="3.19057">
        <ele>3.02</ele>
        <time>2012-12-03T10:04:01Z</time>
      </trkpt>
      <trkpt lat="43.19684" lon="3.19052">
        <ele>3.5</ele>
        <time>2012-12-03T10:04:04Z</time>
      </trkpt>
      <trkpt lat="43.19687" lon="3.19036">
        <ele>3.02</ele>
        <time>2012-12-03T10:04:14Z</time>
      </trkpt>
      <trkpt lat="43.19697" lon="3.19023">
        <ele>1.58</ele>
        <time>2012-12-03T10:04:26Z</time>
      </trkpt>
      <trkpt lat="43.197" lon="3.19021">
        <ele>2.06</ele>
        <time>2012-12-03T10:04:39Z</time>
      </trkpt>
      <trkpt lat="43.197" lon="3.1902">
        <ele>2.06</ele>
        <time>2012-12-03T10:05:03Z</time>
      </trkpt>
      <trkpt lat="43.19701" lon="3.19019">
        <ele>2.06</ele>
        <time>2012-12-03T10:05:30Z</time>
      </trkpt>
      <trkpt lat="43.19703" lon="3.19019">
        <ele>2.06</ele>
        <time>2012-12-03T10:06:03Z</time>
      </trkpt>
      <trkpt lat="43.19703" lon="3.19017">
        <ele>2.54</ele>
        <time>2012-12-03T10:06:33Z</time>
      </trkpt>
      <trkpt lat="43.19703" lon="3.19016">
        <ele>2.54</ele>
        <time>2012-12-03T10:06:59Z</time>
      </trkpt>
      <trkpt lat="43.19703" lon="3.19015">
        <ele>2.54</ele>
        <time>2012-12-03T10:07:25Z</time>
      </trkpt>
      <trkpt lat="43.19703" lon="3.19015">
        <ele>2.54</ele>
        <time>2012-12-03T10:07:49Z</time>
      </trkpt>
      <trkpt lat="43.19702" lon="3.19015">
        <ele>2.54</ele>
        <time>2012-12-03T10:08:07Z</time>
      </trkpt>
      <trkpt lat="43.19703" lon="3.19015">
        <ele>2.54</ele>
        <time>2012-12-03T10:08:26Z</time>
      </trkpt>
      <trkpt lat="43.19704" lon="3.19015">
        <ele>2.54</ele>
        <time>2012-12-03T10:08:39Z</time>
      </trkpt>
      <trkpt lat="43.19704" lon="3.19015">
        <ele>2.54</ele>
        <time>2012-12-03T10:08:59Z</time>
      </trkpt>
      <trkpt lat="43.19704" lon="3.19015">
        <ele>2.54</ele>
        <time>2012-12-03T10:09:23Z</time>
      </trkpt>
      <trkpt lat="43.19704" lon="3.19015">
        <ele>2.54</ele>
        <time>2012-12-03T10:09:46Z</time>
      </trkpt>
      <trkpt lat="43.19704" lon="3.19015">
        <ele>2.54</ele>
        <time>2012-12-03T10:09:52Z</time>
      </trkpt>
      <trkpt lat="43.19705" lon="3.1901">
        <ele>2.54</ele>
        <time>2012-12-03T10:09:56Z</time>
      </trkpt>
      <trkpt lat="43.19704" lon="3.19002">
        <ele>2.54</ele>
        <time>2012-12-03T10:10:01Z</time>
      </trkpt>
      <trkpt lat="43.19701" lon="3.18986">
        <ele>3.5</ele>
        <time>2012-12-03T10:10:09Z</time>
      </trkpt>
      <trkpt lat="43.197" lon="3.18981">
        <ele>3.5</ele>
        <time>2012-12-03T10:10:12Z</time>
      </trkpt>
      <trkpt lat="43.19699" lon="3.18975">
        <ele>3.98</ele>
        <time>2012-12-03T10:10:16Z</time>
      </trkpt>
      <trkpt lat="43.197" lon="3.18967">
        <ele>3.98</ele>
        <time>2012-12-03T10:10:20Z</time>
      </trkpt>
      <trkpt lat="43.19699" lon="3.18956">
        <ele>3.98</ele>
        <time>2012-12-03T10:10:26Z</time>
      </trkpt>
      <trkpt lat="43.19699" lon="3.1895">
        <ele>4.46</ele>
        <time>2012-12-03T10:10:37Z</time>
      </trkpt>
      <trkpt lat="43.19699" lon="3.1895">
        <ele>4.46</ele>
        <time>2012-12-03T10:10:38Z</time>
      </trkpt>
      <trkpt lat="43.19699" lon="3.18947">
        <ele>4.46</ele>
        <time>2012-12-03T10:10:40Z</time>
      </trkpt>
      <trkpt lat="43.19701" lon="3.18939">
        <ele>5.42</ele>
        <time>2012-12-03T10:10:45Z</time>
      </trkpt>
      <trkpt lat="43.19709" lon="3.18926">
        <ele>5.91</ele>
        <time>2012-12-03T10:10:55Z</time>
      </trkpt>
      <trkpt lat="43.19716" lon="3.18921">
        <ele>6.39</ele>
        <time>2012-12-03T10:11:01Z</time>
      </trkpt>
      <trkpt lat="43.19721" lon="3.18918">
        <ele>6.39</ele>
        <time>2012-12-03T10:11:07Z</time>
      </trkpt>
      <trkpt lat="43.19726" lon="3.18914">
        <ele>6.39</ele>
        <time>2012-12-03T10:11:12Z</time>
      </trkpt>
      <trkpt lat="43.19731" lon="3.18908">
        <ele>6.39</ele>
        <time>2012-12-03T10:11:18Z</time>
      </trkpt>
      <trkpt lat="43.19743" lon="3.18898">
        <ele>6.39</ele>
        <time>2012-12-03T10:11:30Z</time>
      </trkpt>
      <trkpt lat="43.19754" lon="3.1889">
        <ele>6.39</ele>
        <time>2012-12-03T10:11:38Z</time>
      </trkpt>
      <trkpt lat="43.19766" lon="3.18871">
        <ele>6.39</ele>
        <time>2012-12-03T10:11:51Z</time>
      </trkpt>
      <trkpt lat="43.19768" lon="3.18868">
        <ele>6.39</ele>
        <time>2012-12-03T10:11:54Z</time>
      </trkpt>
      <trkpt lat="43.1977" lon="3.18865">
        <ele>6.87</ele>
        <time>2012-12-03T10:11:56Z</time>
      </trkpt>
      <trkpt lat="43.19778" lon="3.18848">
        <ele>6.87</ele>
        <time>2012-12-03T10:12:08Z</time>
      </trkpt>
      <trkpt lat="43.19778" lon="3.18847">
        <ele>6.87</ele>
        <time>2012-12-03T10:12:09Z</time>
      </trkpt>
      <trkpt lat="43.19779" lon="3.18841">
        <ele>7.83</ele>
        <time>2012-12-03T10:12:13Z</time>
      </trkpt>
      <trkpt lat="43.19779" lon="3.18832">
        <ele>7.35</ele>
        <time>2012-12-03T10:12:20Z</time>
      </trkpt>
      <trkpt lat="43.19781" lon="3.1881">
        <ele>6.39</ele>
        <time>2012-12-03T10:12:32Z</time>
      </trkpt>
      <trkpt lat="43.19783" lon="3.18795">
        <ele>6.39</ele>
        <time>2012-12-03T10:12:39Z</time>
      </trkpt>
      <trkpt lat="43.19785" lon="3.18771">
        <ele>5.91</ele>
        <time>2012-12-03T10:12:52Z</time>
      </trkpt>
      <trkpt lat="43.19786" lon="3.18763">
        <ele>5.42</ele>
        <time>2012-12-03T10:12:56Z</time>
      </trkpt>
      <trkpt lat="43.19788" lon="3.18746">
        <ele>4.46</ele>
        <time>2012-12-03T10:13:04Z</time>
      </trkpt>
      <trkpt lat="43.19785" lon="3.18733">
        <ele>4.94</ele>
        <time>2012-12-03T10:13:12Z</time>
      </trkpt>
      <trkpt lat="43.19785" lon="3.18729">
        <ele>4.94</ele>
        <time>2012-12-03T10:13:14Z</time>
      </trkpt>
      <trkpt lat="43.19783" lon="3.18727">
        <ele>4.94</ele>
        <time>2012-12-03T10:13:16Z</time>
      </trkpt>
      <trkpt lat="43.1978" lon="3.18714">
        <ele>5.91</ele>
        <time>2012-12-03T10:13:25Z</time>
      </trkpt>
      <trkpt lat="43.1977" lon="3.18693">
        <ele>6.39</ele>
        <time>2012-12-03T10:13:37Z</time>
      </trkpt>
      <trkpt lat="43.19765" lon="3.18672">
        <ele>7.35</ele>
        <time>2012-12-03T10:13:49Z</time>
      </trkpt>
      <trkpt lat="43.19758" lon="3.18649">
        <ele>6.39</ele>
        <time>2012-12-03T10:14:04Z</time>
      </trkpt>
      <trkpt lat="43.19758" lon="3.18645">
        <ele>6.87</ele>
        <time>2012-12-03T10:14:06Z</time>
      </trkpt>
      <trkpt lat="43.19758" lon="3.18626">
        <ele>7.83</ele>
        <time>2012-12-03T10:14:16Z</time>
      </trkpt>
      <trkpt lat="43.19759" lon="3.1861">
        <ele>7.35</ele>
        <time>2012-12-03T10:14:25Z</time>
      </trkpt>
      <trkpt lat="43.19763" lon="3.18593">
        <ele>7.83</ele>
        <time>2012-12-03T10:14:33Z</time>
      </trkpt>
      <trkpt lat="43.19765" lon="3.18584">
        <ele>7.83</ele>
        <time>2012-12-03T10:14:37Z</time>
      </trkpt>
      <trkpt lat="43.19769" lon="3.18575">
        <ele>8.31</ele>
        <time>2012-12-03T10:14:43Z</time>
      </trkpt>
      <trkpt lat="43.19772" lon="3.18568">
        <ele>8.79</ele>
        <time>2012-12-03T10:14:47Z</time>
      </trkpt>
      <trkpt lat="43.19778" lon="3.18548">
        <ele>8.79</ele>
        <time>2012-12-03T10:14:58Z</time>
      </trkpt>
      <trkpt lat="43.19779" lon="3.18547">
        <ele>9.27</ele>
        <time>2012-12-03T10:14:59Z</time>
      </trkpt>
      <trkpt lat="43.19784" lon="3.18532">
        <ele>8.31</ele>
        <time>2012-12-03T10:15:08Z</time>
      </trkpt>
      <trkpt lat="43.19786" lon="3.18527">
        <ele>8.79</ele>
        <time>2012-12-03T10:15:11Z</time>
      </trkpt>
      <trkpt lat="43.1979" lon="3.18506">
        <ele>8.79</ele>
        <time>2012-12-03T10:15:23Z</time>
      </trkpt>
      <trkpt lat="43.1979" lon="3.18503">
        <ele>8.31</ele>
        <time>2012-12-03T10:15:25Z</time>
      </trkpt>
      <trkpt lat="43.19793" lon="3.18479">
        <ele>8.79</ele>
        <time>2012-12-03T10:15:36Z</time>
      </trkpt>
      <trkpt lat="43.19793" lon="3.18477">
        <ele>8.79</ele>
        <time>2012-12-03T10:15:37Z</time>
      </trkpt>
      <trkpt lat="43.19793" lon="3.18473">
        <ele>8.79</ele>
        <time>2012-12-03T10:15:39Z</time>
      </trkpt>
      <trkpt lat="43.19792" lon="3.1847">
        <ele>8.31</ele>
        <time>2012-12-03T10:15:41Z</time>
      </trkpt>
      <trkpt lat="43.19792" lon="3.18463">
        <ele>8.79</ele>
        <time>2012-12-03T10:15:45Z</time>
      </trkpt>
      <trkpt lat="43.1979" lon="3.18441">
        <ele>7.83</ele>
        <time>2012-12-03T10:15:57Z</time>
      </trkpt>
      <trkpt lat="43.1979" lon="3.18438">
        <ele>7.83</ele>
        <time>2012-12-03T10:15:59Z</time>
      </trkpt>
      <trkpt lat="43.19791" lon="3.18435">
        <ele>7.83</ele>
        <time>2012-12-03T10:16:01Z</time>
      </trkpt>
      <trkpt lat="43.19791" lon="3.18431">
        <ele>7.83</ele>
        <time>2012-12-03T10:16:03Z</time>
      </trkpt>
      <trkpt lat="43.19789" lon="3.18424">
        <ele>7.83</ele>
        <time>2012-12-03T10:16:07Z</time>
      </trkpt>
      <trkpt lat="43.19789" lon="3.18406">
        <ele>7.35</ele>
        <time>2012-12-03T10:16:16Z</time>
      </trkpt>
      <trkpt lat="43.1979" lon="3.18399">
        <ele>6.87</ele>
        <time>2012-12-03T10:16:20Z</time>
      </trkpt>
      <trkpt lat="43.1979" lon="3.18394">
        <ele>6.39</ele>
        <time>2012-12-03T10:16:23Z</time>
      </trkpt>
      <trkpt lat="43.19796" lon="3.18378">
        <ele>5.91</ele>
        <time>2012-12-03T10:16:30Z</time>
      </trkpt>
      <trkpt lat="43.19806" lon="3.18361">
        <ele>5.42</ele>
        <time>2012-12-03T10:16:42Z</time>
      </trkpt>
      <trkpt lat="43.19814" lon="3.1835">
        <ele>5.91</ele>
        <time>2012-12-03T10:16:52Z</time>
      </trkpt>
      <trkpt lat="43.19815" lon="3.18349">
        <ele>5.91</ele>
        <time>2012-12-03T10:16:56Z</time>
      </trkpt>
      <trkpt lat="43.19816" lon="3.18346">
        <ele>5.42</ele>
        <time>2012-12-03T10:17:02Z</time>
      </trkpt>
      <trkpt lat="43.19809" lon="3.18361">
        <ele>5.91</ele>
        <time>2012-12-03T10:17:15Z</time>
      </trkpt>
      <trkpt lat="43.19805" lon="3.18367">
        <ele>5.91</ele>
        <time>2012-12-03T10:17:26Z</time>
      </trkpt>
      <trkpt lat="43.19805" lon="3.18366">
        <ele>5.42</ele>
        <time>2012-12-03T10:17:39Z</time>
      </trkpt>
      <trkpt lat="43.19809" lon="3.18362">
        <ele>5.91</ele>
        <time>2012-12-03T10:17:44Z</time>
      </trkpt>
      <trkpt lat="43.19813" lon="3.18353">
        <ele>5.42</ele>
        <time>2012-12-03T10:17:50Z</time>
      </trkpt>
      <trkpt lat="43.19818" lon="3.18347">
        <ele>5.91</ele>
        <time>2012-12-03T10:17:58Z</time>
      </trkpt>
      <trkpt lat="43.1982" lon="3.18343">
        <ele>5.91</ele>
        <time>2012-12-03T10:18:01Z</time>
      </trkpt>
      <trkpt lat="43.19831" lon="3.18322">
        <ele>6.39</ele>
        <time>2012-12-03T10:18:15Z</time>
      </trkpt>
      <trkpt lat="43.19842" lon="3.18305">
        <ele>7.83</ele>
        <time>2012-12-03T10:18:27Z</time>
      </trkpt>
      <trkpt lat="43.19845" lon="3.18299">
        <ele>7.83</ele>
        <time>2012-12-03T10:18:30Z</time>
      </trkpt>
      <trkpt lat="43.19847" lon="3.18296">
        <ele>7.83</ele>
        <time>2012-12-03T10:18:33Z</time>
      </trkpt>
      <trkpt lat="43.1985" lon="3.18295">
        <ele>7.83</ele>
        <time>2012-12-03T10:18:35Z</time>
      </trkpt>
      <trkpt lat="43.19853" lon="3.18291">
        <ele>7.83</ele>
        <time>2012-12-03T10:18:38Z</time>
      </trkpt>
      <trkpt lat="43.19857" lon="3.18284">
        <ele>8.31</ele>
        <time>2012-12-03T10:18:46Z</time>
      </trkpt>
      <trkpt lat="43.1986" lon="3.18279">
        <ele>8.31</ele>
        <time>2012-12-03T10:18:50Z</time>
      </trkpt>
      <trkpt lat="43.19863" lon="3.18274">
        <ele>8.31</ele>
        <time>2012-12-03T10:18:53Z</time>
      </trkpt>
      <trkpt lat="43.19874" lon="3.18257">
        <ele>8.79</ele>
        <time>2012-12-03T10:19:05Z</time>
      </trkpt>
      <trkpt lat="43.19877" lon="3.18254">
        <ele>8.31</ele>
        <time>2012-12-03T10:19:10Z</time>
      </trkpt>
      <trkpt lat="43.19882" lon="3.18245">
        <ele>8.79</ele>
        <time>2012-12-03T10:19:15Z</time>
      </trkpt>
      <trkpt lat="43.19887" lon="3.18237">
        <ele>9.27</ele>
        <time>2012-12-03T10:19:22Z</time>
      </trkpt>
      <trkpt lat="43.19902" lon="3.1822">
        <ele>9.75</ele>
        <time>2012-12-03T10:19:34Z</time>
      </trkpt>
      <trkpt lat="43.19913" lon="3.18202">
        <ele>10.71</ele>
        <time>2012-12-03T10:19:45Z</time>
      </trkpt>
      <trkpt lat="43.19927" lon="3.18182">
        <ele>11.19</ele>
        <time>2012-12-03T10:20:01Z</time>
      </trkpt>
      <trkpt lat="43.19941" lon="3.18168">
        <ele>11.67</ele>
        <time>2012-12-03T10:20:14Z</time>
      </trkpt>
      <trkpt lat="43.19946" lon="3.18161">
        <ele>11.67</ele>
        <time>2012-12-03T10:20:20Z</time>
      </trkpt>
      <trkpt lat="43.19948" lon="3.18158">
        <ele>12.15</ele>
        <time>2012-12-03T10:20:24Z</time>
      </trkpt>
      <trkpt lat="43.19952" lon="3.18145">
        <ele>12.63</ele>
        <time>2012-12-03T10:20:33Z</time>
      </trkpt>
      <trkpt lat="43.19953" lon="3.18137">
        <ele>13.12</ele>
        <time>2012-12-03T10:20:38Z</time>
      </trkpt>
      <trkpt lat="43.19952" lon="3.18132">
        <ele>13.12</ele>
        <time>2012-12-03T10:20:41Z</time>
      </trkpt>
      <trkpt lat="43.19948" lon="3.18121">
        <ele>13.6</ele>
        <time>2012-12-03T10:20:49Z</time>
      </trkpt>
      <trkpt lat="43.19946" lon="3.18108">
        <ele>14.56</ele>
        <time>2012-12-03T10:20:57Z</time>
      </trkpt>
      <trkpt lat="43.19945" lon="3.18099">
        <ele>15.04</ele>
        <time>2012-12-03T10:21:09Z</time>
      </trkpt>
      <trkpt lat="43.19945" lon="3.18099">
        <ele>15.04</ele>
        <time>2012-12-03T10:21:35Z</time>
      </trkpt>
      <trkpt lat="43.19945" lon="3.18099">
        <ele>15.52</ele>
        <time>2012-12-03T10:21:41Z</time>
      </trkpt>
      <trkpt lat="43.19946" lon="3.18098">
        <ele>15.52</ele>
        <time>2012-12-03T10:21:43Z</time>
      </trkpt>
      <trkpt lat="43.19952" lon="3.18093">
        <ele>16</ele>
        <time>2012-12-03T10:21:57Z</time>
      </trkpt>
      <trkpt lat="43.19952" lon="3.18093">
        <ele>16</ele>
        <time>2012-12-03T10:21:58Z</time>
      </trkpt>
      <trkpt lat="43.19954" lon="3.18091">
        <ele>16</ele>
        <time>2012-12-03T10:22:00Z</time>
      </trkpt>
      <trkpt lat="43.1997" lon="3.18074">
        <ele>16.96</ele>
        <time>2012-12-03T10:22:13Z</time>
      </trkpt>
      <trkpt lat="43.19979" lon="3.18057">
        <ele>16.96</ele>
        <time>2012-12-03T10:22:25Z</time>
      </trkpt>
      <trkpt lat="43.19988" lon="3.18038">
        <ele>18.88</ele>
        <time>2012-12-03T10:22:39Z</time>
      </trkpt>
      <trkpt lat="43.19989" lon="3.18036">
        <ele>19.36</ele>
        <time>2012-12-03T10:22:42Z</time>
      </trkpt>
      <trkpt lat="43.19991" lon="3.18029">
        <ele>19.36</ele>
        <time>2012-12-03T10:22:48Z</time>
      </trkpt>
      <trkpt lat="43.19996" lon="3.18015">
        <ele>20.81</ele>
        <time>2012-12-03T10:22:58Z</time>
      </trkpt>
      <trkpt lat="43.19999" lon="3.1801">
        <ele>20.81</ele>
        <time>2012-12-03T10:23:02Z</time>
      </trkpt>
      <trkpt lat="43.20003" lon="3.18005">
        <ele>21.29</ele>
        <time>2012-12-03T10:23:06Z</time>
      </trkpt>
      <trkpt lat="43.20006" lon="3.18002">
        <ele>21.29</ele>
        <time>2012-12-03T10:23:09Z</time>
      </trkpt>
      <trkpt lat="43.20015" lon="3.17992">
        <ele>22.73</ele>
        <time>2012-12-03T10:23:19Z</time>
      </trkpt>
      <trkpt lat="43.20029" lon="3.17981">
        <ele>24.17</ele>
        <time>2012-12-03T10:23:32Z</time>
      </trkpt>
      <trkpt lat="43.20039" lon="3.1797">
        <ele>25.61</ele>
        <time>2012-12-03T10:23:43Z</time>
      </trkpt>
      <trkpt lat="43.20045" lon="3.17965">
        <ele>26.57</ele>
        <time>2012-12-03T10:23:48Z</time>
      </trkpt>
      <trkpt lat="43.20061" lon="3.17953">
        <ele>27.53</ele>
        <time>2012-12-03T10:24:01Z</time>
      </trkpt>
      <trkpt lat="43.20074" lon="3.17945">
        <ele>28.02</ele>
        <time>2012-12-03T10:24:12Z</time>
      </trkpt>
      <trkpt lat="43.20078" lon="3.17944">
        <ele>28.5</ele>
        <time>2012-12-03T10:24:16Z</time>
      </trkpt>
      <trkpt lat="43.20081" lon="3.17944">
        <ele>28.98</ele>
        <time>2012-12-03T10:24:19Z</time>
      </trkpt>
      <trkpt lat="43.20089" lon="3.17941">
        <ele>29.94</ele>
        <time>2012-12-03T10:24:26Z</time>
      </trkpt>
      <trkpt lat="43.20104" lon="3.17946">
        <ele>31.38</ele>
        <time>2012-12-03T10:24:38Z</time>
      </trkpt>
      <trkpt lat="43.20122" lon="3.1795">
        <ele>32.82</ele>
        <time>2012-12-03T10:24:52Z</time>
      </trkpt>
      <trkpt lat="43.20135" lon="3.17942">
        <ele>33.78</ele>
        <time>2012-12-03T10:25:05Z</time>
      </trkpt>
      <trkpt lat="43.20137" lon="3.17929">
        <ele>35.23</ele>
        <time>2012-12-03T10:25:14Z</time>
      </trkpt>
      <trkpt lat="43.20134" lon="3.17908">
        <ele>36.67</ele>
        <time>2012-12-03T10:25:28Z</time>
      </trkpt>
      <trkpt lat="43.20134" lon="3.17906">
        <ele>35.71</ele>
        <time>2012-12-03T10:25:29Z</time>
      </trkpt>
      <trkpt lat="43.20125" lon="3.17887">
        <ele>37.63</ele>
        <time>2012-12-03T10:25:43Z</time>
      </trkpt>
      <trkpt lat="43.20117" lon="3.17864">
        <ele>39.55</ele>
        <time>2012-12-03T10:25:59Z</time>
      </trkpt>
      <trkpt lat="43.20113" lon="3.17845">
        <ele>40.99</ele>
        <time>2012-12-03T10:26:11Z</time>
      </trkpt>
      <trkpt lat="43.20112" lon="3.17828">
        <ele>41.95</ele>
        <time>2012-12-03T10:26:23Z</time>
      </trkpt>
      <trkpt lat="43.2011" lon="3.17809">
        <ele>42.92</ele>
        <time>2012-12-03T10:26:35Z</time>
      </trkpt>
      <trkpt lat="43.2011" lon="3.17806">
        <ele>42.92</ele>
        <time>2012-12-03T10:26:37Z</time>
      </trkpt>
      <trkpt lat="43.2011" lon="3.17797">
        <ele>43.4</ele>
        <time>2012-12-03T10:26:43Z</time>
      </trkpt>
      <trkpt lat="43.20109" lon="3.17791">
        <ele>43.88</ele>
        <time>2012-12-03T10:26:48Z</time>
      </trkpt>
      <trkpt lat="43.20109" lon="3.17786">
        <ele>43.88</ele>
        <time>2012-12-03T10:26:51Z</time>
      </trkpt>
      <trkpt lat="43.2011" lon="3.1777">
        <ele>44.84</ele>
        <time>2012-12-03T10:27:01Z</time>
      </trkpt>
      <trkpt lat="43.20109" lon="3.17761">
        <ele>45.8</ele>
        <time>2012-12-03T10:27:07Z</time>
      </trkpt>
      <trkpt lat="43.20109" lon="3.17754">
        <ele>45.8</ele>
        <time>2012-12-03T10:27:11Z</time>
      </trkpt>
      <trkpt lat="43.20108" lon="3.17746">
        <ele>46.28</ele>
        <time>2012-12-03T10:27:16Z</time>
      </trkpt>
      <trkpt lat="43.20107" lon="3.17743">
        <ele>46.28</ele>
        <time>2012-12-03T10:27:18Z</time>
      </trkpt>
      <trkpt lat="43.20107" lon="3.17739">
        <ele>46.28</ele>
        <time>2012-12-03T10:27:20Z</time>
      </trkpt>
      <trkpt lat="43.20104" lon="3.17729">
        <ele>47.24</ele>
        <time>2012-12-03T10:27:27Z</time>
      </trkpt>
      <trkpt lat="43.20104" lon="3.17718">
        <ele>48.2</ele>
        <time>2012-12-03T10:27:33Z</time>
      </trkpt>
      <trkpt lat="43.201" lon="3.17698">
        <ele>49.16</ele>
        <time>2012-12-03T10:27:47Z</time>
      </trkpt>
      <trkpt lat="43.20096" lon="3.17684">
        <ele>50.13</ele>
        <time>2012-12-03T10:27:57Z</time>
      </trkpt>
      <trkpt lat="43.20093" lon="3.17675">
        <ele>50.13</ele>
        <time>2012-12-03T10:28:03Z</time>
      </trkpt>
      <trkpt lat="43.20088" lon="3.17664">
        <ele>50.61</ele>
        <time>2012-12-03T10:28:11Z</time>
      </trkpt>
      <trkpt lat="43.20084" lon="3.17649">
        <ele>50.61</ele>
        <time>2012-12-03T10:28:20Z</time>
      </trkpt>
      <trkpt lat="43.20078" lon="3.17629">
        <ele>51.57</ele>
        <time>2012-12-03T10:28:33Z</time>
      </trkpt>
      <trkpt lat="43.20077" lon="3.17625">
        <ele>51.57</ele>
        <time>2012-12-03T10:28:35Z</time>
      </trkpt>
      <trkpt lat="43.20076" lon="3.1761">
        <ele>51.09</ele>
        <time>2012-12-03T10:28:48Z</time>
      </trkpt>
      <trkpt lat="43.20075" lon="3.17599">
        <ele>51.57</ele>
        <time>2012-12-03T10:28:55Z</time>
      </trkpt>
      <trkpt lat="43.20074" lon="3.17579">
        <ele>50.61</ele>
        <time>2012-12-03T10:29:04Z</time>
      </trkpt>
      <trkpt lat="43.20075" lon="3.17567">
        <ele>49.65</ele>
        <time>2012-12-03T10:29:11Z</time>
      </trkpt>
      <trkpt lat="43.20075" lon="3.17544">
        <ele>50.13</ele>
        <time>2012-12-03T10:29:24Z</time>
      </trkpt>
      <trkpt lat="43.20074" lon="3.17515">
        <ele>49.65</ele>
        <time>2012-12-03T10:29:39Z</time>
      </trkpt>
      <trkpt lat="43.20074" lon="3.1751">
        <ele>49.65</ele>
        <time>2012-12-03T10:29:45Z</time>
      </trkpt>
      <trkpt lat="43.20074" lon="3.17508">
        <ele>50.13</ele>
        <time>2012-12-03T10:29:47Z</time>
      </trkpt>
      <trkpt lat="43.20074" lon="3.17499">
        <ele>50.61</ele>
        <time>2012-12-03T10:29:52Z</time>
      </trkpt>
      <trkpt lat="43.20072" lon="3.17468">
        <ele>50.61</ele>
        <time>2012-12-03T10:30:08Z</time>
      </trkpt>
      <trkpt lat="43.20072" lon="3.17452">
        <ele>50.61</ele>
        <time>2012-12-03T10:30:17Z</time>
      </trkpt>
      <trkpt lat="43.20076" lon="3.17425">
        <ele>50.61</ele>
        <time>2012-12-03T10:30:31Z</time>
      </trkpt>
      <trkpt lat="43.20079" lon="3.1741">
        <ele>51.09</ele>
        <time>2012-12-03T10:30:40Z</time>
      </trkpt>
      <trkpt lat="43.2008" lon="3.17406">
        <ele>51.09</ele>
        <time>2012-12-03T10:30:42Z</time>
      </trkpt>
      <trkpt lat="43.20083" lon="3.17382">
        <ele>50.13</ele>
        <time>2012-12-03T10:30:55Z</time>
      </trkpt>
      <trkpt lat="43.20086" lon="3.17361">
        <ele>49.65</ele>
        <time>2012-12-03T10:31:06Z</time>
      </trkpt>
      <trkpt lat="43.20093" lon="3.17337">
        <ele>50.13</ele>
        <time>2012-12-03T10:31:20Z</time>
      </trkpt>
      <trkpt lat="43.20097" lon="3.17313">
        <ele>49.65</ele>
        <time>2012-12-03T10:31:33Z</time>
      </trkpt>
      <trkpt lat="43.20096" lon="3.17292">
        <ele>48.68</ele>
        <time>2012-12-03T10:31:44Z</time>
      </trkpt>
      <trkpt lat="43.2009" lon="3.17265">
        <ele>48.2</ele>
        <time>2012-12-03T10:31:59Z</time>
      </trkpt>
      <trkpt lat="43.20084" lon="3.17244">
        <ele>48.2</ele>
        <time>2012-12-03T10:32:12Z</time>
      </trkpt>
      <trkpt lat="43.2008" lon="3.17224">
        <ele>47.24</ele>
        <time>2012-12-03T10:32:24Z</time>
      </trkpt>
      <trkpt lat="43.20075" lon="3.17202">
        <ele>46.28</ele>
        <time>2012-12-03T10:32:37Z</time>
      </trkpt>
      <trkpt lat="43.20074" lon="3.1719">
        <ele>46.76</ele>
        <time>2012-12-03T10:32:45Z</time>
      </trkpt>
      <trkpt lat="43.20076" lon="3.17165">
        <ele>45.8</ele>
        <time>2012-12-03T10:32:58Z</time>
      </trkpt>
      <trkpt lat="43.2008" lon="3.17143">
        <ele>44.84</ele>
        <time>2012-12-03T10:33:11Z</time>
      </trkpt>
      <trkpt lat="43.20081" lon="3.17141">
        <ele>44.84</ele>
        <time>2012-12-03T10:33:12Z</time>
      </trkpt>
      <trkpt lat="43.20085" lon="3.17118">
        <ele>43.88</ele>
        <time>2012-12-03T10:33:26Z</time>
      </trkpt>
      <trkpt lat="43.20085" lon="3.17109">
        <ele>45.32</ele>
        <time>2012-12-03T10:33:30Z</time>
      </trkpt>
      <trkpt lat="43.20086" lon="3.17106">
        <ele>44.36</ele>
        <time>2012-12-03T10:33:33Z</time>
      </trkpt>
      <trkpt lat="43.20088" lon="3.171">
        <ele>43.88</ele>
        <time>2012-12-03T10:33:36Z</time>
      </trkpt>
      <trkpt lat="43.20092" lon="3.17076">
        <ele>44.36</ele>
        <time>2012-12-03T10:33:49Z</time>
      </trkpt>
      <trkpt lat="43.20095" lon="3.17058">
        <ele>45.32</ele>
        <time>2012-12-03T10:34:00Z</time>
      </trkpt>
      <trkpt lat="43.20097" lon="3.17051">
        <ele>44.36</ele>
        <time>2012-12-03T10:34:05Z</time>
      </trkpt>
      <trkpt lat="43.20098" lon="3.17041">
        <ele>44.36</ele>
        <time>2012-12-03T10:34:11Z</time>
      </trkpt>
      <trkpt lat="43.20107" lon="3.17021">
        <ele>43.88</ele>
        <time>2012-12-03T10:34:24Z</time>
      </trkpt>
      <trkpt lat="43.20117" lon="3.17">
        <ele>44.84</ele>
        <time>2012-12-03T10:34:39Z</time>
      </trkpt>
      <trkpt lat="43.20125" lon="3.16975">
        <ele>43.4</ele>
        <time>2012-12-03T10:34:54Z</time>
      </trkpt>
      <trkpt lat="43.2013" lon="3.16953">
        <ele>43.4</ele>
        <time>2012-12-03T10:35:06Z</time>
      </trkpt>
      <trkpt lat="43.2013" lon="3.1695">
        <ele>42.92</ele>
        <time>2012-12-03T10:35:08Z</time>
      </trkpt>
      <trkpt lat="43.20133" lon="3.16937">
        <ele>42.44</ele>
        <time>2012-12-03T10:35:15Z</time>
      </trkpt>
      <trkpt lat="43.20134" lon="3.1693">
        <ele>42.44</ele>
        <time>2012-12-03T10:35:19Z</time>
      </trkpt>
      <trkpt lat="43.20135" lon="3.16925">
        <ele>42.92</ele>
        <time>2012-12-03T10:35:22Z</time>
      </trkpt>
      <trkpt lat="43.20138" lon="3.16918">
        <ele>42.44</ele>
        <time>2012-12-03T10:35:26Z</time>
      </trkpt>
      <trkpt lat="43.20148" lon="3.16898">
        <ele>41.95</ele>
        <time>2012-12-03T10:35:39Z</time>
      </trkpt>
      <trkpt lat="43.2016" lon="3.16881">
        <ele>41.47</ele>
        <time>2012-12-03T10:35:52Z</time>
      </trkpt>
      <trkpt lat="43.20174" lon="3.16866">
        <ele>40.99</ele>
        <time>2012-12-03T10:36:05Z</time>
      </trkpt>
      <trkpt lat="43.20188" lon="3.16856">
        <ele>40.51</ele>
        <time>2012-12-03T10:36:17Z</time>
      </trkpt>
      <trkpt lat="43.20206" lon="3.16844">
        <ele>40.51</ele>
        <time>2012-12-03T10:36:31Z</time>
      </trkpt>
      <trkpt lat="43.2022" lon="3.16831">
        <ele>40.99</ele>
        <time>2012-12-03T10:36:44Z</time>
      </trkpt>
      <trkpt lat="43.20225" lon="3.16825">
        <ele>40.99</ele>
        <time>2012-12-03T10:36:49Z</time>
      </trkpt>
      <trkpt lat="43.20232" lon="3.16814">
        <ele>40.51</ele>
        <time>2012-12-03T10:36:59Z</time>
      </trkpt>
      <trkpt lat="43.20234" lon="3.16814">
        <ele>40.03</ele>
        <time>2012-12-03T10:37:01Z</time>
      </trkpt>
      <trkpt lat="43.20231" lon="3.16811">
        <ele>39.55</ele>
        <time>2012-12-03T10:37:08Z</time>
      </trkpt>
      <trkpt lat="43.20235" lon="3.16808">
        <ele>39.07</ele>
        <time>2012-12-03T10:37:12Z</time>
      </trkpt>
      <trkpt lat="43.20239" lon="3.16799">
        <ele>39.55</ele>
        <time>2012-12-03T10:37:19Z</time>
      </trkpt>
      <trkpt lat="43.20244" lon="3.1679">
        <ele>40.03</ele>
        <time>2012-12-03T10:37:25Z</time>
      </trkpt>
      <trkpt lat="43.20263" lon="3.16775">
        <ele>40.99</ele>
        <time>2012-12-03T10:37:41Z</time>
      </trkpt>
      <trkpt lat="43.20277" lon="3.16761">
        <ele>42.44</ele>
        <time>2012-12-03T10:37:54Z</time>
      </trkpt>
      <trkpt lat="43.2029" lon="3.16742">
        <ele>44.36</ele>
        <time>2012-12-03T10:38:08Z</time>
      </trkpt>
      <trkpt lat="43.20299" lon="3.16727">
        <ele>43.88</ele>
        <time>2012-12-03T10:38:18Z</time>
      </trkpt>
      <trkpt lat="43.20307" lon="3.16715">
        <ele>43.88</ele>
        <time>2012-12-03T10:38:27Z</time>
      </trkpt>
      <trkpt lat="43.20319" lon="3.167">
        <ele>44.36</ele>
        <time>2012-12-03T10:38:40Z</time>
      </trkpt>
      <trkpt lat="43.20331" lon="3.16685">
        <ele>44.84</ele>
        <time>2012-12-03T10:38:54Z</time>
      </trkpt>
      <trkpt lat="43.20346" lon="3.16668">
        <ele>44.36</ele>
        <time>2012-12-03T10:39:08Z</time>
      </trkpt>
      <trkpt lat="43.20361" lon="3.16654">
        <ele>44.36</ele>
        <time>2012-12-03T10:39:22Z</time>
      </trkpt>
      <trkpt lat="43.20369" lon="3.16652">
        <ele>45.32</ele>
        <time>2012-12-03T10:39:29Z</time>
      </trkpt>
      <trkpt lat="43.20369" lon="3.16646">
        <ele>45.8</ele>
        <time>2012-12-03T10:39:33Z</time>
      </trkpt>
      <trkpt lat="43.2037" lon="3.16618">
        <ele>45.32</ele>
        <time>2012-12-03T10:39:48Z</time>
      </trkpt>
      <trkpt lat="43.20369" lon="3.16597">
        <ele>46.28</ele>
        <time>2012-12-03T10:40:00Z</time>
      </trkpt>
      <trkpt lat="43.20368" lon="3.16571">
        <ele>47.24</ele>
        <time>2012-12-03T10:40:14Z</time>
      </trkpt>
      <trkpt lat="43.20367" lon="3.16555">
        <ele>47.72</ele>
        <time>2012-12-03T10:40:25Z</time>
      </trkpt>
      <trkpt lat="43.20367" lon="3.16552">
        <ele>47.24</ele>
        <time>2012-12-03T10:40:28Z</time>
      </trkpt>
      <trkpt lat="43.20365" lon="3.16525">
        <ele>47.72</ele>
        <time>2012-12-03T10:40:42Z</time>
      </trkpt>
      <trkpt lat="43.20364" lon="3.16501">
        <ele>48.68</ele>
        <time>2012-12-03T10:40:55Z</time>
      </trkpt>
      <trkpt lat="43.20363" lon="3.16477">
        <ele>48.68</ele>
        <time>2012-12-03T10:41:09Z</time>
      </trkpt>
      <trkpt lat="43.20362" lon="3.1647">
        <ele>48.2</ele>
        <time>2012-12-03T10:41:13Z</time>
      </trkpt>
      <trkpt lat="43.20361" lon="3.16465">
        <ele>48.68</ele>
        <time>2012-12-03T10:41:17Z</time>
      </trkpt>
      <trkpt lat="43.20361" lon="3.16461">
        <ele>48.68</ele>
        <time>2012-12-03T10:41:19Z</time>
      </trkpt>
      <trkpt lat="43.2036" lon="3.16458">
        <ele>49.16</ele>
        <time>2012-12-03T10:41:21Z</time>
      </trkpt>
      <trkpt lat="43.20356" lon="3.16439">
        <ele>49.65</ele>
        <time>2012-12-03T10:41:33Z</time>
      </trkpt>
      <trkpt lat="43.20354" lon="3.16436">
        <ele>49.65</ele>
        <time>2012-12-03T10:41:36Z</time>
      </trkpt>
      <trkpt lat="43.2035" lon="3.16423">
        <ele>50.13</ele>
        <time>2012-12-03T10:41:44Z</time>
      </trkpt>
      <trkpt lat="43.20354" lon="3.16403">
        <ele>50.13</ele>
        <time>2012-12-03T10:41:54Z</time>
      </trkpt>
      <trkpt lat="43.20361" lon="3.16378">
        <ele>51.09</ele>
        <time>2012-12-03T10:42:08Z</time>
      </trkpt>
      <trkpt lat="43.20367" lon="3.16355">
        <ele>52.53</ele>
        <time>2012-12-03T10:42:22Z</time>
      </trkpt>
      <trkpt lat="43.20371" lon="3.16343">
        <ele>52.53</ele>
        <time>2012-12-03T10:42:29Z</time>
      </trkpt>
      <trkpt lat="43.2038" lon="3.16328">
        <ele>51.57</ele>
        <time>2012-12-03T10:42:42Z</time>
      </trkpt>
      <trkpt lat="43.20381" lon="3.16326">
        <ele>51.57</ele>
        <time>2012-12-03T10:42:43Z</time>
      </trkpt>
      <trkpt lat="43.2038" lon="3.16312">
        <ele>51.57</ele>
        <time>2012-12-03T10:42:51Z</time>
      </trkpt>
      <trkpt lat="43.20381" lon="3.16298">
        <ele>52.05</ele>
        <time>2012-12-03T10:43:01Z</time>
      </trkpt>
      <trkpt lat="43.2038" lon="3.16296">
        <ele>52.05</ele>
        <time>2012-12-03T10:43:05Z</time>
      </trkpt>
      <trkpt lat="43.20382" lon="3.1629">
        <ele>52.53</ele>
        <time>2012-12-03T10:43:09Z</time>
      </trkpt>
      <trkpt lat="43.20381" lon="3.16273">
        <ele>52.05</ele>
        <time>2012-12-03T10:43:21Z</time>
      </trkpt>
      <trkpt lat="43.2038" lon="3.16269">
        <ele>53.01</ele>
        <time>2012-12-03T10:43:23Z</time>
      </trkpt>
      <trkpt lat="43.20379" lon="3.16261">
        <ele>52.53</ele>
        <time>2012-12-03T10:43:29Z</time>
      </trkpt>
      <trkpt lat="43.2038" lon="3.16258">
        <ele>53.01</ele>
        <time>2012-12-03T10:43:31Z</time>
      </trkpt>
      <trkpt lat="43.2038" lon="3.1624">
        <ele>53.01</ele>
        <time>2012-12-03T10:43:40Z</time>
      </trkpt>
      <trkpt lat="43.20381" lon="3.16228">
        <ele>52.53</ele>
        <time>2012-12-03T10:43:49Z</time>
      </trkpt>
      <trkpt lat="43.2038" lon="3.16215">
        <ele>53.49</ele>
        <time>2012-12-03T10:43:56Z</time>
      </trkpt>
      <trkpt lat="43.2038" lon="3.16195">
        <ele>52.53</ele>
        <time>2012-12-03T10:44:08Z</time>
      </trkpt>
      <trkpt lat="43.2038" lon="3.16189">
        <ele>52.05</ele>
        <time>2012-12-03T10:44:12Z</time>
      </trkpt>
      <trkpt lat="43.2038" lon="3.16168">
        <ele>52.53</ele>
        <time>2012-12-03T10:44:24Z</time>
      </trkpt>
      <trkpt lat="43.2038" lon="3.16157">
        <ele>52.05</ele>
        <time>2012-12-03T10:44:29Z</time>
      </trkpt>
      <trkpt lat="43.20381" lon="3.16149">
        <ele>53.01</ele>
        <time>2012-12-03T10:44:34Z</time>
      </trkpt>
      <trkpt lat="43.20381" lon="3.16143">
        <ele>52.53</ele>
        <time>2012-12-03T10:44:37Z</time>
      </trkpt>
      <trkpt lat="43.20385" lon="3.16119">
        <ele>52.05</ele>
        <time>2012-12-03T10:44:49Z</time>
      </trkpt>
      <trkpt lat="43.20386" lon="3.16107">
        <ele>51.57</ele>
        <time>2012-12-03T10:44:55Z</time>
      </trkpt>
      <trkpt lat="43.20393" lon="3.16085">
        <ele>53.01</ele>
        <time>2012-12-03T10:45:07Z</time>
      </trkpt>
      <trkpt lat="43.20397" lon="3.16069">
        <ele>53.49</ele>
        <time>2012-12-03T10:45:17Z</time>
      </trkpt>
      <trkpt lat="43.20398" lon="3.16066">
        <ele>53.49</ele>
        <time>2012-12-03T10:45:20Z</time>
      </trkpt>
      <trkpt lat="43.204" lon="3.16059">
        <ele>53.49</ele>
        <time>2012-12-03T10:45:24Z</time>
      </trkpt>
      <trkpt lat="43.20402" lon="3.16045">
        <ele>53.49</ele>
        <time>2012-12-03T10:45:33Z</time>
      </trkpt>
      <trkpt lat="43.20405" lon="3.16023">
        <ele>53.97</ele>
        <time>2012-12-03T10:45:46Z</time>
      </trkpt>
      <trkpt lat="43.20407" lon="3.1602">
        <ele>53.97</ele>
        <time>2012-12-03T10:45:57Z</time>
      </trkpt>
      <trkpt lat="43.20408" lon="3.16018">
        <ele>53.97</ele>
        <time>2012-12-03T10:46:09Z</time>
      </trkpt>
      <trkpt lat="43.20408" lon="3.16018">
        <ele>53.49</ele>
        <time>2012-12-03T10:46:20Z</time>
      </trkpt>
      <trkpt lat="43.20408" lon="3.16022">
        <ele>53.49</ele>
        <time>2012-12-03T10:46:30Z</time>
      </trkpt>
      <trkpt lat="43.20408" lon="3.16023">
        <ele>53.01</ele>
        <time>2012-12-03T10:46:53Z</time>
      </trkpt>
      <trkpt lat="43.20408" lon="3.16023">
        <ele>53.49</ele>
        <time>2012-12-03T10:47:04Z</time>
      </trkpt>
      <trkpt lat="43.20407" lon="3.1602">
        <ele>53.97</ele>
        <time>2012-12-03T10:47:17Z</time>
      </trkpt>
      <trkpt lat="43.20406" lon="3.16017">
        <ele>53.97</ele>
        <time>2012-12-03T10:47:20Z</time>
      </trkpt>
      <trkpt lat="43.20401" lon="3.15994">
        <ele>53.49</ele>
        <time>2012-12-03T10:47:34Z</time>
      </trkpt>
      <trkpt lat="43.20398" lon="3.15971">
        <ele>53.49</ele>
        <time>2012-12-03T10:47:47Z</time>
      </trkpt>
      <trkpt lat="43.20393" lon="3.15947">
        <ele>53.49</ele>
        <time>2012-12-03T10:48:01Z</time>
      </trkpt>
      <trkpt lat="43.2039" lon="3.15934">
        <ele>53.49</ele>
        <time>2012-12-03T10:48:08Z</time>
      </trkpt>
      <trkpt lat="43.20382" lon="3.15917">
        <ele>54.45</ele>
        <time>2012-12-03T10:48:19Z</time>
      </trkpt>
      <trkpt lat="43.20379" lon="3.15906">
        <ele>53.49</ele>
        <time>2012-12-03T10:48:26Z</time>
      </trkpt>
      <trkpt lat="43.20373" lon="3.15888">
        <ele>53.97</ele>
        <time>2012-12-03T10:48:38Z</time>
      </trkpt>
      <trkpt lat="43.2037" lon="3.15878">
        <ele>53.97</ele>
        <time>2012-12-03T10:48:47Z</time>
      </trkpt>
      <trkpt lat="43.20361" lon="3.15859">
        <ele>53.97</ele>
        <time>2012-12-03T10:49:01Z</time>
      </trkpt>
      <trkpt lat="43.20361" lon="3.15853">
        <ele>53.49</ele>
        <time>2012-12-03T10:49:05Z</time>
      </trkpt>
      <trkpt lat="43.2036" lon="3.15831">
        <ele>53.49</ele>
        <time>2012-12-03T10:49:17Z</time>
      </trkpt>
      <trkpt lat="43.20358" lon="3.15822">
        <ele>53.97</ele>
        <time>2012-12-03T10:49:24Z</time>
      </trkpt>
      <trkpt lat="43.20359" lon="3.15812">
        <ele>53.97</ele>
        <time>2012-12-03T10:49:32Z</time>
      </trkpt>
      <trkpt lat="43.2036" lon="3.15807">
        <ele>54.45</ele>
        <time>2012-12-03T10:49:35Z</time>
      </trkpt>
      <trkpt lat="43.20359" lon="3.15803">
        <ele>54.45</ele>
        <time>2012-12-03T10:49:37Z</time>
      </trkpt>
      <trkpt lat="43.20357" lon="3.15792">
        <ele>54.45</ele>
        <time>2012-12-03T10:49:46Z</time>
      </trkpt>
      <trkpt lat="43.20356" lon="3.15789">
        <ele>54.45</ele>
        <time>2012-12-03T10:49:48Z</time>
      </trkpt>
      <trkpt lat="43.20355" lon="3.15781">
        <ele>54.93</ele>
        <time>2012-12-03T10:49:53Z</time>
      </trkpt>
      <trkpt lat="43.20355" lon="3.15775">
        <ele>54.45</ele>
        <time>2012-12-03T10:49:56Z</time>
      </trkpt>
      <trkpt lat="43.20354" lon="3.15769">
        <ele>53.97</ele>
        <time>2012-12-03T10:49:59Z</time>
      </trkpt>
      <trkpt lat="43.20353" lon="3.15758">
        <ele>53.97</ele>
        <time>2012-12-03T10:50:05Z</time>
      </trkpt>
      <trkpt lat="43.20351" lon="3.15754">
        <ele>53.97</ele>
        <time>2012-12-03T10:50:08Z</time>
      </trkpt>
      <trkpt lat="43.20353" lon="3.1573">
        <ele>54.93</ele>
        <time>2012-12-03T10:50:20Z</time>
      </trkpt>
      <trkpt lat="43.20351" lon="3.15719">
        <ele>54.45</ele>
        <time>2012-12-03T10:50:26Z</time>
      </trkpt>
      <trkpt lat="43.20348" lon="3.15712">
        <ele>54.45</ele>
        <time>2012-12-03T10:50:32Z</time>
      </trkpt>
      <trkpt lat="43.20349" lon="3.15708">
        <ele>53.97</ele>
        <time>2012-12-03T10:50:34Z</time>
      </trkpt>
      <trkpt lat="43.2035" lon="3.15692">
        <ele>54.93</ele>
        <time>2012-12-03T10:50:43Z</time>
      </trkpt>
      <trkpt lat="43.2035" lon="3.1568">
        <ele>54.45</ele>
        <time>2012-12-03T10:50:49Z</time>
      </trkpt>
      <trkpt lat="43.20351" lon="3.15675">
        <ele>54.93</ele>
        <time>2012-12-03T10:50:53Z</time>
      </trkpt>
      <trkpt lat="43.20355" lon="3.15653">
        <ele>54.93</ele>
        <time>2012-12-03T10:51:05Z</time>
      </trkpt>
      <trkpt lat="43.20353" lon="3.15631">
        <ele>55.41</ele>
        <time>2012-12-03T10:51:17Z</time>
      </trkpt>
      <trkpt lat="43.20352" lon="3.15627">
        <ele>54.93</ele>
        <time>2012-12-03T10:51:19Z</time>
      </trkpt>
      <trkpt lat="43.20349" lon="3.15614">
        <ele>55.41</ele>
        <time>2012-12-03T10:51:27Z</time>
      </trkpt>
      <trkpt lat="43.20348" lon="3.1561">
        <ele>55.89</ele>
        <time>2012-12-03T10:51:29Z</time>
      </trkpt>
      <trkpt lat="43.20343" lon="3.15587">
        <ele>54.93</ele>
        <time>2012-12-03T10:51:40Z</time>
      </trkpt>
      <trkpt lat="43.20336" lon="3.15562">
        <ele>55.89</ele>
        <time>2012-12-03T10:51:54Z</time>
      </trkpt>
      <trkpt lat="43.20335" lon="3.1556">
        <ele>55.41</ele>
        <time>2012-12-03T10:51:56Z</time>
      </trkpt>
      <trkpt lat="43.20333" lon="3.15542">
        <ele>55.41</ele>
        <time>2012-12-03T10:52:07Z</time>
      </trkpt>
      <trkpt lat="43.2033" lon="3.1552">
        <ele>55.89</ele>
        <time>2012-12-03T10:52:20Z</time>
      </trkpt>
      <trkpt lat="43.20329" lon="3.15513">
        <ele>56.37</ele>
        <time>2012-12-03T10:52:24Z</time>
      </trkpt>
      <trkpt lat="43.20327" lon="3.15511">
        <ele>56.37</ele>
        <time>2012-12-03T10:52:26Z</time>
      </trkpt>
      <trkpt lat="43.20326" lon="3.15504">
        <ele>56.86</ele>
        <time>2012-12-03T10:52:30Z</time>
      </trkpt>
      <trkpt lat="43.20326" lon="3.15501">
        <ele>57.34</ele>
        <time>2012-12-03T10:52:32Z</time>
      </trkpt>
      <trkpt lat="43.20325" lon="3.15499">
        <ele>56.37</ele>
        <time>2012-12-03T10:52:34Z</time>
      </trkpt>
      <trkpt lat="43.20323" lon="3.15492">
        <ele>56.86</ele>
        <time>2012-12-03T10:52:38Z</time>
      </trkpt>
      <trkpt lat="43.20321" lon="3.15476">
        <ele>57.82</ele>
        <time>2012-12-03T10:52:46Z</time>
      </trkpt>
      <trkpt lat="43.20316" lon="3.15456">
        <ele>58.3</ele>
        <time>2012-12-03T10:52:59Z</time>
      </trkpt>
      <trkpt lat="43.20312" lon="3.15436">
        <ele>58.3</ele>
        <time>2012-12-03T10:53:12Z</time>
      </trkpt>
      <trkpt lat="43.20309" lon="3.15416">
        <ele>59.74</ele>
        <time>2012-12-03T10:53:24Z</time>
      </trkpt>
      <trkpt lat="43.20309" lon="3.15411">
        <ele>60.7</ele>
        <time>2012-12-03T10:53:27Z</time>
      </trkpt>
      <trkpt lat="43.20307" lon="3.15403">
        <ele>60.22</ele>
        <time>2012-12-03T10:53:32Z</time>
      </trkpt>
      <trkpt lat="43.20306" lon="3.15392">
        <ele>60.7</ele>
        <time>2012-12-03T10:53:38Z</time>
      </trkpt>
      <trkpt lat="43.20307" lon="3.15379">
        <ele>60.7</ele>
        <time>2012-12-03T10:53:44Z</time>
      </trkpt>
      <trkpt lat="43.20306" lon="3.15374">
        <ele>60.7</ele>
        <time>2012-12-03T10:53:47Z</time>
      </trkpt>
      <trkpt lat="43.20306" lon="3.15369">
        <ele>61.18</ele>
        <time>2012-12-03T10:53:51Z</time>
      </trkpt>
      <trkpt lat="43.20307" lon="3.1535">
        <ele>60.7</ele>
        <time>2012-12-03T10:54:03Z</time>
      </trkpt>
      <trkpt lat="43.2031" lon="3.15319">
        <ele>60.22</ele>
        <time>2012-12-03T10:54:18Z</time>
      </trkpt>
      <trkpt lat="43.20309" lon="3.15314">
        <ele>59.26</ele>
        <time>2012-12-03T10:54:21Z</time>
      </trkpt>
      <trkpt lat="43.20309" lon="3.15307">
        <ele>60.22</ele>
        <time>2012-12-03T10:54:25Z</time>
      </trkpt>
      <trkpt lat="43.20304" lon="3.15289">
        <ele>59.26</ele>
        <time>2012-12-03T10:54:35Z</time>
      </trkpt>
      <trkpt lat="43.203" lon="3.15279">
        <ele>58.78</ele>
        <time>2012-12-03T10:54:42Z</time>
      </trkpt>
      <trkpt lat="43.20295" lon="3.15267">
        <ele>59.74</ele>
        <time>2012-12-03T10:54:50Z</time>
      </trkpt>
      <trkpt lat="43.20292" lon="3.15262">
        <ele>59.26</ele>
        <time>2012-12-03T10:54:54Z</time>
      </trkpt>
      <trkpt lat="43.20288" lon="3.15247">
        <ele>59.74</ele>
        <time>2012-12-03T10:55:04Z</time>
      </trkpt>
      <trkpt lat="43.20286" lon="3.15245">
        <ele>60.22</ele>
        <time>2012-12-03T10:55:06Z</time>
      </trkpt>
      <trkpt lat="43.20282" lon="3.15234">
        <ele>60.22</ele>
        <time>2012-12-03T10:55:14Z</time>
      </trkpt>
      <trkpt lat="43.20281" lon="3.15227">
        <ele>60.7</ele>
        <time>2012-12-03T10:55:19Z</time>
      </trkpt>
      <trkpt lat="43.20285" lon="3.15203">
        <ele>59.74</ele>
        <time>2012-12-03T10:55:33Z</time>
      </trkpt>
      <trkpt lat="43.20288" lon="3.15193">
        <ele>60.22</ele>
        <time>2012-12-03T10:55:43Z</time>
      </trkpt>
      <trkpt lat="43.20289" lon="3.15188">
        <ele>60.22</ele>
        <time>2012-12-03T10:55:57Z</time>
      </trkpt>
      <trkpt lat="43.20293" lon="3.1518">
        <ele>61.18</ele>
        <time>2012-12-03T10:56:09Z</time>
      </trkpt>
      <trkpt lat="43.20293" lon="3.15176">
        <ele>61.18</ele>
        <time>2012-12-03T10:56:13Z</time>
      </trkpt>
      <trkpt lat="43.20295" lon="3.15173">
        <ele>61.66</ele>
        <time>2012-12-03T10:56:15Z</time>
      </trkpt>
      <trkpt lat="43.20296" lon="3.15169">
        <ele>62.14</ele>
        <time>2012-12-03T10:56:18Z</time>
      </trkpt>
      <trkpt lat="43.20297" lon="3.15166">
        <ele>60.7</ele>
        <time>2012-12-03T10:56:20Z</time>
      </trkpt>
      <trkpt lat="43.20298" lon="3.15164">
        <ele>60.7</ele>
        <time>2012-12-03T10:56:31Z</time>
      </trkpt>
      <trkpt lat="43.20298" lon="3.15163">
        <ele>61.18</ele>
        <time>2012-12-03T10:56:34Z</time>
      </trkpt>
      <trkpt lat="43.203" lon="3.15154">
        <ele>60.22</ele>
        <time>2012-12-03T10:56:49Z</time>
      </trkpt>
      <trkpt lat="43.20301" lon="3.15151">
        <ele>60.22</ele>
        <time>2012-12-03T10:57:03Z</time>
      </trkpt>
      <trkpt lat="43.20301" lon="3.15149">
        <ele>61.18</ele>
        <time>2012-12-03T10:57:16Z</time>
      </trkpt>
      <trkpt lat="43.20303" lon="3.15131">
        <ele>60.7</ele>
        <time>2012-12-03T10:57:27Z</time>
      </trkpt>
      <trkpt lat="43.20306" lon="3.15123">
        <ele>60.7</ele>
        <time>2012-12-03T10:57:38Z</time>
      </trkpt>
      <trkpt lat="43.20308" lon="3.15099">
        <ele>61.18</ele>
        <time>2012-12-03T10:57:52Z</time>
      </trkpt>
      <trkpt lat="43.20309" lon="3.15084">
        <ele>61.18</ele>
        <time>2012-12-03T10:58:02Z</time>
      </trkpt>
      <trkpt lat="43.20308" lon="3.15071">
        <ele>61.18</ele>
        <time>2012-12-03T10:58:10Z</time>
      </trkpt>
      <trkpt lat="43.20307" lon="3.15067">
        <ele>62.62</ele>
        <time>2012-12-03T10:58:13Z</time>
      </trkpt>
      <trkpt lat="43.20311" lon="3.15036">
        <ele>62.14</ele>
        <time>2012-12-03T10:58:29Z</time>
      </trkpt>
      <trkpt lat="43.20319" lon="3.15011">
        <ele>62.62</ele>
        <time>2012-12-03T10:58:43Z</time>
      </trkpt>
      <trkpt lat="43.20321" lon="3.15008">
        <ele>63.1</ele>
        <time>2012-12-03T10:58:45Z</time>
      </trkpt>
      <trkpt lat="43.20332" lon="3.14989">
        <ele>64.07</ele>
        <time>2012-12-03T10:58:59Z</time>
      </trkpt>
      <trkpt lat="43.20338" lon="3.1497">
        <ele>65.03</ele>
        <time>2012-12-03T10:59:10Z</time>
      </trkpt>
      <trkpt lat="43.20348" lon="3.14946">
        <ele>65.51</ele>
        <time>2012-12-03T10:59:24Z</time>
      </trkpt>
      <trkpt lat="43.20357" lon="3.14927">
        <ele>66.95</ele>
        <time>2012-12-03T10:59:37Z</time>
      </trkpt>
      <trkpt lat="43.20366" lon="3.14907">
        <ele>65.99</ele>
        <time>2012-12-03T10:59:49Z</time>
      </trkpt>
      <trkpt lat="43.2037" lon="3.149">
        <ele>65.99</ele>
        <time>2012-12-03T10:59:55Z</time>
      </trkpt>
      <trkpt lat="43.20378" lon="3.14875">
        <ele>65.03</ele>
        <time>2012-12-03T11:00:10Z</time>
      </trkpt>
      <trkpt lat="43.20378" lon="3.14873">
        <ele>65.03</ele>
        <time>2012-12-03T11:00:11Z</time>
      </trkpt>
      <trkpt lat="43.20382" lon="3.14854">
        <ele>65.03</ele>
        <time>2012-12-03T11:00:24Z</time>
      </trkpt>
      <trkpt lat="43.20384" lon="3.14842">
        <ele>64.07</ele>
        <time>2012-12-03T11:00:36Z</time>
      </trkpt>
      <trkpt lat="43.20384" lon="3.14836">
        <ele>64.55</ele>
        <time>2012-12-03T11:00:40Z</time>
      </trkpt>
      <trkpt lat="43.2039" lon="3.14814">
        <ele>65.03</ele>
        <time>2012-12-03T11:00:53Z</time>
      </trkpt>
      <trkpt lat="43.20396" lon="3.14792">
        <ele>64.55</ele>
        <time>2012-12-03T11:01:05Z</time>
      </trkpt>
      <trkpt lat="43.20397" lon="3.1479">
        <ele>64.55</ele>
        <time>2012-12-03T11:01:06Z</time>
      </trkpt>
      <trkpt lat="43.20401" lon="3.14783">
        <ele>64.55</ele>
        <time>2012-12-03T11:01:11Z</time>
      </trkpt>
      <trkpt lat="43.20419" lon="3.14762">
        <ele>64.07</ele>
        <time>2012-12-03T11:01:26Z</time>
      </trkpt>
      <trkpt lat="43.2043" lon="3.14752">
        <ele>63.58</ele>
        <time>2012-12-03T11:01:35Z</time>
      </trkpt>
      <trkpt lat="43.20433" lon="3.14749">
        <ele>63.1</ele>
        <time>2012-12-03T11:01:38Z</time>
      </trkpt>
      <trkpt lat="43.20442" lon="3.14743">
        <ele>63.1</ele>
        <time>2012-12-03T11:01:47Z</time>
      </trkpt>
      <trkpt lat="43.20461" lon="3.14729">
        <ele>63.1</ele>
        <time>2012-12-03T11:02:03Z</time>
      </trkpt>
      <trkpt lat="43.20467" lon="3.14726">
        <ele>63.1</ele>
        <time>2012-12-03T11:02:15Z</time>
      </trkpt>
      <trkpt lat="43.20468" lon="3.14725">
        <ele>63.58</ele>
        <time>2012-12-03T11:02:25Z</time>
      </trkpt>
      <trkpt lat="43.20472" lon="3.14723">
        <ele>63.58</ele>
        <time>2012-12-03T11:02:29Z</time>
      </trkpt>
      <trkpt lat="43.20482" lon="3.14715">
        <ele>64.07</ele>
        <time>2012-12-03T11:02:39Z</time>
      </trkpt>
      <trkpt lat="43.20491" lon="3.14709">
        <ele>64.07</ele>
        <time>2012-12-03T11:02:46Z</time>
      </trkpt>
      <trkpt lat="43.20501" lon="3.147">
        <ele>63.58</ele>
        <time>2012-12-03T11:02:59Z</time>
      </trkpt>
      <trkpt lat="43.20504" lon="3.14693">
        <ele>64.07</ele>
        <time>2012-12-03T11:03:03Z</time>
      </trkpt>
      <trkpt lat="43.20506" lon="3.14689">
        <ele>64.07</ele>
        <time>2012-12-03T11:03:07Z</time>
      </trkpt>
      <trkpt lat="43.20508" lon="3.14686">
        <ele>64.55</ele>
        <time>2012-12-03T11:03:09Z</time>
      </trkpt>
      <trkpt lat="43.20516" lon="3.14667">
        <ele>65.03</ele>
        <time>2012-12-03T11:03:21Z</time>
      </trkpt>
      <trkpt lat="43.20523" lon="3.14645">
        <ele>65.99</ele>
        <time>2012-12-03T11:03:34Z</time>
      </trkpt>
      <trkpt lat="43.20539" lon="3.14638">
        <ele>66.47</ele>
        <time>2012-12-03T11:03:47Z</time>
      </trkpt>
      <trkpt lat="43.20544" lon="3.14636">
        <ele>66.95</ele>
        <time>2012-12-03T11:03:52Z</time>
      </trkpt>
      <trkpt lat="43.20548" lon="3.14634">
        <ele>68.39</ele>
        <time>2012-12-03T11:03:56Z</time>
      </trkpt>
      <trkpt lat="43.20547" lon="3.14632">
        <ele>67.91</ele>
        <time>2012-12-03T11:03:58Z</time>
      </trkpt>
      <trkpt lat="43.20547" lon="3.14626">
        <ele>68.39</ele>
        <time>2012-12-03T11:04:02Z</time>
      </trkpt>
      <trkpt lat="43.20561" lon="3.14615">
        <ele>70.31</ele>
        <time>2012-12-03T11:04:15Z</time>
      </trkpt>
      <trkpt lat="43.20565" lon="3.14613">
        <ele>70.79</ele>
        <time>2012-12-03T11:04:19Z</time>
      </trkpt>
      <trkpt lat="43.20571" lon="3.14611">
        <ele>71.27</ele>
        <time>2012-12-03T11:04:24Z</time>
      </trkpt>
      <trkpt lat="43.20585" lon="3.14606">
        <ele>73.2</ele>
        <time>2012-12-03T11:04:36Z</time>
      </trkpt>
      <trkpt lat="43.20595" lon="3.14601">
        <ele>73.68</ele>
        <time>2012-12-03T11:04:48Z</time>
      </trkpt>
      <trkpt lat="43.20611" lon="3.14592">
        <ele>75.6</ele>
        <time>2012-12-03T11:05:01Z</time>
      </trkpt>
      <trkpt lat="43.20622" lon="3.14586">
        <ele>77.04</ele>
        <time>2012-12-03T11:05:12Z</time>
      </trkpt>
      <trkpt lat="43.20632" lon="3.14582">
        <ele>78</ele>
        <time>2012-12-03T11:05:22Z</time>
      </trkpt>
      <trkpt lat="43.20648" lon="3.14576">
        <ele>80.41</ele>
        <time>2012-12-03T11:05:36Z</time>
      </trkpt>
      <trkpt lat="43.20659" lon="3.14568">
        <ele>81.85</ele>
        <time>2012-12-03T11:05:48Z</time>
      </trkpt>
      <trkpt lat="43.2066" lon="3.14567">
        <ele>82.33</ele>
        <time>2012-12-03T11:05:49Z</time>
      </trkpt>
      <trkpt lat="43.20673" lon="3.14558">
        <ele>83.77</ele>
        <time>2012-12-03T11:06:03Z</time>
      </trkpt>
      <trkpt lat="43.20687" lon="3.14551">
        <ele>85.69</ele>
        <time>2012-12-03T11:06:16Z</time>
      </trkpt>
      <trkpt lat="43.20701" lon="3.14549">
        <ele>87.14</ele>
        <time>2012-12-03T11:06:28Z</time>
      </trkpt>
      <trkpt lat="43.20714" lon="3.14545">
        <ele>88.58</ele>
        <time>2012-12-03T11:06:40Z</time>
      </trkpt>
      <trkpt lat="43.2072" lon="3.14543">
        <ele>89.54</ele>
        <time>2012-12-03T11:06:45Z</time>
      </trkpt>
      <trkpt lat="43.20737" lon="3.14536">
        <ele>91.46</ele>
        <time>2012-12-03T11:07:00Z</time>
      </trkpt>
      <trkpt lat="43.20741" lon="3.14535">
        <ele>91.94</ele>
        <time>2012-12-03T11:07:04Z</time>
      </trkpt>
      <trkpt lat="43.20744" lon="3.14533">
        <ele>92.42</ele>
        <time>2012-12-03T11:07:07Z</time>
      </trkpt>
      <trkpt lat="43.20755" lon="3.14528">
        <ele>93.87</ele>
        <time>2012-12-03T11:07:17Z</time>
      </trkpt>
      <trkpt lat="43.20758" lon="3.14526">
        <ele>93.87</ele>
        <time>2012-12-03T11:07:20Z</time>
      </trkpt>
      <trkpt lat="43.20762" lon="3.14523">
        <ele>95.31</ele>
        <time>2012-12-03T11:07:24Z</time>
      </trkpt>
      <trkpt lat="43.20774" lon="3.14515">
        <ele>95.79</ele>
        <time>2012-12-03T11:07:35Z</time>
      </trkpt>
      <trkpt lat="43.2078" lon="3.14512">
        <ele>96.27</ele>
        <time>2012-12-03T11:07:41Z</time>
      </trkpt>
      <trkpt lat="43.20797" lon="3.14504">
        <ele>96.27</ele>
        <time>2012-12-03T11:07:55Z</time>
      </trkpt>
      <trkpt lat="43.20801" lon="3.14502">
        <ele>95.79</ele>
        <time>2012-12-03T11:07:59Z</time>
      </trkpt>
      <trkpt lat="43.20806" lon="3.145">
        <ele>96.75</ele>
        <time>2012-12-03T11:08:03Z</time>
      </trkpt>
      <trkpt lat="43.20814" lon="3.14496">
        <ele>97.71</ele>
        <time>2012-12-03T11:08:10Z</time>
      </trkpt>
      <trkpt lat="43.2083" lon="3.14489">
        <ele>98.19</ele>
        <time>2012-12-03T11:08:24Z</time>
      </trkpt>
      <trkpt lat="43.20845" lon="3.14481">
        <ele>98.19</ele>
        <time>2012-12-03T11:08:36Z</time>
      </trkpt>
      <trkpt lat="43.20849" lon="3.14478">
        <ele>98.67</ele>
        <time>2012-12-03T11:08:40Z</time>
      </trkpt>
      <trkpt lat="43.20866" lon="3.14472">
        <ele>97.71</ele>
        <time>2012-12-03T11:08:54Z</time>
      </trkpt>
      <trkpt lat="43.20883" lon="3.14464">
        <ele>97.71</ele>
        <time>2012-12-03T11:09:07Z</time>
      </trkpt>
      <trkpt lat="43.20904" lon="3.14454">
        <ele>98.19</ele>
        <time>2012-12-03T11:09:24Z</time>
      </trkpt>
      <trkpt lat="43.20905" lon="3.14454">
        <ele>98.19</ele>
        <time>2012-12-03T11:09:25Z</time>
      </trkpt>
      <trkpt lat="43.20908" lon="3.14452">
        <ele>97.23</ele>
        <time>2012-12-03T11:09:28Z</time>
      </trkpt>
      <trkpt lat="43.20914" lon="3.1445">
        <ele>97.71</ele>
        <time>2012-12-03T11:09:34Z</time>
      </trkpt>
      <trkpt lat="43.20913" lon="3.14453">
        <ele>96.75</ele>
        <time>2012-12-03T11:09:37Z</time>
      </trkpt>
      <trkpt lat="43.20913" lon="3.1446">
        <ele>97.71</ele>
        <time>2012-12-03T11:09:49Z</time>
      </trkpt>
      <trkpt lat="43.20913" lon="3.14461">
        <ele>97.23</ele>
        <time>2012-12-03T11:09:50Z</time>
      </trkpt>
      <trkpt lat="43.20913" lon="3.14463">
        <ele>97.23</ele>
        <time>2012-12-03T11:09:52Z</time>
      </trkpt>
      <trkpt lat="43.20913" lon="3.14483">
        <ele>96.27</ele>
        <time>2012-12-03T11:10:05Z</time>
      </trkpt>
      <trkpt lat="43.20913" lon="3.14488">
        <ele>95.79</ele>
        <time>2012-12-03T11:10:08Z</time>
      </trkpt>
      <trkpt lat="43.20915" lon="3.14499">
        <ele>95.31</ele>
        <time>2012-12-03T11:10:14Z</time>
      </trkpt>
      <trkpt lat="43.20917" lon="3.14524">
        <ele>94.35</ele>
        <time>2012-12-03T11:10:28Z</time>
      </trkpt>
      <trkpt lat="43.20917" lon="3.14527">
        <ele>94.35</ele>
        <time>2012-12-03T11:10:30Z</time>
      </trkpt>
      <trkpt lat="43.20919" lon="3.14533">
        <ele>93.87</ele>
        <time>2012-12-03T11:10:34Z</time>
      </trkpt>
      <trkpt lat="43.20919" lon="3.1454">
        <ele>94.35</ele>
        <time>2012-12-03T11:10:46Z</time>
      </trkpt>
      <trkpt lat="43.20919" lon="3.1454">
        <ele>89.54</ele>
        <time>2012-12-03T11:10:55Z</time>
      </trkpt>
      <trkpt lat="43.20919" lon="3.14541">
        <ele>106.84</ele>
        <time>2012-12-03T11:10:56Z</time>
      </trkpt>
      <trkpt lat="43.20918" lon="3.14542">
        <ele>94.35</ele>
        <time>2012-12-03T11:10:57Z</time>
      </trkpt>
      <trkpt lat="43.20918" lon="3.14545">
        <ele>93.87</ele>
        <time>2012-12-03T11:10:59Z</time>
      </trkpt>
      <trkpt lat="43.20919" lon="3.14559">
        <ele>93.87</ele>
        <time>2012-12-03T11:11:08Z</time>
      </trkpt>
      <trkpt lat="43.20919" lon="3.14567">
        <ele>92.42</ele>
        <time>2012-12-03T11:11:18Z</time>
      </trkpt>
      <trkpt lat="43.2092" lon="3.1457">
        <ele>92.42</ele>
        <time>2012-12-03T11:11:20Z</time>
      </trkpt>
      <trkpt lat="43.20922" lon="3.1458">
        <ele>91.94</ele>
        <time>2012-12-03T11:11:26Z</time>
      </trkpt>
      <trkpt lat="43.20925" lon="3.14584">
        <ele>98.19</ele>
        <time>2012-12-03T11:11:33Z</time>
      </trkpt>
      <trkpt lat="43.20925" lon="3.14584">
        <ele>91.46</ele>
        <time>2012-12-03T11:11:34Z</time>
      </trkpt>
      <trkpt lat="43.20926" lon="3.14584">
        <ele>88.1</ele>
        <time>2012-12-03T11:11:37Z</time>
      </trkpt>
      <trkpt lat="43.20926" lon="3.14584">
        <ele>93.39</ele>
        <time>2012-12-03T11:11:39Z</time>
      </trkpt>
      <trkpt lat="43.20925" lon="3.14584">
        <ele>91.94</ele>
        <time>2012-12-03T11:11:40Z</time>
      </trkpt>
      <trkpt lat="43.20937" lon="3.14592">
        <ele>88.1</ele>
        <time>2012-12-03T11:11:53Z</time>
      </trkpt>
      <trkpt lat="43.20938" lon="3.14592">
        <ele>90.98</ele>
        <time>2012-12-03T11:11:54Z</time>
      </trkpt>
      <trkpt lat="43.20949" lon="3.14603">
        <ele>91.46</ele>
        <time>2012-12-03T11:12:08Z</time>
      </trkpt>
      <trkpt lat="43.20955" lon="3.14606">
        <ele>91.94</ele>
        <time>2012-12-03T11:12:14Z</time>
      </trkpt>
      <trkpt lat="43.20964" lon="3.14607">
        <ele>93.39</ele>
        <time>2012-12-03T11:12:24Z</time>
      </trkpt>
      <trkpt lat="43.20971" lon="3.14608">
        <ele>93.87</ele>
        <time>2012-12-03T11:12:29Z</time>
      </trkpt>
      <trkpt lat="43.20986" lon="3.1461">
        <ele>95.31</ele>
        <time>2012-12-03T11:12:42Z</time>
      </trkpt>
      <trkpt lat="43.21006" lon="3.14612">
        <ele>96.75</ele>
        <time>2012-12-03T11:12:57Z</time>
      </trkpt>
      <trkpt lat="43.21011" lon="3.14612">
        <ele>97.23</ele>
        <time>2012-12-03T11:13:02Z</time>
      </trkpt>
      <trkpt lat="43.21017" lon="3.14612">
        <ele>96.27</ele>
        <time>2012-12-03T11:13:07Z</time>
      </trkpt>
      <trkpt lat="43.21033" lon="3.14613">
        <ele>97.23</ele>
        <time>2012-12-03T11:13:20Z</time>
      </trkpt>
      <trkpt lat="43.21037" lon="3.14612">
        <ele>98.67</ele>
        <time>2012-12-03T11:13:24Z</time>
      </trkpt>
      <trkpt lat="43.21051" lon="3.14609">
        <ele>98.67</ele>
        <time>2012-12-03T11:13:36Z</time>
      </trkpt>
      <trkpt lat="43.21057" lon="3.14603">
        <ele>98.67</ele>
        <time>2012-12-03T11:13:42Z</time>
      </trkpt>
      <trkpt lat="43.21064" lon="3.14594">
        <ele>98.67</ele>
        <time>2012-12-03T11:13:49Z</time>
      </trkpt>
      <trkpt lat="43.21072" lon="3.14597">
        <ele>98.19</ele>
        <time>2012-12-03T11:13:55Z</time>
      </trkpt>
      <trkpt lat="43.21074" lon="3.14598">
        <ele>98.67</ele>
        <time>2012-12-03T11:13:57Z</time>
      </trkpt>
      <trkpt lat="43.21083" lon="3.14608">
        <ele>100.11</ele>
        <time>2012-12-03T11:14:07Z</time>
      </trkpt>
      <trkpt lat="43.21087" lon="3.14613">
        <ele>98.19</ele>
        <time>2012-12-03T11:14:11Z</time>
      </trkpt>
      <trkpt lat="43.21088" lon="3.14623">
        <ele>98.67</ele>
        <time>2012-12-03T11:14:16Z</time>
      </trkpt>
      <trkpt lat="43.21091" lon="3.1463">
        <ele>98.67</ele>
        <time>2012-12-03T11:14:21Z</time>
      </trkpt>
      <trkpt lat="43.21092" lon="3.14632">
        <ele>98.67</ele>
        <time>2012-12-03T11:14:23Z</time>
      </trkpt>
      <trkpt lat="43.21095" lon="3.14639">
        <ele>98.67</ele>
        <time>2012-12-03T11:14:27Z</time>
      </trkpt>
      <trkpt lat="43.21107" lon="3.14656">
        <ele>98.19</ele>
        <time>2012-12-03T11:14:40Z</time>
      </trkpt>
      <trkpt lat="43.21108" lon="3.14658">
        <ele>97.71</ele>
        <time>2012-12-03T11:14:42Z</time>
      </trkpt>
      <trkpt lat="43.2111" lon="3.14667">
        <ele>97.23</ele>
        <time>2012-12-03T11:14:47Z</time>
      </trkpt>
      <trkpt lat="43.21117" lon="3.14685">
        <ele>96.75</ele>
        <time>2012-12-03T11:14:58Z</time>
      </trkpt>
      <trkpt lat="43.21122" lon="3.147">
        <ele>95.79</ele>
        <time>2012-12-03T11:15:09Z</time>
      </trkpt>
      <trkpt lat="43.21122" lon="3.14702">
        <ele>95.79</ele>
        <time>2012-12-03T11:15:14Z</time>
      </trkpt>
      <trkpt lat="43.21125" lon="3.14709">
        <ele>95.79</ele>
        <time>2012-12-03T11:15:18Z</time>
      </trkpt>
      <trkpt lat="43.21129" lon="3.1472">
        <ele>95.31</ele>
        <time>2012-12-03T11:15:25Z</time>
      </trkpt>
      <trkpt lat="43.21133" lon="3.14728">
        <ele>95.31</ele>
        <time>2012-12-03T11:15:30Z</time>
      </trkpt>
      <trkpt lat="43.21138" lon="3.14739">
        <ele>94.83</ele>
        <time>2012-12-03T11:15:36Z</time>
      </trkpt>
      <trkpt lat="43.21139" lon="3.14746">
        <ele>94.83</ele>
        <time>2012-12-03T11:15:40Z</time>
      </trkpt>
      <trkpt lat="43.21142" lon="3.14763">
        <ele>93.87</ele>
        <time>2012-12-03T11:15:49Z</time>
      </trkpt>
      <trkpt lat="43.21144" lon="3.1478">
        <ele>93.87</ele>
        <time>2012-12-03T11:15:58Z</time>
      </trkpt>
      <trkpt lat="43.21143" lon="3.14797">
        <ele>93.39</ele>
        <time>2012-12-03T11:16:09Z</time>
      </trkpt>
      <trkpt lat="43.21142" lon="3.14809">
        <ele>94.35</ele>
        <time>2012-12-03T11:16:17Z</time>
      </trkpt>
      <trkpt lat="43.21139" lon="3.14828">
        <ele>94.35</ele>
        <time>2012-12-03T11:16:29Z</time>
      </trkpt>
      <trkpt lat="43.21133" lon="3.14846">
        <ele>94.35</ele>
        <time>2012-12-03T11:16:40Z</time>
      </trkpt>
      <trkpt lat="43.21125" lon="3.1487">
        <ele>94.35</ele>
        <time>2012-12-03T11:16:54Z</time>
      </trkpt>
      <trkpt lat="43.21119" lon="3.14883">
        <ele>93.39</ele>
        <time>2012-12-03T11:17:03Z</time>
      </trkpt>
      <trkpt lat="43.21118" lon="3.14894">
        <ele>93.39</ele>
        <time>2012-12-03T11:17:09Z</time>
      </trkpt>
      <trkpt lat="43.21117" lon="3.14907">
        <ele>92.9</ele>
        <time>2012-12-03T11:17:16Z</time>
      </trkpt>
      <trkpt lat="43.21112" lon="3.14926">
        <ele>92.9</ele>
        <time>2012-12-03T11:17:29Z</time>
      </trkpt>
      <trkpt lat="43.21103" lon="3.14938">
        <ele>92.42</ele>
        <time>2012-12-03T11:17:40Z</time>
      </trkpt>
      <trkpt lat="43.21088" lon="3.14946">
        <ele>91.46</ele>
        <time>2012-12-03T11:17:52Z</time>
      </trkpt>
      <trkpt lat="43.21077" lon="3.14961">
        <ele>90.98</ele>
        <time>2012-12-03T11:18:04Z</time>
      </trkpt>
      <trkpt lat="43.21068" lon="3.14976">
        <ele>90.5</ele>
        <time>2012-12-03T11:18:15Z</time>
      </trkpt>
      <trkpt lat="43.21062" lon="3.14992">
        <ele>90.02</ele>
        <time>2012-12-03T11:18:27Z</time>
      </trkpt>
      <trkpt lat="43.21056" lon="3.15009">
        <ele>90.5</ele>
        <time>2012-12-03T11:18:37Z</time>
      </trkpt>
      <trkpt lat="43.21054" lon="3.15019">
        <ele>89.54</ele>
        <time>2012-12-03T11:18:44Z</time>
      </trkpt>
      <trkpt lat="43.21049" lon="3.15038">
        <ele>90.5</ele>
        <time>2012-12-03T11:18:55Z</time>
      </trkpt>
      <trkpt lat="43.21045" lon="3.15059">
        <ele>90.5</ele>
        <time>2012-12-03T11:19:08Z</time>
      </trkpt>
      <trkpt lat="43.21044" lon="3.15072">
        <ele>90.5</ele>
        <time>2012-12-03T11:19:16Z</time>
      </trkpt>
      <trkpt lat="43.21046" lon="3.1509">
        <ele>90.98</ele>
        <time>2012-12-03T11:19:27Z</time>
      </trkpt>
      <trkpt lat="43.21046" lon="3.151">
        <ele>90.98</ele>
        <time>2012-12-03T11:19:33Z</time>
      </trkpt>
      <trkpt lat="43.21046" lon="3.15108">
        <ele>91.46</ele>
        <time>2012-12-03T11:19:37Z</time>
      </trkpt>
      <trkpt lat="43.21054" lon="3.15121">
        <ele>91.94</ele>
        <time>2012-12-03T11:19:47Z</time>
      </trkpt>
      <trkpt lat="43.21058" lon="3.15127">
        <ele>92.9</ele>
        <time>2012-12-03T11:19:52Z</time>
      </trkpt>
      <trkpt lat="43.21064" lon="3.15146">
        <ele>93.39</ele>
        <time>2012-12-03T11:20:05Z</time>
      </trkpt>
      <trkpt lat="43.21064" lon="3.15171">
        <ele>93.39</ele>
        <time>2012-12-03T11:20:20Z</time>
      </trkpt>
      <trkpt lat="43.2106" lon="3.15187">
        <ele>93.39</ele>
        <time>2012-12-03T11:20:30Z</time>
      </trkpt>
      <trkpt lat="43.21057" lon="3.152">
        <ele>94.35</ele>
        <time>2012-12-03T11:20:37Z</time>
      </trkpt>
      <trkpt lat="43.21055" lon="3.15208">
        <ele>94.35</ele>
        <time>2012-12-03T11:20:42Z</time>
      </trkpt>
      <trkpt lat="43.2105" lon="3.15235">
        <ele>93.87</ele>
        <time>2012-12-03T11:20:57Z</time>
      </trkpt>
      <trkpt lat="43.2105" lon="3.15253">
        <ele>93.87</ele>
        <time>2012-12-03T11:21:09Z</time>
      </trkpt>
      <trkpt lat="43.21049" lon="3.15258">
        <ele>93.87</ele>
        <time>2012-12-03T11:21:12Z</time>
      </trkpt>
      <trkpt lat="43.21049" lon="3.15271">
        <ele>93.39</ele>
        <time>2012-12-03T11:21:19Z</time>
      </trkpt>
      <trkpt lat="43.2105" lon="3.15295">
        <ele>93.87</ele>
        <time>2012-12-03T11:21:32Z</time>
      </trkpt>
      <trkpt lat="43.21051" lon="3.15307">
        <ele>93.87</ele>
        <time>2012-12-03T11:21:39Z</time>
      </trkpt>
      <trkpt lat="43.21051" lon="3.1532">
        <ele>93.87</ele>
        <time>2012-12-03T11:21:46Z</time>
      </trkpt>
      <trkpt lat="43.21049" lon="3.15339">
        <ele>93.87</ele>
        <time>2012-12-03T11:21:57Z</time>
      </trkpt>
      <trkpt lat="43.21049" lon="3.15344">
        <ele>93.87</ele>
        <time>2012-12-03T11:22:00Z</time>
      </trkpt>
      <trkpt lat="43.21049" lon="3.1535">
        <ele>93.39</ele>
        <time>2012-12-03T11:22:07Z</time>
      </trkpt>
      <trkpt lat="43.21049" lon="3.15359">
        <ele>93.87</ele>
        <time>2012-12-03T11:22:12Z</time>
      </trkpt>
      <trkpt lat="43.21051" lon="3.15374">
        <ele>94.35</ele>
        <time>2012-12-03T11:22:22Z</time>
      </trkpt>
      <trkpt lat="43.21057" lon="3.15387">
        <ele>94.35</ele>
        <time>2012-12-03T11:22:30Z</time>
      </trkpt>
      <trkpt lat="43.21061" lon="3.15409">
        <ele>94.83</ele>
        <time>2012-12-03T11:22:42Z</time>
      </trkpt>
      <trkpt lat="43.21069" lon="3.15424">
        <ele>95.79</ele>
        <time>2012-12-03T11:22:52Z</time>
      </trkpt>
      <trkpt lat="43.21073" lon="3.15429">
        <ele>95.79</ele>
        <time>2012-12-03T11:22:57Z</time>
      </trkpt>
      <trkpt lat="43.21083" lon="3.15441">
        <ele>96.75</ele>
        <time>2012-12-03T11:23:09Z</time>
      </trkpt>
      <trkpt lat="43.21092" lon="3.15454">
        <ele>97.71</ele>
        <time>2012-12-03T11:23:20Z</time>
      </trkpt>
      <trkpt lat="43.21097" lon="3.1546">
        <ele>98.19</ele>
        <time>2012-12-03T11:23:25Z</time>
      </trkpt>
      <trkpt lat="43.21108" lon="3.15475">
        <ele>97.71</ele>
        <time>2012-12-03T11:23:37Z</time>
      </trkpt>
      <trkpt lat="43.21115" lon="3.15496">
        <ele>97.71</ele>
        <time>2012-12-03T11:23:49Z</time>
      </trkpt>
      <trkpt lat="43.21118" lon="3.15504">
        <ele>98.19</ele>
        <time>2012-12-03T11:23:54Z</time>
      </trkpt>
      <trkpt lat="43.21122" lon="3.15517">
        <ele>98.19</ele>
        <time>2012-12-03T11:24:02Z</time>
      </trkpt>
      <trkpt lat="43.21128" lon="3.15534">
        <ele>98.67</ele>
        <time>2012-12-03T11:24:12Z</time>
      </trkpt>
      <trkpt lat="43.21131" lon="3.15547">
        <ele>99.63</ele>
        <time>2012-12-03T11:24:19Z</time>
      </trkpt>
      <trkpt lat="43.21132" lon="3.15551">
        <ele>99.63</ele>
        <time>2012-12-03T11:24:21Z</time>
      </trkpt>
      <trkpt lat="43.2114" lon="3.15567">
        <ele>99.15</ele>
        <time>2012-12-03T11:24:32Z</time>
      </trkpt>
      <trkpt lat="43.21142" lon="3.15583">
        <ele>99.63</ele>
        <time>2012-12-03T11:24:41Z</time>
      </trkpt>
      <trkpt lat="43.21147" lon="3.15603">
        <ele>100.11</ele>
        <time>2012-12-03T11:24:53Z</time>
      </trkpt>
      <trkpt lat="43.21149" lon="3.15621">
        <ele>100.11</ele>
        <time>2012-12-03T11:25:04Z</time>
      </trkpt>
      <trkpt lat="43.21152" lon="3.15641">
        <ele>100.11</ele>
        <time>2012-12-03T11:25:15Z</time>
      </trkpt>
      <trkpt lat="43.21154" lon="3.15649">
        <ele>99.63</ele>
        <time>2012-12-03T11:25:20Z</time>
      </trkpt>
      <trkpt lat="43.21157" lon="3.15663">
        <ele>100.11</ele>
        <time>2012-12-03T11:25:27Z</time>
      </trkpt>
      <trkpt lat="43.21159" lon="3.15671">
        <ele>99.63</ele>
        <time>2012-12-03T11:25:32Z</time>
      </trkpt>
      <trkpt lat="43.21156" lon="3.15692">
        <ele>99.15</ele>
        <time>2012-12-03T11:25:43Z</time>
      </trkpt>
      <trkpt lat="43.21155" lon="3.15693">
        <ele>99.15</ele>
        <time>2012-12-03T11:25:56Z</time>
      </trkpt>
      <trkpt lat="43.21155" lon="3.15694">
        <ele>98.19</ele>
        <time>2012-12-03T11:26:00Z</time>
      </trkpt>
      <trkpt lat="43.21154" lon="3.15697">
        <ele>98.19</ele>
        <time>2012-12-03T11:26:02Z</time>
      </trkpt>
      <trkpt lat="43.2115" lon="3.15706">
        <ele>98.19</ele>
        <time>2012-12-03T11:26:09Z</time>
      </trkpt>
      <trkpt lat="43.2115" lon="3.15712">
        <ele>97.71</ele>
        <time>2012-12-03T11:26:12Z</time>
      </trkpt>
      <trkpt lat="43.21152" lon="3.15718">
        <ele>98.19</ele>
        <time>2012-12-03T11:26:15Z</time>
      </trkpt>
      <trkpt lat="43.21152" lon="3.15721">
        <ele>98.19</ele>
        <time>2012-12-03T11:26:17Z</time>
      </trkpt>
      <trkpt lat="43.21152" lon="3.15725">
        <ele>98.19</ele>
        <time>2012-12-03T11:26:20Z</time>
      </trkpt>
      <trkpt lat="43.21152" lon="3.1573">
        <ele>97.71</ele>
        <time>2012-12-03T11:26:23Z</time>
      </trkpt>
      <trkpt lat="43.21153" lon="3.15734">
        <ele>97.71</ele>
        <time>2012-12-03T11:26:26Z</time>
      </trkpt>
      <trkpt lat="43.21153" lon="3.15739">
        <ele>97.71</ele>
        <time>2012-12-03T11:26:29Z</time>
      </trkpt>
      <trkpt lat="43.21153" lon="3.15746">
        <ele>97.71</ele>
        <time>2012-12-03T11:26:38Z</time>
      </trkpt>
      <trkpt lat="43.21152" lon="3.15756">
        <ele>97.23</ele>
        <time>2012-12-03T11:26:48Z</time>
      </trkpt>
      <trkpt lat="43.21152" lon="3.15757">
        <ele>97.23</ele>
        <time>2012-12-03T11:26:49Z</time>
      </trkpt>
      <trkpt lat="43.21153" lon="3.15763">
        <ele>97.23</ele>
        <time>2012-12-03T11:26:53Z</time>
      </trkpt>
      <trkpt lat="43.21154" lon="3.15773">
        <ele>97.71</ele>
        <time>2012-12-03T11:26:59Z</time>
      </trkpt>
      <trkpt lat="43.21155" lon="3.15785">
        <ele>97.71</ele>
        <time>2012-12-03T11:27:05Z</time>
      </trkpt>
      <trkpt lat="43.21155" lon="3.15796">
        <ele>97.23</ele>
        <time>2012-12-03T11:27:11Z</time>
      </trkpt>
      <trkpt lat="43.21158" lon="3.15808">
        <ele>97.23</ele>
        <time>2012-12-03T11:27:19Z</time>
      </trkpt>
      <trkpt lat="43.21159" lon="3.15815">
        <ele>97.71</ele>
        <time>2012-12-03T11:27:23Z</time>
      </trkpt>
      <trkpt lat="43.2116" lon="3.15821">
        <ele>97.71</ele>
        <time>2012-12-03T11:27:27Z</time>
      </trkpt>
      <trkpt lat="43.21165" lon="3.15842">
        <ele>97.23</ele>
        <time>2012-12-03T11:27:40Z</time>
      </trkpt>
      <trkpt lat="43.21166" lon="3.15852">
        <ele>98.19</ele>
        <time>2012-12-03T11:27:51Z</time>
      </trkpt>
      <trkpt lat="43.21167" lon="3.15856">
        <ele>97.71</ele>
        <time>2012-12-03T11:27:54Z</time>
      </trkpt>
      <trkpt lat="43.21171" lon="3.15876">
        <ele>97.71</ele>
        <time>2012-12-03T11:28:05Z</time>
      </trkpt>
      <trkpt lat="43.21171" lon="3.15898">
        <ele>97.71</ele>
        <time>2012-12-03T11:28:17Z</time>
      </trkpt>
      <trkpt lat="43.21163" lon="3.15913">
        <ele>97.23</ele>
        <time>2012-12-03T11:28:27Z</time>
      </trkpt>
      <trkpt lat="43.21161" lon="3.15923">
        <ele>96.75</ele>
        <time>2012-12-03T11:28:36Z</time>
      </trkpt>
      <trkpt lat="43.21161" lon="3.15923">
        <ele>96.75</ele>
        <time>2012-12-03T11:28:41Z</time>
      </trkpt>
      <trkpt lat="43.21159" lon="3.1593">
        <ele>96.75</ele>
        <time>2012-12-03T11:28:55Z</time>
      </trkpt>
      <trkpt lat="43.21156" lon="3.1594">
        <ele>96.27</ele>
        <time>2012-12-03T11:29:05Z</time>
      </trkpt>
      <trkpt lat="43.21155" lon="3.15943">
        <ele>96.27</ele>
        <time>2012-12-03T11:29:07Z</time>
      </trkpt>
      <trkpt lat="43.2115" lon="3.15954">
        <ele>95.31</ele>
        <time>2012-12-03T11:29:14Z</time>
      </trkpt>
      <trkpt lat="43.21143" lon="3.15965">
        <ele>95.79</ele>
        <time>2012-12-03T11:29:23Z</time>
      </trkpt>
      <trkpt lat="43.21138" lon="3.15971">
        <ele>95.31</ele>
        <time>2012-12-03T11:29:29Z</time>
      </trkpt>
      <trkpt lat="43.21131" lon="3.15989">
        <ele>95.31</ele>
        <time>2012-12-03T11:29:41Z</time>
      </trkpt>
      <trkpt lat="43.2113" lon="3.1599">
        <ele>94.83</ele>
        <time>2012-12-03T11:29:42Z</time>
      </trkpt>
      <trkpt lat="43.21129" lon="3.16006">
        <ele>94.83</ele>
        <time>2012-12-03T11:29:53Z</time>
      </trkpt>
      <trkpt lat="43.21129" lon="3.16011">
        <ele>94.35</ele>
        <time>2012-12-03T11:29:56Z</time>
      </trkpt>
      <trkpt lat="43.21128" lon="3.16022">
        <ele>94.35</ele>
        <time>2012-12-03T11:30:02Z</time>
      </trkpt>
      <trkpt lat="43.21125" lon="3.16033">
        <ele>93.87</ele>
        <time>2012-12-03T11:30:09Z</time>
      </trkpt>
      <trkpt lat="43.21122" lon="3.16047">
        <ele>93.87</ele>
        <time>2012-12-03T11:30:16Z</time>
      </trkpt>
      <trkpt lat="43.21121" lon="3.16055">
        <ele>93.87</ele>
        <time>2012-12-03T11:30:21Z</time>
      </trkpt>
      <trkpt lat="43.21119" lon="3.16061">
        <ele>93.87</ele>
        <time>2012-12-03T11:30:25Z</time>
      </trkpt>
      <trkpt lat="43.21115" lon="3.16086">
        <ele>93.87</ele>
        <time>2012-12-03T11:30:37Z</time>
      </trkpt>
      <trkpt lat="43.21114" lon="3.16102">
        <ele>92.9</ele>
        <time>2012-12-03T11:30:46Z</time>
      </trkpt>
      <trkpt lat="43.21111" lon="3.16124">
        <ele>92.42</ele>
        <time>2012-12-03T11:30:57Z</time>
      </trkpt>
      <trkpt lat="43.21109" lon="3.16137">
        <ele>92.9</ele>
        <time>2012-12-03T11:31:04Z</time>
      </trkpt>
      <trkpt lat="43.21105" lon="3.16158">
        <ele>92.9</ele>
        <time>2012-12-03T11:31:16Z</time>
      </trkpt>
      <trkpt lat="43.21101" lon="3.1618">
        <ele>92.9</ele>
        <time>2012-12-03T11:31:28Z</time>
      </trkpt>
      <trkpt lat="43.21099" lon="3.16203">
        <ele>92.42</ele>
        <time>2012-12-03T11:31:40Z</time>
      </trkpt>
      <trkpt lat="43.21099" lon="3.16214">
        <ele>92.42</ele>
        <time>2012-12-03T11:31:46Z</time>
      </trkpt>
      <trkpt lat="43.21098" lon="3.16223">
        <ele>92.42</ele>
        <time>2012-12-03T11:31:50Z</time>
      </trkpt>
      <trkpt lat="43.21097" lon="3.16233">
        <ele>92.42</ele>
        <time>2012-12-03T11:31:55Z</time>
      </trkpt>
      <trkpt lat="43.21093" lon="3.16254">
        <ele>91.94</ele>
        <time>2012-12-03T11:32:07Z</time>
      </trkpt>
      <trkpt lat="43.21091" lon="3.1627">
        <ele>91.94</ele>
        <time>2012-12-03T11:32:14Z</time>
      </trkpt>
      <trkpt lat="43.2109" lon="3.16281">
        <ele>90.98</ele>
        <time>2012-12-03T11:32:21Z</time>
      </trkpt>
      <trkpt lat="43.21086" lon="3.16307">
        <ele>91.46</ele>
        <time>2012-12-03T11:32:33Z</time>
      </trkpt>
      <trkpt lat="43.21086" lon="3.16317">
        <ele>90.5</ele>
        <time>2012-12-03T11:32:39Z</time>
      </trkpt>
      <trkpt lat="43.21075" lon="3.16332">
        <ele>91.94</ele>
        <time>2012-12-03T11:32:50Z</time>
      </trkpt>
      <trkpt lat="43.21074" lon="3.16332">
        <ele>91.94</ele>
        <time>2012-12-03T11:32:51Z</time>
      </trkpt>
      <trkpt lat="43.21065" lon="3.16339">
        <ele>92.9</ele>
        <time>2012-12-03T11:33:00Z</time>
      </trkpt>
      <trkpt lat="43.21063" lon="3.16348">
        <ele>92.9</ele>
        <time>2012-12-03T11:33:05Z</time>
      </trkpt>
      <trkpt lat="43.21062" lon="3.16353">
        <ele>92.9</ele>
        <time>2012-12-03T11:33:08Z</time>
      </trkpt>
      <trkpt lat="43.21061" lon="3.1636">
        <ele>92.9</ele>
        <time>2012-12-03T11:33:12Z</time>
      </trkpt>
      <trkpt lat="43.21061" lon="3.16364">
        <ele>92.42</ele>
        <time>2012-12-03T11:33:16Z</time>
      </trkpt>
      <trkpt lat="43.21062" lon="3.16372">
        <ele>92.42</ele>
        <time>2012-12-03T11:33:20Z</time>
      </trkpt>
      <trkpt lat="43.2106" lon="3.16396">
        <ele>91.46</ele>
        <time>2012-12-03T11:33:34Z</time>
      </trkpt>
      <trkpt lat="43.2106" lon="3.16398">
        <ele>90.98</ele>
        <time>2012-12-03T11:33:35Z</time>
      </trkpt>
      <trkpt lat="43.21059" lon="3.16419">
        <ele>91.94</ele>
        <time>2012-12-03T11:33:47Z</time>
      </trkpt>
      <trkpt lat="43.21057" lon="3.16424">
        <ele>91.46</ele>
        <time>2012-12-03T11:33:57Z</time>
      </trkpt>
      <trkpt lat="43.21056" lon="3.16423">
        <ele>91.46</ele>
        <time>2012-12-03T11:34:26Z</time>
      </trkpt>
      <trkpt lat="43.21056" lon="3.16423">
        <ele>91.46</ele>
        <time>2012-12-03T11:34:41Z</time>
      </trkpt>
      <trkpt lat="43.21056" lon="3.16426">
        <ele>91.46</ele>
        <time>2012-12-03T11:34:43Z</time>
      </trkpt>
      <trkpt lat="43.2106" lon="3.16447">
        <ele>90.02</ele>
        <time>2012-12-03T11:34:53Z</time>
      </trkpt>
      <trkpt lat="43.21055" lon="3.16473">
        <ele>90.02</ele>
        <time>2012-12-03T11:35:02Z</time>
      </trkpt>
      <trkpt lat="43.21054" lon="3.16477">
        <ele>89.54</ele>
        <time>2012-12-03T11:35:05Z</time>
      </trkpt>
      <trkpt lat="43.21052" lon="3.16485">
        <ele>89.06</ele>
        <time>2012-12-03T11:35:09Z</time>
      </trkpt>
      <trkpt lat="43.21048" lon="3.16493">
        <ele>89.06</ele>
        <time>2012-12-03T11:35:14Z</time>
      </trkpt>
      <trkpt lat="43.21044" lon="3.16506">
        <ele>89.06</ele>
        <time>2012-12-03T11:35:27Z</time>
      </trkpt>
      <trkpt lat="43.21043" lon="3.16507">
        <ele>88.58</ele>
        <time>2012-12-03T11:35:30Z</time>
      </trkpt>
      <trkpt lat="43.21041" lon="3.16519">
        <ele>88.1</ele>
        <time>2012-12-03T11:35:40Z</time>
      </trkpt>
      <trkpt lat="43.2104" lon="3.16523">
        <ele>87.62</ele>
        <time>2012-12-03T11:35:42Z</time>
      </trkpt>
      <trkpt lat="43.21038" lon="3.16535">
        <ele>87.14</ele>
        <time>2012-12-03T11:35:48Z</time>
      </trkpt>
      <trkpt lat="43.21034" lon="3.16556">
        <ele>86.18</ele>
        <time>2012-12-03T11:35:59Z</time>
      </trkpt>
      <trkpt lat="43.2103" lon="3.16579">
        <ele>85.69</ele>
        <time>2012-12-03T11:36:11Z</time>
      </trkpt>
      <trkpt lat="43.21027" lon="3.16606">
        <ele>85.21</ele>
        <time>2012-12-03T11:36:23Z</time>
      </trkpt>
      <trkpt lat="43.21027" lon="3.16625">
        <ele>84.73</ele>
        <time>2012-12-03T11:36:34Z</time>
      </trkpt>
      <trkpt lat="43.21024" lon="3.16641">
        <ele>84.73</ele>
        <time>2012-12-03T11:36:43Z</time>
      </trkpt>
      <trkpt lat="43.21026" lon="3.16651">
        <ele>84.25</ele>
        <time>2012-12-03T11:36:48Z</time>
      </trkpt>
      <trkpt lat="43.21027" lon="3.16662">
        <ele>84.25</ele>
        <time>2012-12-03T11:36:59Z</time>
      </trkpt>
      <trkpt lat="43.21027" lon="3.16662">
        <ele>84.25</ele>
        <time>2012-12-03T11:37:11Z</time>
      </trkpt>
      <trkpt lat="43.21025" lon="3.16671">
        <ele>83.77</ele>
        <time>2012-12-03T11:37:16Z</time>
      </trkpt>
      <trkpt lat="43.21023" lon="3.16674">
        <ele>83.29</ele>
        <time>2012-12-03T11:37:19Z</time>
      </trkpt>
      <trkpt lat="43.21022" lon="3.16681">
        <ele>82.81</ele>
        <time>2012-12-03T11:37:23Z</time>
      </trkpt>
      <trkpt lat="43.21016" lon="3.16698">
        <ele>81.37</ele>
        <time>2012-12-03T11:37:33Z</time>
      </trkpt>
      <trkpt lat="43.21013" lon="3.16705">
        <ele>81.37</ele>
        <time>2012-12-03T11:37:37Z</time>
      </trkpt>
      <trkpt lat="43.21014" lon="3.16716">
        <ele>80.89</ele>
        <time>2012-12-03T11:37:42Z</time>
      </trkpt>
      <trkpt lat="43.21013" lon="3.16726">
        <ele>79.93</ele>
        <time>2012-12-03T11:37:48Z</time>
      </trkpt>
      <trkpt lat="43.2101" lon="3.16732">
        <ele>79.45</ele>
        <time>2012-12-03T11:37:52Z</time>
      </trkpt>
      <trkpt lat="43.21004" lon="3.16753">
        <ele>78</ele>
        <time>2012-12-03T11:38:02Z</time>
      </trkpt>
      <trkpt lat="43.21001" lon="3.16756">
        <ele>78</ele>
        <time>2012-12-03T11:38:06Z</time>
      </trkpt>
      <trkpt lat="43.21" lon="3.16772">
        <ele>76.56</ele>
        <time>2012-12-03T11:38:16Z</time>
      </trkpt>
      <trkpt lat="43.20998" lon="3.16776">
        <ele>76.08</ele>
        <time>2012-12-03T11:38:20Z</time>
      </trkpt>
      <trkpt lat="43.20984" lon="3.1678">
        <ele>75.12</ele>
        <time>2012-12-03T11:38:31Z</time>
      </trkpt>
      <trkpt lat="43.20977" lon="3.16783">
        <ele>75.6</ele>
        <time>2012-12-03T11:38:44Z</time>
      </trkpt>
      <trkpt lat="43.20974" lon="3.16784">
        <ele>76.08</ele>
        <time>2012-12-03T11:38:49Z</time>
      </trkpt>
      <trkpt lat="43.20974" lon="3.16784">
        <ele>75.12</ele>
        <time>2012-12-03T11:38:51Z</time>
      </trkpt>
      <trkpt lat="43.20974" lon="3.16784">
        <ele>78.48</ele>
        <time>2012-12-03T11:38:56Z</time>
      </trkpt>
      <trkpt lat="43.20974" lon="3.16784">
        <ele>74.64</ele>
        <time>2012-12-03T11:38:57Z</time>
      </trkpt>
      <trkpt lat="43.20974" lon="3.16784">
        <ele>78.97</ele>
        <time>2012-12-03T11:39:00Z</time>
      </trkpt>
      <trkpt lat="43.20974" lon="3.16784">
        <ele>72.24</ele>
        <time>2012-12-03T11:39:01Z</time>
      </trkpt>
      <trkpt lat="43.20974" lon="3.16784">
        <ele>75.6</ele>
        <time>2012-12-03T11:39:02Z</time>
      </trkpt>
      <trkpt lat="43.20974" lon="3.16784">
        <ele>71.76</ele>
        <time>2012-12-03T11:39:03Z</time>
      </trkpt>
      <trkpt lat="43.20974" lon="3.16784">
        <ele>76.08</ele>
        <time>2012-12-03T11:39:04Z</time>
      </trkpt>
      <trkpt lat="43.20974" lon="3.16784">
        <ele>81.85</ele>
        <time>2012-12-03T11:39:06Z</time>
      </trkpt>
      <trkpt lat="43.20974" lon="3.16784">
        <ele>74.16</ele>
        <time>2012-12-03T11:39:08Z</time>
      </trkpt>
      <trkpt lat="43.20974" lon="3.16784">
        <ele>79.93</ele>
        <time>2012-12-03T11:39:10Z</time>
      </trkpt>
      <trkpt lat="43.20974" lon="3.16784">
        <ele>74.64</ele>
        <time>2012-12-03T11:39:11Z</time>
      </trkpt>
      <trkpt lat="43.20974" lon="3.16784">
        <ele>80.41</ele>
        <time>2012-12-03T11:39:14Z</time>
      </trkpt>
      <trkpt lat="43.20974" lon="3.16784">
        <ele>75.12</ele>
        <time>2012-12-03T11:39:15Z</time>
      </trkpt>
      <trkpt lat="43.20965" lon="3.16786">
        <ele>74.16</ele>
        <time>2012-12-03T11:39:25Z</time>
      </trkpt>
      <trkpt lat="43.2096" lon="3.16788">
        <ele>73.2</ele>
        <time>2012-12-03T11:39:31Z</time>
      </trkpt>
      <trkpt lat="43.20952" lon="3.16786">
        <ele>69.83</ele>
        <time>2012-12-03T11:39:38Z</time>
      </trkpt>
      <trkpt lat="43.20944" lon="3.16774">
        <ele>70.79</ele>
        <time>2012-12-03T11:39:47Z</time>
      </trkpt>
      <trkpt lat="43.20942" lon="3.16768">
        <ele>69.35</ele>
        <time>2012-12-03T11:39:51Z</time>
      </trkpt>
      <trkpt lat="43.2094" lon="3.16765">
        <ele>70.79</ele>
        <time>2012-12-03T11:39:54Z</time>
      </trkpt>
      <trkpt lat="43.20937" lon="3.1676">
        <ele>70.31</ele>
        <time>2012-12-03T11:39:57Z</time>
      </trkpt>
      <trkpt lat="43.20922" lon="3.16748">
        <ele>68.39</ele>
        <time>2012-12-03T11:40:09Z</time>
      </trkpt>
      <trkpt lat="43.20908" lon="3.16744">
        <ele>66.95</ele>
        <time>2012-12-03T11:40:17Z</time>
      </trkpt>
      <trkpt lat="43.20906" lon="3.16745">
        <ele>65.99</ele>
        <time>2012-12-03T11:40:19Z</time>
      </trkpt>
      <trkpt lat="43.20884" lon="3.16741">
        <ele>65.03</ele>
        <time>2012-12-03T11:40:30Z</time>
      </trkpt>
      <trkpt lat="43.20863" lon="3.16733">
        <ele>64.07</ele>
        <time>2012-12-03T11:40:42Z</time>
      </trkpt>
      <trkpt lat="43.2085" lon="3.16723">
        <ele>62.62</ele>
        <time>2012-12-03T11:40:52Z</time>
      </trkpt>
      <trkpt lat="43.20849" lon="3.16722">
        <ele>62.62</ele>
        <time>2012-12-03T11:40:54Z</time>
      </trkpt>
      <trkpt lat="43.20844" lon="3.1672">
        <ele>62.62</ele>
        <time>2012-12-03T11:40:58Z</time>
      </trkpt>
      <trkpt lat="43.20827" lon="3.1671">
        <ele>61.18</ele>
        <time>2012-12-03T11:41:10Z</time>
      </trkpt>
      <trkpt lat="43.20825" lon="3.16709">
        <ele>60.7</ele>
        <time>2012-12-03T11:41:11Z</time>
      </trkpt>
      <trkpt lat="43.20821" lon="3.16705">
        <ele>60.22</ele>
        <time>2012-12-03T11:41:16Z</time>
      </trkpt>
      <trkpt lat="43.20818" lon="3.16699">
        <ele>60.7</ele>
        <time>2012-12-03T11:41:20Z</time>
      </trkpt>
      <trkpt lat="43.20816" lon="3.16697">
        <ele>60.7</ele>
        <time>2012-12-03T11:41:22Z</time>
      </trkpt>
      <trkpt lat="43.2081" lon="3.16682">
        <ele>60.22</ele>
        <time>2012-12-03T11:41:31Z</time>
      </trkpt>
      <trkpt lat="43.20807" lon="3.16677">
        <ele>60.22</ele>
        <time>2012-12-03T11:41:35Z</time>
      </trkpt>
      <trkpt lat="43.20795" lon="3.16658">
        <ele>59.74</ele>
        <time>2012-12-03T11:41:49Z</time>
      </trkpt>
      <trkpt lat="43.2079" lon="3.16649">
        <ele>59.26</ele>
        <time>2012-12-03T11:41:56Z</time>
      </trkpt>
      <trkpt lat="43.20782" lon="3.16635">
        <ele>59.26</ele>
        <time>2012-12-03T11:42:05Z</time>
      </trkpt>
      <trkpt lat="43.2078" lon="3.16631">
        <ele>59.26</ele>
        <time>2012-12-03T11:42:07Z</time>
      </trkpt>
      <trkpt lat="43.20779" lon="3.16628">
        <ele>58.3</ele>
        <time>2012-12-03T11:42:10Z</time>
      </trkpt>
      <trkpt lat="43.20778" lon="3.16627">
        <ele>58.78</ele>
        <time>2012-12-03T11:42:12Z</time>
      </trkpt>
      <trkpt lat="43.20775" lon="3.16625">
        <ele>58.78</ele>
        <time>2012-12-03T11:42:15Z</time>
      </trkpt>
      <trkpt lat="43.20773" lon="3.1662">
        <ele>58.78</ele>
        <time>2012-12-03T11:42:18Z</time>
      </trkpt>
      <trkpt lat="43.20759" lon="3.16609">
        <ele>57.82</ele>
        <time>2012-12-03T11:42:30Z</time>
      </trkpt>
      <trkpt lat="43.20756" lon="3.16604">
        <ele>57.82</ele>
        <time>2012-12-03T11:42:34Z</time>
      </trkpt>
      <trkpt lat="43.20748" lon="3.16595">
        <ele>56.86</ele>
        <time>2012-12-03T11:42:42Z</time>
      </trkpt>
      <trkpt lat="43.20745" lon="3.16592">
        <ele>56.37</ele>
        <time>2012-12-03T11:42:45Z</time>
      </trkpt>
      <trkpt lat="43.20734" lon="3.16582">
        <ele>55.89</ele>
        <time>2012-12-03T11:42:55Z</time>
      </trkpt>
      <trkpt lat="43.2073" lon="3.16578">
        <ele>55.89</ele>
        <time>2012-12-03T11:42:59Z</time>
      </trkpt>
      <trkpt lat="43.20718" lon="3.16571">
        <ele>55.41</ele>
        <time>2012-12-03T11:43:11Z</time>
      </trkpt>
      <trkpt lat="43.20712" lon="3.16566">
        <ele>55.41</ele>
        <time>2012-12-03T11:43:16Z</time>
      </trkpt>
      <trkpt lat="43.20708" lon="3.16559">
        <ele>55.41</ele>
        <time>2012-12-03T11:43:21Z</time>
      </trkpt>
      <trkpt lat="43.207" lon="3.16549">
        <ele>54.93</ele>
        <time>2012-12-03T11:43:30Z</time>
      </trkpt>
      <trkpt lat="43.20692" lon="3.16541">
        <ele>54.45</ele>
        <time>2012-12-03T11:43:37Z</time>
      </trkpt>
      <trkpt lat="43.20688" lon="3.16538">
        <ele>54.45</ele>
        <time>2012-12-03T11:43:41Z</time>
      </trkpt>
      <trkpt lat="43.20678" lon="3.1652">
        <ele>54.45</ele>
        <time>2012-12-03T11:43:53Z</time>
      </trkpt>
      <trkpt lat="43.20676" lon="3.16515">
        <ele>54.45</ele>
        <time>2012-12-03T11:43:57Z</time>
      </trkpt>
      <trkpt lat="43.20675" lon="3.16511">
        <ele>54.45</ele>
        <time>2012-12-03T11:44:00Z</time>
      </trkpt>
      <trkpt lat="43.20669" lon="3.16496">
        <ele>53.97</ele>
        <time>2012-12-03T11:44:10Z</time>
      </trkpt>
      <trkpt lat="43.20666" lon="3.16486">
        <ele>54.45</ele>
        <time>2012-12-03T11:44:16Z</time>
      </trkpt>
      <trkpt lat="43.20665" lon="3.16479">
        <ele>53.97</ele>
        <time>2012-12-03T11:44:20Z</time>
      </trkpt>
      <trkpt lat="43.20656" lon="3.16458">
        <ele>53.49</ele>
        <time>2012-12-03T11:44:33Z</time>
      </trkpt>
      <trkpt lat="43.20653" lon="3.1645">
        <ele>53.97</ele>
        <time>2012-12-03T11:44:39Z</time>
      </trkpt>
      <trkpt lat="43.20648" lon="3.1643">
        <ele>53.97</ele>
        <time>2012-12-03T11:44:51Z</time>
      </trkpt>
      <trkpt lat="43.20642" lon="3.16413">
        <ele>53.49</ele>
        <time>2012-12-03T11:45:03Z</time>
      </trkpt>
      <trkpt lat="43.20641" lon="3.16411">
        <ele>53.49</ele>
        <time>2012-12-03T11:45:04Z</time>
      </trkpt>
      <trkpt lat="43.20637" lon="3.16407">
        <ele>53.01</ele>
        <time>2012-12-03T11:45:08Z</time>
      </trkpt>
      <trkpt lat="43.20632" lon="3.16402">
        <ele>52.53</ele>
        <time>2012-12-03T11:45:13Z</time>
      </trkpt>
      <trkpt lat="43.20624" lon="3.16389">
        <ele>52.53</ele>
        <time>2012-12-03T11:45:24Z</time>
      </trkpt>
      <trkpt lat="43.20621" lon="3.16386">
        <ele>52.53</ele>
        <time>2012-12-03T11:45:27Z</time>
      </trkpt>
      <trkpt lat="43.20617" lon="3.16379">
        <ele>53.49</ele>
        <time>2012-12-03T11:45:36Z</time>
      </trkpt>
      <trkpt lat="43.20615" lon="3.16375">
        <ele>53.01</ele>
        <time>2012-12-03T11:45:44Z</time>
      </trkpt>
      <trkpt lat="43.20613" lon="3.16367">
        <ele>52.53</ele>
        <time>2012-12-03T11:45:55Z</time>
      </trkpt>
      <trkpt lat="43.20613" lon="3.16367">
        <ele>52.53</ele>
        <time>2012-12-03T11:45:56Z</time>
      </trkpt>
      <trkpt lat="43.20614" lon="3.1636">
        <ele>53.01</ele>
        <time>2012-12-03T11:46:02Z</time>
      </trkpt>
      <trkpt lat="43.20613" lon="3.16354">
        <ele>53.49</ele>
        <time>2012-12-03T11:46:06Z</time>
      </trkpt>
      <trkpt lat="43.20612" lon="3.16339">
        <ele>53.97</ele>
        <time>2012-12-03T11:46:14Z</time>
      </trkpt>
      <trkpt lat="43.20611" lon="3.16336">
        <ele>53.97</ele>
        <time>2012-12-03T11:46:16Z</time>
      </trkpt>
      <trkpt lat="43.20607" lon="3.16313">
        <ele>53.49</ele>
        <time>2012-12-03T11:46:30Z</time>
      </trkpt>
      <trkpt lat="43.20606" lon="3.16308">
        <ele>53.97</ele>
        <time>2012-12-03T11:46:33Z</time>
      </trkpt>
      <trkpt lat="43.206" lon="3.1629">
        <ele>53.97</ele>
        <time>2012-12-03T11:46:44Z</time>
      </trkpt>
      <trkpt lat="43.20591" lon="3.16281">
        <ele>53.97</ele>
        <time>2012-12-03T11:46:54Z</time>
      </trkpt>
      <trkpt lat="43.20583" lon="3.16273">
        <ele>53.97</ele>
        <time>2012-12-03T11:47:02Z</time>
      </trkpt>
      <trkpt lat="43.20569" lon="3.16264">
        <ele>53.97</ele>
        <time>2012-12-03T11:47:16Z</time>
      </trkpt>
      <trkpt lat="43.20558" lon="3.16253">
        <ele>54.45</ele>
        <time>2012-12-03T11:47:25Z</time>
      </trkpt>
      <trkpt lat="43.20547" lon="3.16242">
        <ele>54.45</ele>
        <time>2012-12-03T11:47:37Z</time>
      </trkpt>
      <trkpt lat="43.20543" lon="3.16237">
        <ele>53.97</ele>
        <time>2012-12-03T11:47:41Z</time>
      </trkpt>
      <trkpt lat="43.20541" lon="3.16236">
        <ele>54.45</ele>
        <time>2012-12-03T11:47:43Z</time>
      </trkpt>
      <trkpt lat="43.20533" lon="3.16231">
        <ele>54.45</ele>
        <time>2012-12-03T11:47:49Z</time>
      </trkpt>
      <trkpt lat="43.20527" lon="3.16227">
        <ele>54.93</ele>
        <time>2012-12-03T11:47:54Z</time>
      </trkpt>
      <trkpt lat="43.20522" lon="3.16222">
        <ele>54.93</ele>
        <time>2012-12-03T11:48:00Z</time>
      </trkpt>
      <trkpt lat="43.20519" lon="3.16216">
        <ele>55.41</ele>
        <time>2012-12-03T11:48:05Z</time>
      </trkpt>
      <trkpt lat="43.20516" lon="3.16209">
        <ele>55.89</ele>
        <time>2012-12-03T11:48:10Z</time>
      </trkpt>
      <trkpt lat="43.20515" lon="3.16205">
        <ele>56.37</ele>
        <time>2012-12-03T11:48:13Z</time>
      </trkpt>
      <trkpt lat="43.20511" lon="3.16194">
        <ele>56.37</ele>
        <time>2012-12-03T11:48:20Z</time>
      </trkpt>
      <trkpt lat="43.20506" lon="3.16189">
        <ele>56.37</ele>
        <time>2012-12-03T11:48:25Z</time>
      </trkpt>
      <trkpt lat="43.20503" lon="3.16176">
        <ele>56.37</ele>
        <time>2012-12-03T11:48:32Z</time>
      </trkpt>
      <trkpt lat="43.20501" lon="3.16172">
        <ele>56.37</ele>
        <time>2012-12-03T11:48:35Z</time>
      </trkpt>
      <trkpt lat="43.20499" lon="3.16158">
        <ele>56.37</ele>
        <time>2012-12-03T11:48:46Z</time>
      </trkpt>
      <trkpt lat="43.20496" lon="3.16154">
        <ele>56.37</ele>
        <time>2012-12-03T11:48:49Z</time>
      </trkpt>
      <trkpt lat="43.2049" lon="3.16133">
        <ele>55.41</ele>
        <time>2012-12-03T11:49:02Z</time>
      </trkpt>
      <trkpt lat="43.20486" lon="3.16112">
        <ele>54.93</ele>
        <time>2012-12-03T11:49:15Z</time>
      </trkpt>
      <trkpt lat="43.20481" lon="3.161">
        <ele>54.93</ele>
        <time>2012-12-03T11:49:24Z</time>
      </trkpt>
      <trkpt lat="43.20477" lon="3.16096">
        <ele>53.97</ele>
        <time>2012-12-03T11:49:29Z</time>
      </trkpt>
      <trkpt lat="43.20474" lon="3.16093">
        <ele>53.97</ele>
        <time>2012-12-03T11:49:33Z</time>
      </trkpt>
      <trkpt lat="43.20468" lon="3.16084">
        <ele>53.49</ele>
        <time>2012-12-03T11:49:40Z</time>
      </trkpt>
      <trkpt lat="43.20467" lon="3.16083">
        <ele>53.49</ele>
        <time>2012-12-03T11:49:42Z</time>
      </trkpt>
      <trkpt lat="43.2046" lon="3.1607">
        <ele>53.01</ele>
        <time>2012-12-03T11:49:52Z</time>
      </trkpt>
      <trkpt lat="43.20458" lon="3.16066">
        <ele>52.53</ele>
        <time>2012-12-03T11:49:56Z</time>
      </trkpt>
      <trkpt lat="43.20454" lon="3.1606">
        <ele>52.05</ele>
        <time>2012-12-03T11:50:01Z</time>
      </trkpt>
      <trkpt lat="43.20453" lon="3.16059">
        <ele>51.57</ele>
        <time>2012-12-03T11:50:03Z</time>
      </trkpt>
      <trkpt lat="43.20448" lon="3.16058">
        <ele>51.09</ele>
        <time>2012-12-03T11:50:09Z</time>
      </trkpt>
      <trkpt lat="43.20435" lon="3.16054">
        <ele>51.09</ele>
        <time>2012-12-03T11:50:20Z</time>
      </trkpt>
      <trkpt lat="43.20427" lon="3.1605">
        <ele>51.09</ele>
        <time>2012-12-03T11:50:31Z</time>
      </trkpt>
      <trkpt lat="43.20424" lon="3.16047">
        <ele>50.61</ele>
        <time>2012-12-03T11:50:34Z</time>
      </trkpt>
      <trkpt lat="43.2042" lon="3.16042">
        <ele>51.09</ele>
        <time>2012-12-03T11:50:46Z</time>
      </trkpt>
      <trkpt lat="43.20414" lon="3.16034">
        <ele>50.61</ele>
        <time>2012-12-03T11:50:52Z</time>
      </trkpt>
      <trkpt lat="43.20413" lon="3.16027">
        <ele>50.61</ele>
        <time>2012-12-03T11:50:56Z</time>
      </trkpt>
      <trkpt lat="43.2041" lon="3.16027">
        <ele>51.09</ele>
        <time>2012-12-03T11:50:59Z</time>
      </trkpt>
      <trkpt lat="43.20409" lon="3.16029">
        <ele>51.09</ele>
        <time>2012-12-03T11:51:02Z</time>
      </trkpt>
      <trkpt lat="43.20409" lon="3.16032">
        <ele>51.09</ele>
        <time>2012-12-03T11:51:04Z</time>
      </trkpt>
      <trkpt lat="43.20407" lon="3.16052">
        <ele>50.61</ele>
        <time>2012-12-03T11:51:16Z</time>
      </trkpt>
      <trkpt lat="43.20406" lon="3.16057">
        <ele>50.13</ele>
        <time>2012-12-03T11:51:19Z</time>
      </trkpt>
      <trkpt lat="43.20401" lon="3.16072">
        <ele>49.65</ele>
        <time>2012-12-03T11:51:32Z</time>
      </trkpt>
      <trkpt lat="43.20399" lon="3.16077">
        <ele>49.65</ele>
        <time>2012-12-03T11:51:36Z</time>
      </trkpt>
      <trkpt lat="43.20395" lon="3.1609">
        <ele>49.16</ele>
        <time>2012-12-03T11:51:44Z</time>
      </trkpt>
      <trkpt lat="43.20392" lon="3.16096">
        <ele>49.16</ele>
        <time>2012-12-03T11:51:49Z</time>
      </trkpt>
      <trkpt lat="43.20389" lon="3.1611">
        <ele>48.68</ele>
        <time>2012-12-03T11:51:58Z</time>
      </trkpt>
      <trkpt lat="43.20389" lon="3.16116">
        <ele>48.2</ele>
        <time>2012-12-03T11:52:02Z</time>
      </trkpt>
      <trkpt lat="43.20387" lon="3.16133">
        <ele>48.2</ele>
        <time>2012-12-03T11:52:15Z</time>
      </trkpt>
      <trkpt lat="43.20387" lon="3.16135">
        <ele>48.68</ele>
        <time>2012-12-03T11:52:16Z</time>
      </trkpt>
      <trkpt lat="43.20386" lon="3.16145">
        <ele>48.68</ele>
        <time>2012-12-03T11:52:22Z</time>
      </trkpt>
      <trkpt lat="43.20385" lon="3.16163">
        <ele>48.68</ele>
        <time>2012-12-03T11:52:33Z</time>
      </trkpt>
      <trkpt lat="43.20384" lon="3.1618">
        <ele>48.68</ele>
        <time>2012-12-03T11:52:43Z</time>
      </trkpt>
      <trkpt lat="43.20385" lon="3.16195">
        <ele>48.68</ele>
        <time>2012-12-03T11:52:55Z</time>
      </trkpt>
      <trkpt lat="43.20385" lon="3.16195">
        <ele>48.2</ele>
        <time>2012-12-03T11:53:10Z</time>
      </trkpt>
      <trkpt lat="43.20385" lon="3.16196">
        <ele>51.09</ele>
        <time>2012-12-03T11:53:22Z</time>
      </trkpt>
      <trkpt lat="43.20385" lon="3.16196">
        <ele>48.2</ele>
        <time>2012-12-03T11:53:23Z</time>
      </trkpt>
      <trkpt lat="43.20385" lon="3.16197">
        <ele>47.72</ele>
        <time>2012-12-03T11:53:53Z</time>
      </trkpt>
      <trkpt lat="43.20385" lon="3.16197">
        <ele>47.72</ele>
        <time>2012-12-03T11:54:22Z</time>
      </trkpt>
      <trkpt lat="43.20385" lon="3.16197">
        <ele>48.2</ele>
        <time>2012-12-03T11:54:23Z</time>
      </trkpt>
      <trkpt lat="43.20386" lon="3.16198">
        <ele>48.68</ele>
        <time>2012-12-03T11:54:26Z</time>
      </trkpt>
      <trkpt lat="43.20384" lon="3.16203">
        <ele>48.68</ele>
        <time>2012-12-03T11:54:31Z</time>
      </trkpt>
      <trkpt lat="43.20385" lon="3.16218">
        <ele>48.2</ele>
        <time>2012-12-03T11:54:42Z</time>
      </trkpt>
      <trkpt lat="43.20387" lon="3.16226">
        <ele>48.2</ele>
        <time>2012-12-03T11:54:47Z</time>
      </trkpt>
      <trkpt lat="43.20386" lon="3.16248">
        <ele>48.68</ele>
        <time>2012-12-03T11:55:00Z</time>
      </trkpt>
      <trkpt lat="43.20384" lon="3.16258">
        <ele>48.2</ele>
        <time>2012-12-03T11:55:06Z</time>
      </trkpt>
      <trkpt lat="43.20384" lon="3.16283">
        <ele>48.2</ele>
        <time>2012-12-03T11:55:22Z</time>
      </trkpt>
      <trkpt lat="43.20385" lon="3.16305">
        <ele>48.2</ele>
        <time>2012-12-03T11:55:36Z</time>
      </trkpt>
      <trkpt lat="43.20382" lon="3.16326">
        <ele>48.2</ele>
        <time>2012-12-03T11:55:49Z</time>
      </trkpt>
      <trkpt lat="43.20381" lon="3.16327">
        <ele>47.72</ele>
        <time>2012-12-03T11:55:50Z</time>
      </trkpt>
      <trkpt lat="43.20374" lon="3.16345">
        <ele>47.72</ele>
        <time>2012-12-03T11:56:03Z</time>
      </trkpt>
      <trkpt lat="43.20373" lon="3.16347">
        <ele>47.72</ele>
        <time>2012-12-03T11:56:04Z</time>
      </trkpt>
      <trkpt lat="43.20369" lon="3.16365">
        <ele>47.24</ele>
        <time>2012-12-03T11:56:15Z</time>
      </trkpt>
      <trkpt lat="43.20367" lon="3.16371">
        <ele>46.76</ele>
        <time>2012-12-03T11:56:19Z</time>
      </trkpt>
      <trkpt lat="43.20368" lon="3.16376">
        <ele>46.76</ele>
        <time>2012-12-03T11:56:29Z</time>
      </trkpt>
      <trkpt lat="43.20367" lon="3.16376">
        <ele>46.76</ele>
        <time>2012-12-03T11:56:50Z</time>
      </trkpt>
      <trkpt lat="43.20367" lon="3.16377">
        <ele>45.8</ele>
        <time>2012-12-03T11:57:30Z</time>
      </trkpt>
      <trkpt lat="43.20368" lon="3.16375">
        <ele>46.28</ele>
        <time>2012-12-03T11:58:10Z</time>
      </trkpt>
      <trkpt lat="43.20367" lon="3.16375">
        <ele>45.8</ele>
        <time>2012-12-03T11:58:46Z</time>
      </trkpt>
      <trkpt lat="43.20367" lon="3.16376">
        <ele>46.28</ele>
        <time>2012-12-03T11:59:24Z</time>
      </trkpt>
      <trkpt lat="43.20367" lon="3.16376">
        <ele>45.32</ele>
        <time>2012-12-03T12:00:01Z</time>
      </trkpt>
      <trkpt lat="43.20366" lon="3.16376">
        <ele>45.8</ele>
        <time>2012-12-03T12:00:40Z</time>
      </trkpt>
      <trkpt lat="43.20366" lon="3.16376">
        <ele>46.28</ele>
        <time>2012-12-03T12:01:17Z</time>
      </trkpt>
      <trkpt lat="43.20365" lon="3.16376">
        <ele>46.28</ele>
        <time>2012-12-03T12:01:55Z</time>
      </trkpt>
      <trkpt lat="43.20366" lon="3.16376">
        <ele>46.28</ele>
        <time>2012-12-03T12:02:34Z</time>
      </trkpt>
      <trkpt lat="43.20366" lon="3.16376">
        <ele>46.76</ele>
        <time>2012-12-03T12:03:17Z</time>
      </trkpt>
      <trkpt lat="43.20366" lon="3.16377">
        <ele>46.28</ele>
        <time>2012-12-03T12:03:59Z</time>
      </trkpt>
      <trkpt lat="43.20366" lon="3.16377">
        <ele>46.76</ele>
        <time>2012-12-03T12:04:43Z</time>
      </trkpt>
      <trkpt lat="43.20366" lon="3.16377">
        <ele>46.76</ele>
        <time>2012-12-03T12:05:26Z</time>
      </trkpt>
      <trkpt lat="43.20366" lon="3.16377">
        <ele>46.76</ele>
        <time>2012-12-03T12:06:00Z</time>
      </trkpt>
      <trkpt lat="43.20367" lon="3.16377">
        <ele>47.24</ele>
        <time>2012-12-03T12:06:38Z</time>
      </trkpt>
      <trkpt lat="43.20366" lon="3.16377">
        <ele>46.76</ele>
        <time>2012-12-03T12:07:15Z</time>
      </trkpt>
      <trkpt lat="43.20366" lon="3.16377">
        <ele>47.24</ele>
        <time>2012-12-03T12:07:53Z</time>
      </trkpt>
      <trkpt lat="43.20366" lon="3.16377">
        <ele>47.24</ele>
        <time>2012-12-03T12:08:29Z</time>
      </trkpt>
      <trkpt lat="43.20366" lon="3.16377">
        <ele>47.24</ele>
        <time>2012-12-03T12:09:09Z</time>
      </trkpt>
      <trkpt lat="43.20367" lon="3.16377">
        <ele>47.24</ele>
        <time>2012-12-03T12:09:52Z</time>
      </trkpt>
      <trkpt lat="43.20366" lon="3.16377">
        <ele>47.24</ele>
        <time>2012-12-03T12:10:31Z</time>
      </trkpt>
      <trkpt lat="43.20366" lon="3.16377">
        <ele>47.72</ele>
        <time>2012-12-03T12:11:12Z</time>
      </trkpt>
      <trkpt lat="43.20366" lon="3.16377">
        <ele>47.72</ele>
        <time>2012-12-03T12:11:52Z</time>
      </trkpt>
      <trkpt lat="43.20367" lon="3.16377">
        <ele>47.72</ele>
        <time>2012-12-03T12:12:33Z</time>
      </trkpt>
      <trkpt lat="43.20366" lon="3.16376">
        <ele>47.24</ele>
        <time>2012-12-03T12:13:07Z</time>
      </trkpt>
      <trkpt lat="43.20366" lon="3.16376">
        <ele>47.24</ele>
        <time>2012-12-03T12:13:46Z</time>
      </trkpt>
      <trkpt lat="43.20367" lon="3.16377">
        <ele>47.72</ele>
        <time>2012-12-03T12:14:23Z</time>
      </trkpt>
      <trkpt lat="43.20367" lon="3.16377">
        <ele>47.72</ele>
        <time>2012-12-03T12:15:00Z</time>
      </trkpt>
      <trkpt lat="43.20367" lon="3.16377">
        <ele>47.24</ele>
        <time>2012-12-03T12:15:38Z</time>
      </trkpt>
      <trkpt lat="43.20367" lon="3.16378">
        <ele>47.72</ele>
        <time>2012-12-03T12:16:13Z</time>
      </trkpt>
      <trkpt lat="43.20367" lon="3.16378">
        <ele>47.72</ele>
        <time>2012-12-03T12:16:47Z</time>
      </trkpt>
      <trkpt lat="43.20368" lon="3.16377">
        <ele>47.72</ele>
        <time>2012-12-03T12:17:25Z</time>
      </trkpt>
      <trkpt lat="43.20368" lon="3.16377">
        <ele>47.24</ele>
        <time>2012-12-03T12:18:03Z</time>
      </trkpt>
      <trkpt lat="43.20368" lon="3.16376">
        <ele>46.76</ele>
        <time>2012-12-03T12:18:43Z</time>
      </trkpt>
      <trkpt lat="43.20367" lon="3.16376">
        <ele>46.76</ele>
        <time>2012-12-03T12:19:25Z</time>
      </trkpt>
      <trkpt lat="43.20366" lon="3.16376">
        <ele>47.24</ele>
        <time>2012-12-03T12:20:03Z</time>
      </trkpt>
      <trkpt lat="43.20367" lon="3.16376">
        <ele>46.28</ele>
        <time>2012-12-03T12:20:46Z</time>
      </trkpt>
      <trkpt lat="43.20367" lon="3.16376">
        <ele>46.76</ele>
        <time>2012-12-03T12:21:24Z</time>
      </trkpt>
      <trkpt lat="43.20367" lon="3.16376">
        <ele>47.24</ele>
        <time>2012-12-03T12:22:03Z</time>
      </trkpt>
      <trkpt lat="43.20367" lon="3.16376">
        <ele>46.76</ele>
        <time>2012-12-03T12:22:39Z</time>
      </trkpt>
      <trkpt lat="43.20367" lon="3.16377">
        <ele>47.24</ele>
        <time>2012-12-03T12:23:20Z</time>
      </trkpt>
      <trkpt lat="43.20366" lon="3.16377">
        <ele>46.76</ele>
        <time>2012-12-03T12:23:55Z</time>
      </trkpt>
      <trkpt lat="43.20366" lon="3.16377">
        <ele>47.72</ele>
        <time>2012-12-03T12:24:30Z</time>
      </trkpt>
      <trkpt lat="43.20367" lon="3.16377">
        <ele>47.24</ele>
        <time>2012-12-03T12:25:03Z</time>
      </trkpt>
      <trkpt lat="43.20367" lon="3.16377">
        <ele>47.24</ele>
        <time>2012-12-03T12:25:49Z</time>
      </trkpt>
      <trkpt lat="43.20367" lon="3.16377">
        <ele>46.76</ele>
        <time>2012-12-03T12:26:28Z</time>
      </trkpt>
      <trkpt lat="43.20368" lon="3.16376">
        <ele>47.24</ele>
        <time>2012-12-03T12:26:58Z</time>
      </trkpt>
      <trkpt lat="43.20369" lon="3.16376">
        <ele>46.28</ele>
        <time>2012-12-03T12:27:40Z</time>
      </trkpt>
      <trkpt lat="43.20368" lon="3.16376">
        <ele>46.76</ele>
        <time>2012-12-03T12:28:08Z</time>
      </trkpt>
      <trkpt lat="43.20367" lon="3.16375">
        <ele>46.76</ele>
        <time>2012-12-03T12:28:44Z</time>
      </trkpt>
      <trkpt lat="43.20367" lon="3.16375">
        <ele>46.28</ele>
        <time>2012-12-03T12:29:14Z</time>
      </trkpt>
      <trkpt lat="43.20368" lon="3.16375">
        <ele>46.28</ele>
        <time>2012-12-03T12:29:44Z</time>
      </trkpt>
      <trkpt lat="43.20368" lon="3.16376">
        <ele>45.8</ele>
        <time>2012-12-03T12:30:19Z</time>
      </trkpt>
      <trkpt lat="43.20368" lon="3.16377">
        <ele>46.28</ele>
        <time>2012-12-03T12:30:57Z</time>
      </trkpt>
      <trkpt lat="43.20368" lon="3.16376">
        <ele>46.76</ele>
        <time>2012-12-03T12:31:35Z</time>
      </trkpt>
      <trkpt lat="43.20367" lon="3.16376">
        <ele>46.76</ele>
        <time>2012-12-03T12:32:09Z</time>
      </trkpt>
      <trkpt lat="43.20368" lon="3.16375">
        <ele>47.24</ele>
        <time>2012-12-03T12:32:19Z</time>
      </trkpt>
      <trkpt lat="43.20366" lon="3.16376">
        <ele>47.24</ele>
        <time>2012-12-03T12:32:29Z</time>
      </trkpt>
      <trkpt lat="43.20363" lon="3.16384">
        <ele>46.28</ele>
        <time>2012-12-03T12:32:40Z</time>
      </trkpt>
      <trkpt lat="43.2036" lon="3.16393">
        <ele>46.28</ele>
        <time>2012-12-03T12:32:52Z</time>
      </trkpt>
      <trkpt lat="43.20359" lon="3.16397">
        <ele>46.28</ele>
        <time>2012-12-03T12:32:57Z</time>
      </trkpt>
      <trkpt lat="43.20357" lon="3.16414">
        <ele>46.28</ele>
        <time>2012-12-03T12:33:11Z</time>
      </trkpt>
      <trkpt lat="43.20358" lon="3.16421">
        <ele>46.28</ele>
        <time>2012-12-03T12:33:16Z</time>
      </trkpt>
      <trkpt lat="43.20359" lon="3.16427">
        <ele>46.28</ele>
        <time>2012-12-03T12:33:20Z</time>
      </trkpt>
      <trkpt lat="43.20363" lon="3.16441">
        <ele>45.32</ele>
        <time>2012-12-03T12:33:29Z</time>
      </trkpt>
      <trkpt lat="43.20365" lon="3.16456">
        <ele>45.32</ele>
        <time>2012-12-03T12:33:39Z</time>
      </trkpt>
      <trkpt lat="43.20365" lon="3.16461">
        <ele>45.32</ele>
        <time>2012-12-03T12:33:42Z</time>
      </trkpt>
      <trkpt lat="43.20366" lon="3.16467">
        <ele>44.84</ele>
        <time>2012-12-03T12:33:46Z</time>
      </trkpt>
      <trkpt lat="43.20367" lon="3.16469">
        <ele>45.8</ele>
        <time>2012-12-03T12:33:50Z</time>
      </trkpt>
      <trkpt lat="43.20367" lon="3.16476">
        <ele>45.32</ele>
        <time>2012-12-03T12:33:54Z</time>
      </trkpt>
      <trkpt lat="43.20368" lon="3.16493">
        <ele>44.84</ele>
        <time>2012-12-03T12:34:04Z</time>
      </trkpt>
      <trkpt lat="43.20368" lon="3.16501">
        <ele>44.36</ele>
        <time>2012-12-03T12:34:10Z</time>
      </trkpt>
      <trkpt lat="43.20368" lon="3.16521">
        <ele>44.36</ele>
        <time>2012-12-03T12:34:21Z</time>
      </trkpt>
      <trkpt lat="43.2037" lon="3.16546">
        <ele>44.36</ele>
        <time>2012-12-03T12:34:36Z</time>
      </trkpt>
      <trkpt lat="43.20371" lon="3.16569">
        <ele>43.88</ele>
        <time>2012-12-03T12:34:50Z</time>
      </trkpt>
      <trkpt lat="43.20372" lon="3.16587">
        <ele>43.4</ele>
        <time>2012-12-03T12:35:01Z</time>
      </trkpt>
      <trkpt lat="43.20373" lon="3.16596">
        <ele>42.92</ele>
        <time>2012-12-03T12:35:07Z</time>
      </trkpt>
      <trkpt lat="43.20373" lon="3.16611">
        <ele>42.92</ele>
        <time>2012-12-03T12:35:16Z</time>
      </trkpt>
      <trkpt lat="43.20373" lon="3.16624">
        <ele>42.44</ele>
        <time>2012-12-03T12:35:23Z</time>
      </trkpt>
      <trkpt lat="43.20367" lon="3.16648">
        <ele>41.95</ele>
        <time>2012-12-03T12:35:38Z</time>
      </trkpt>
      <trkpt lat="43.20354" lon="3.16664">
        <ele>41.95</ele>
        <time>2012-12-03T12:35:51Z</time>
      </trkpt>
      <trkpt lat="43.20339" lon="3.16678">
        <ele>41.47</ele>
        <time>2012-12-03T12:36:06Z</time>
      </trkpt>
      <trkpt lat="43.20337" lon="3.1668">
        <ele>40.03</ele>
        <time>2012-12-03T12:36:16Z</time>
      </trkpt>
      <trkpt lat="43.20337" lon="3.16681">
        <ele>40.51</ele>
        <time>2012-12-03T12:36:20Z</time>
      </trkpt>
      <trkpt lat="43.20332" lon="3.16689">
        <ele>40.99</ele>
        <time>2012-12-03T12:36:27Z</time>
      </trkpt>
      <trkpt lat="43.20328" lon="3.16693">
        <ele>40.99</ele>
        <time>2012-12-03T12:36:31Z</time>
      </trkpt>
      <trkpt lat="43.20315" lon="3.16705">
        <ele>40.51</ele>
        <time>2012-12-03T12:36:44Z</time>
      </trkpt>
      <trkpt lat="43.20312" lon="3.16711">
        <ele>41.47</ele>
        <time>2012-12-03T12:36:49Z</time>
      </trkpt>
      <trkpt lat="43.20306" lon="3.16719">
        <ele>40.99</ele>
        <time>2012-12-03T12:36:59Z</time>
      </trkpt>
      <trkpt lat="43.20302" lon="3.16724">
        <ele>40.51</ele>
        <time>2012-12-03T12:37:04Z</time>
      </trkpt>
      <trkpt lat="43.20294" lon="3.16739">
        <ele>40.03</ele>
        <time>2012-12-03T12:37:14Z</time>
      </trkpt>
      <trkpt lat="43.20283" lon="3.16756">
        <ele>39.07</ele>
        <time>2012-12-03T12:37:26Z</time>
      </trkpt>
      <trkpt lat="43.20269" lon="3.16773">
        <ele>38.11</ele>
        <time>2012-12-03T12:37:40Z</time>
      </trkpt>
      <trkpt lat="43.20254" lon="3.16787">
        <ele>37.63</ele>
        <time>2012-12-03T12:37:54Z</time>
      </trkpt>
      <trkpt lat="43.20246" lon="3.16792">
        <ele>36.67</ele>
        <time>2012-12-03T12:38:02Z</time>
      </trkpt>
      <trkpt lat="43.20235" lon="3.16812">
        <ele>37.15</ele>
        <time>2012-12-03T12:38:17Z</time>
      </trkpt>
      <trkpt lat="43.20222" lon="3.16829">
        <ele>37.63</ele>
        <time>2012-12-03T12:38:30Z</time>
      </trkpt>
      <trkpt lat="43.20207" lon="3.16842">
        <ele>37.63</ele>
        <time>2012-12-03T12:38:44Z</time>
      </trkpt>
      <trkpt lat="43.20192" lon="3.16852">
        <ele>37.63</ele>
        <time>2012-12-03T12:38:57Z</time>
      </trkpt>
      <trkpt lat="43.20178" lon="3.16863">
        <ele>38.59</ele>
        <time>2012-12-03T12:39:10Z</time>
      </trkpt>
      <trkpt lat="43.20174" lon="3.16868">
        <ele>38.11</ele>
        <time>2012-12-03T12:39:15Z</time>
      </trkpt>
      <trkpt lat="43.20167" lon="3.16878">
        <ele>38.59</ele>
        <time>2012-12-03T12:39:23Z</time>
      </trkpt>
      <trkpt lat="43.20158" lon="3.16884">
        <ele>38.59</ele>
        <time>2012-12-03T12:39:30Z</time>
      </trkpt>
      <trkpt lat="43.20152" lon="3.16894">
        <ele>38.59</ele>
        <time>2012-12-03T12:39:37Z</time>
      </trkpt>
      <trkpt lat="43.20141" lon="3.16914">
        <ele>39.55</ele>
        <time>2012-12-03T12:39:51Z</time>
      </trkpt>
      <trkpt lat="43.20135" lon="3.16931">
        <ele>39.07</ele>
        <time>2012-12-03T12:40:02Z</time>
      </trkpt>
      <trkpt lat="43.20134" lon="3.16945">
        <ele>39.07</ele>
        <time>2012-12-03T12:40:10Z</time>
      </trkpt>
      <trkpt lat="43.20133" lon="3.16953">
        <ele>39.55</ele>
        <time>2012-12-03T12:40:15Z</time>
      </trkpt>
      <trkpt lat="43.20128" lon="3.16975">
        <ele>40.03</ele>
        <time>2012-12-03T12:40:28Z</time>
      </trkpt>
      <trkpt lat="43.2012" lon="3.16997">
        <ele>40.51</ele>
        <time>2012-12-03T12:40:42Z</time>
      </trkpt>
      <trkpt lat="43.20114" lon="3.17015">
        <ele>40.51</ele>
        <time>2012-12-03T12:40:54Z</time>
      </trkpt>
      <trkpt lat="43.2011" lon="3.17022">
        <ele>40.51</ele>
        <time>2012-12-03T12:40:58Z</time>
      </trkpt>
      <trkpt lat="43.20103" lon="3.17037">
        <ele>40.51</ele>
        <time>2012-12-03T12:41:08Z</time>
      </trkpt>
      <trkpt lat="43.20102" lon="3.17045">
        <ele>40.51</ele>
        <time>2012-12-03T12:41:13Z</time>
      </trkpt>
      <trkpt lat="43.201" lon="3.17051">
        <ele>40.51</ele>
        <time>2012-12-03T12:41:17Z</time>
      </trkpt>
      <trkpt lat="43.20094" lon="3.17078">
        <ele>40.99</ele>
        <time>2012-12-03T12:41:32Z</time>
      </trkpt>
      <trkpt lat="43.20091" lon="3.17094">
        <ele>41.47</ele>
        <time>2012-12-03T12:41:41Z</time>
      </trkpt>
      <trkpt lat="43.20087" lon="3.17112">
        <ele>40.51</ele>
        <time>2012-12-03T12:41:51Z</time>
      </trkpt>
      <trkpt lat="43.20084" lon="3.17136">
        <ele>41.95</ele>
        <time>2012-12-03T12:42:05Z</time>
      </trkpt>
      <trkpt lat="43.20084" lon="3.1714">
        <ele>41.47</ele>
        <time>2012-12-03T12:42:11Z</time>
      </trkpt>
      <trkpt lat="43.20084" lon="3.17144">
        <ele>41.47</ele>
        <time>2012-12-03T12:42:14Z</time>
      </trkpt>
      <trkpt lat="43.20083" lon="3.17156">
        <ele>42.44</ele>
        <time>2012-12-03T12:42:21Z</time>
      </trkpt>
      <trkpt lat="43.2008" lon="3.1716">
        <ele>42.44</ele>
        <time>2012-12-03T12:42:28Z</time>
      </trkpt>
      <trkpt lat="43.20078" lon="3.17169">
        <ele>42.44</ele>
        <time>2012-12-03T12:42:33Z</time>
      </trkpt>
      <trkpt lat="43.20076" lon="3.1718">
        <ele>42.44</ele>
        <time>2012-12-03T12:42:39Z</time>
      </trkpt>
      <trkpt lat="43.20077" lon="3.17189">
        <ele>43.4</ele>
        <time>2012-12-03T12:42:44Z</time>
      </trkpt>
      <trkpt lat="43.20079" lon="3.17211">
        <ele>43.88</ele>
        <time>2012-12-03T12:42:55Z</time>
      </trkpt>
      <trkpt lat="43.20084" lon="3.1724">
        <ele>44.36</ele>
        <time>2012-12-03T12:43:11Z</time>
      </trkpt>
      <trkpt lat="43.20084" lon="3.17241">
        <ele>44.36</ele>
        <time>2012-12-03T12:43:12Z</time>
      </trkpt>
      <trkpt lat="43.20092" lon="3.17268">
        <ele>45.32</ele>
        <time>2012-12-03T12:43:26Z</time>
      </trkpt>
      <trkpt lat="43.20096" lon="3.17287">
        <ele>45.32</ele>
        <time>2012-12-03T12:43:38Z</time>
      </trkpt>
      <trkpt lat="43.20098" lon="3.1731">
        <ele>45.32</ele>
        <time>2012-12-03T12:43:52Z</time>
      </trkpt>
      <trkpt lat="43.20097" lon="3.17318">
        <ele>44.84</ele>
        <time>2012-12-03T12:43:56Z</time>
      </trkpt>
      <trkpt lat="43.20095" lon="3.17336">
        <ele>45.32</ele>
        <time>2012-12-03T12:44:07Z</time>
      </trkpt>
      <trkpt lat="43.20093" lon="3.1734">
        <ele>45.8</ele>
        <time>2012-12-03T12:44:10Z</time>
      </trkpt>
      <trkpt lat="43.20092" lon="3.17348">
        <ele>45.8</ele>
        <time>2012-12-03T12:44:15Z</time>
      </trkpt>
      <trkpt lat="43.20086" lon="3.17366">
        <ele>45.8</ele>
        <time>2012-12-03T12:44:26Z</time>
      </trkpt>
      <trkpt lat="43.20084" lon="3.17385">
        <ele>45.8</ele>
        <time>2012-12-03T12:44:37Z</time>
      </trkpt>
      <trkpt lat="43.20081" lon="3.17414">
        <ele>46.28</ele>
        <time>2012-12-03T12:44:53Z</time>
      </trkpt>
      <trkpt lat="43.20079" lon="3.17423">
        <ele>46.76</ele>
        <time>2012-12-03T12:44:59Z</time>
      </trkpt>
      <trkpt lat="43.20076" lon="3.17446">
        <ele>46.76</ele>
        <time>2012-12-03T12:45:12Z</time>
      </trkpt>
      <trkpt lat="43.20075" lon="3.17471">
        <ele>45.8</ele>
        <time>2012-12-03T12:45:26Z</time>
      </trkpt>
      <trkpt lat="43.20076" lon="3.17494">
        <ele>46.28</ele>
        <time>2012-12-03T12:45:39Z</time>
      </trkpt>
      <trkpt lat="43.20076" lon="3.175">
        <ele>45.8</ele>
        <time>2012-12-03T12:45:42Z</time>
      </trkpt>
      <trkpt lat="43.20077" lon="3.17526">
        <ele>46.28</ele>
        <time>2012-12-03T12:45:57Z</time>
      </trkpt>
      <trkpt lat="43.20077" lon="3.17548">
        <ele>46.28</ele>
        <time>2012-12-03T12:46:09Z</time>
      </trkpt>
      <trkpt lat="43.20077" lon="3.17571">
        <ele>47.24</ele>
        <time>2012-12-03T12:46:22Z</time>
      </trkpt>
      <trkpt lat="43.20076" lon="3.17592">
        <ele>47.24</ele>
        <time>2012-12-03T12:46:34Z</time>
      </trkpt>
      <trkpt lat="43.20079" lon="3.17618">
        <ele>48.2</ele>
        <time>2012-12-03T12:46:50Z</time>
      </trkpt>
      <trkpt lat="43.20081" lon="3.17639">
        <ele>46.76</ele>
        <time>2012-12-03T12:47:02Z</time>
      </trkpt>
      <trkpt lat="43.20084" lon="3.17646">
        <ele>47.24</ele>
        <time>2012-12-03T12:47:07Z</time>
      </trkpt>
      <trkpt lat="43.20093" lon="3.17665">
        <ele>46.76</ele>
        <time>2012-12-03T12:47:18Z</time>
      </trkpt>
      <trkpt lat="43.20095" lon="3.17668">
        <ele>46.76</ele>
        <time>2012-12-03T12:47:21Z</time>
      </trkpt>
      <trkpt lat="43.20097" lon="3.17673">
        <ele>45.8</ele>
        <time>2012-12-03T12:47:25Z</time>
      </trkpt>
      <trkpt lat="43.20104" lon="3.17692">
        <ele>46.28</ele>
        <time>2012-12-03T12:47:37Z</time>
      </trkpt>
      <trkpt lat="43.20105" lon="3.17694">
        <ele>45.8</ele>
        <time>2012-12-03T12:47:38Z</time>
      </trkpt>
      <trkpt lat="43.20106" lon="3.17703">
        <ele>45.32</ele>
        <time>2012-12-03T12:47:43Z</time>
      </trkpt>
      <trkpt lat="43.20108" lon="3.17712">
        <ele>44.36</ele>
        <time>2012-12-03T12:47:49Z</time>
      </trkpt>
      <trkpt lat="43.20109" lon="3.17732">
        <ele>43.88</ele>
        <time>2012-12-03T12:48:02Z</time>
      </trkpt>
      <trkpt lat="43.2011" lon="3.17741">
        <ele>43.4</ele>
        <time>2012-12-03T12:48:08Z</time>
      </trkpt>
      <trkpt lat="43.20113" lon="3.17764">
        <ele>42.44</ele>
        <time>2012-12-03T12:48:21Z</time>
      </trkpt>
      <trkpt lat="43.20113" lon="3.17766">
        <ele>41.47</ele>
        <time>2012-12-03T12:48:23Z</time>
      </trkpt>
      <trkpt lat="43.20114" lon="3.17775">
        <ele>40.99</ele>
        <time>2012-12-03T12:48:28Z</time>
      </trkpt>
      <trkpt lat="43.20113" lon="3.17797">
        <ele>40.03</ele>
        <time>2012-12-03T12:48:41Z</time>
      </trkpt>
      <trkpt lat="43.20113" lon="3.17813">
        <ele>39.07</ele>
        <time>2012-12-03T12:48:52Z</time>
      </trkpt>
      <trkpt lat="43.20114" lon="3.17821">
        <ele>39.07</ele>
        <time>2012-12-03T12:48:56Z</time>
      </trkpt>
      <trkpt lat="43.20113" lon="3.1783">
        <ele>38.11</ele>
        <time>2012-12-03T12:49:01Z</time>
      </trkpt>
      <trkpt lat="43.20114" lon="3.17839">
        <ele>38.11</ele>
        <time>2012-12-03T12:49:07Z</time>
      </trkpt>
      <trkpt lat="43.20116" lon="3.17844">
        <ele>37.63</ele>
        <time>2012-12-03T12:49:11Z</time>
      </trkpt>
      <trkpt lat="43.2012" lon="3.17857">
        <ele>37.15</ele>
        <time>2012-12-03T12:49:19Z</time>
      </trkpt>
      <trkpt lat="43.20124" lon="3.17872">
        <ele>36.19</ele>
        <time>2012-12-03T12:49:28Z</time>
      </trkpt>
      <trkpt lat="43.20129" lon="3.1789">
        <ele>34.74</ele>
        <time>2012-12-03T12:49:40Z</time>
      </trkpt>
      <trkpt lat="43.20137" lon="3.17909">
        <ele>33.3</ele>
        <time>2012-12-03T12:49:53Z</time>
      </trkpt>
      <trkpt lat="43.20139" lon="3.17916">
        <ele>33.3</ele>
        <time>2012-12-03T12:49:57Z</time>
      </trkpt>
      <trkpt lat="43.20139" lon="3.17924">
        <ele>32.34</ele>
        <time>2012-12-03T12:50:02Z</time>
      </trkpt>
      <trkpt lat="43.2014" lon="3.17933">
        <ele>31.38</ele>
        <time>2012-12-03T12:50:07Z</time>
      </trkpt>
      <trkpt lat="43.20132" lon="3.17945">
        <ele>30.42</ele>
        <time>2012-12-03T12:50:20Z</time>
      </trkpt>
      <trkpt lat="43.20132" lon="3.17945">
        <ele>30.9</ele>
        <time>2012-12-03T12:50:24Z</time>
      </trkpt>
      <trkpt lat="43.20129" lon="3.17947">
        <ele>30.42</ele>
        <time>2012-12-03T12:50:26Z</time>
      </trkpt>
      <trkpt lat="43.20112" lon="3.17949">
        <ele>29.46</ele>
        <time>2012-12-03T12:50:39Z</time>
      </trkpt>
      <trkpt lat="43.20095" lon="3.17942">
        <ele>28.02</ele>
        <time>2012-12-03T12:50:53Z</time>
      </trkpt>
      <trkpt lat="43.20093" lon="3.17942">
        <ele>27.53</ele>
        <time>2012-12-03T12:50:55Z</time>
      </trkpt>
      <trkpt lat="43.20089" lon="3.1794">
        <ele>27.05</ele>
        <time>2012-12-03T12:50:59Z</time>
      </trkpt>
      <trkpt lat="43.20075" lon="3.17946">
        <ele>25.61</ele>
        <time>2012-12-03T12:51:13Z</time>
      </trkpt>
      <trkpt lat="43.20062" lon="3.17957">
        <ele>24.17</ele>
        <time>2012-12-03T12:51:26Z</time>
      </trkpt>
      <trkpt lat="43.20047" lon="3.17969">
        <ele>22.73</ele>
        <time>2012-12-03T12:51:40Z</time>
      </trkpt>
      <trkpt lat="43.20037" lon="3.17976">
        <ele>21.77</ele>
        <time>2012-12-03T12:51:48Z</time>
      </trkpt>
      <trkpt lat="43.20034" lon="3.1798">
        <ele>21.77</ele>
        <time>2012-12-03T12:51:52Z</time>
      </trkpt>
      <trkpt lat="43.20024" lon="3.17987">
        <ele>20.32</ele>
        <time>2012-12-03T12:52:01Z</time>
      </trkpt>
      <trkpt lat="43.20017" lon="3.17993">
        <ele>19.36</ele>
        <time>2012-12-03T12:52:08Z</time>
      </trkpt>
      <trkpt lat="43.20004" lon="3.18008">
        <ele>17.92</ele>
        <time>2012-12-03T12:52:21Z</time>
      </trkpt>
      <trkpt lat="43.20002" lon="3.18012">
        <ele>17.92</ele>
        <time>2012-12-03T12:52:24Z</time>
      </trkpt>
      <trkpt lat="43.19996" lon="3.1803">
        <ele>16.48</ele>
        <time>2012-12-03T12:52:37Z</time>
      </trkpt>
      <trkpt lat="43.19987" lon="3.18052">
        <ele>16</ele>
        <time>2012-12-03T12:52:50Z</time>
      </trkpt>
      <trkpt lat="43.19982" lon="3.1806">
        <ele>15.04</ele>
        <time>2012-12-03T12:52:57Z</time>
      </trkpt>
      <trkpt lat="43.19981" lon="3.18062">
        <ele>15.04</ele>
        <time>2012-12-03T12:52:59Z</time>
      </trkpt>
      <trkpt lat="43.19969" lon="3.1808">
        <ele>14.08</ele>
        <time>2012-12-03T12:53:13Z</time>
      </trkpt>
      <trkpt lat="43.19963" lon="3.18086">
        <ele>13.6</ele>
        <time>2012-12-03T12:53:18Z</time>
      </trkpt>
      <trkpt lat="43.19954" lon="3.181">
        <ele>12.15</ele>
        <time>2012-12-03T12:53:31Z</time>
      </trkpt>
      <trkpt lat="43.19954" lon="3.18117">
        <ele>11.67</ele>
        <time>2012-12-03T12:53:42Z</time>
      </trkpt>
      <trkpt lat="43.19958" lon="3.18135">
        <ele>10.71</ele>
        <time>2012-12-03T12:53:53Z</time>
      </trkpt>
      <trkpt lat="43.19947" lon="3.18162">
        <ele>10.23</ele>
        <time>2012-12-03T12:54:11Z</time>
      </trkpt>
      <trkpt lat="43.19946" lon="3.18163">
        <ele>9.75</ele>
        <time>2012-12-03T12:54:12Z</time>
      </trkpt>
      <trkpt lat="43.19935" lon="3.18177">
        <ele>9.27</ele>
        <time>2012-12-03T12:54:24Z</time>
      </trkpt>
      <trkpt lat="43.1993" lon="3.18184">
        <ele>8.79</ele>
        <time>2012-12-03T12:54:31Z</time>
      </trkpt>
      <trkpt lat="43.19917" lon="3.18202">
        <ele>9.27</ele>
        <time>2012-12-03T12:54:46Z</time>
      </trkpt>
      <trkpt lat="43.19909" lon="3.18213">
        <ele>8.79</ele>
        <time>2012-12-03T12:54:55Z</time>
      </trkpt>
      <trkpt lat="43.19898" lon="3.18229">
        <ele>8.79</ele>
        <time>2012-12-03T12:55:08Z</time>
      </trkpt>
      <trkpt lat="43.19893" lon="3.18234">
        <ele>8.79</ele>
        <time>2012-12-03T12:55:14Z</time>
      </trkpt>
      <trkpt lat="43.19891" lon="3.18239">
        <ele>8.79</ele>
        <time>2012-12-03T12:55:18Z</time>
      </trkpt>
      <trkpt lat="43.19888" lon="3.18243">
        <ele>8.79</ele>
        <time>2012-12-03T12:55:21Z</time>
      </trkpt>
      <trkpt lat="43.19876" lon="3.18262">
        <ele>7.83</ele>
        <time>2012-12-03T12:55:35Z</time>
      </trkpt>
      <trkpt lat="43.19868" lon="3.18273">
        <ele>7.35</ele>
        <time>2012-12-03T12:55:45Z</time>
      </trkpt>
      <trkpt lat="43.19865" lon="3.18277">
        <ele>7.35</ele>
        <time>2012-12-03T12:55:48Z</time>
      </trkpt>
      <trkpt lat="43.19864" lon="3.1828">
        <ele>7.35</ele>
        <time>2012-12-03T12:55:51Z</time>
      </trkpt>
      <trkpt lat="43.19862" lon="3.18282">
        <ele>7.35</ele>
        <time>2012-12-03T12:55:53Z</time>
      </trkpt>
      <trkpt lat="43.19857" lon="3.18289">
        <ele>7.35</ele>
        <time>2012-12-03T12:55:58Z</time>
      </trkpt>
      <trkpt lat="43.19844" lon="3.18307">
        <ele>6.87</ele>
        <time>2012-12-03T12:56:13Z</time>
      </trkpt>
      <trkpt lat="43.19835" lon="3.18322">
        <ele>5.42</ele>
        <time>2012-12-03T12:56:25Z</time>
      </trkpt>
      <trkpt lat="43.19825" lon="3.18339">
        <ele>5.91</ele>
        <time>2012-12-03T12:56:39Z</time>
      </trkpt>
      <trkpt lat="43.19819" lon="3.18352">
        <ele>5.42</ele>
        <time>2012-12-03T12:56:48Z</time>
      </trkpt>
      <trkpt lat="43.19811" lon="3.18363">
        <ele>5.42</ele>
        <time>2012-12-03T12:57:00Z</time>
      </trkpt>
      <trkpt lat="43.19808" lon="3.18366">
        <ele>5.42</ele>
        <time>2012-12-03T12:57:04Z</time>
      </trkpt>
      <trkpt lat="43.19806" lon="3.18372">
        <ele>5.42</ele>
        <time>2012-12-03T12:57:11Z</time>
      </trkpt>
      <trkpt lat="43.19805" lon="3.18374">
        <ele>5.42</ele>
        <time>2012-12-03T12:57:13Z</time>
      </trkpt>
      <trkpt lat="43.19799" lon="3.1839">
        <ele>7.35</ele>
        <time>2012-12-03T12:57:24Z</time>
      </trkpt>
      <trkpt lat="43.19799" lon="3.18394">
        <ele>7.35</ele>
        <time>2012-12-03T12:57:27Z</time>
      </trkpt>
      <trkpt lat="43.19799" lon="3.184">
        <ele>7.35</ele>
        <time>2012-12-03T12:57:31Z</time>
      </trkpt>
      <trkpt lat="43.19799" lon="3.18405">
        <ele>7.35</ele>
        <time>2012-12-03T12:57:34Z</time>
      </trkpt>
      <trkpt lat="43.198" lon="3.18418">
        <ele>7.83</ele>
        <time>2012-12-03T12:57:42Z</time>
      </trkpt>
      <trkpt lat="43.19799" lon="3.18427">
        <ele>8.31</ele>
        <time>2012-12-03T12:57:47Z</time>
      </trkpt>
      <trkpt lat="43.19801" lon="3.1844">
        <ele>8.31</ele>
        <time>2012-12-03T12:57:56Z</time>
      </trkpt>
      <trkpt lat="43.19801" lon="3.18446">
        <ele>8.31</ele>
        <time>2012-12-03T12:57:59Z</time>
      </trkpt>
      <trkpt lat="43.198" lon="3.18459">
        <ele>9.27</ele>
        <time>2012-12-03T12:58:07Z</time>
      </trkpt>
      <trkpt lat="43.198" lon="3.18463">
        <ele>8.79</ele>
        <time>2012-12-03T12:58:09Z</time>
      </trkpt>
      <trkpt lat="43.19801" lon="3.18484">
        <ele>8.79</ele>
        <time>2012-12-03T12:58:21Z</time>
      </trkpt>
      <trkpt lat="43.19801" lon="3.1849">
        <ele>9.27</ele>
        <time>2012-12-03T12:58:25Z</time>
      </trkpt>
      <trkpt lat="43.19798" lon="3.18513">
        <ele>10.23</ele>
        <time>2012-12-03T12:58:36Z</time>
      </trkpt>
      <trkpt lat="43.19797" lon="3.18517">
        <ele>10.23</ele>
        <time>2012-12-03T12:58:40Z</time>
      </trkpt>
      <trkpt lat="43.19795" lon="3.18524">
        <ele>9.75</ele>
        <time>2012-12-03T12:58:45Z</time>
      </trkpt>
      <trkpt lat="43.19791" lon="3.18532">
        <ele>9.75</ele>
        <time>2012-12-03T12:58:50Z</time>
      </trkpt>
      <trkpt lat="43.19789" lon="3.18541">
        <ele>9.75</ele>
        <time>2012-12-03T12:58:55Z</time>
      </trkpt>
      <trkpt lat="43.1978" lon="3.18557">
        <ele>9.27</ele>
        <time>2012-12-03T12:59:06Z</time>
      </trkpt>
      <trkpt lat="43.19779" lon="3.18562">
        <ele>9.27</ele>
        <time>2012-12-03T12:59:09Z</time>
      </trkpt>
      <trkpt lat="43.19775" lon="3.18567">
        <ele>9.27</ele>
        <time>2012-12-03T12:59:13Z</time>
      </trkpt>
      <trkpt lat="43.19771" lon="3.18581">
        <ele>8.79</ele>
        <time>2012-12-03T12:59:22Z</time>
      </trkpt>
      <trkpt lat="43.19769" lon="3.18588">
        <ele>8.79</ele>
        <time>2012-12-03T12:59:26Z</time>
      </trkpt>
      <trkpt lat="43.19768" lon="3.1861">
        <ele>8.31</ele>
        <time>2012-12-03T12:59:39Z</time>
      </trkpt>
      <trkpt lat="43.19766" lon="3.18634">
        <ele>7.83</ele>
        <time>2012-12-03T12:59:52Z</time>
      </trkpt>
      <trkpt lat="43.19771" lon="3.18658">
        <ele>7.83</ele>
        <time>2012-12-03T13:00:06Z</time>
      </trkpt>
      <trkpt lat="43.19771" lon="3.18668">
        <ele>7.35</ele>
        <time>2012-12-03T13:00:13Z</time>
      </trkpt>
      <trkpt lat="43.19772" lon="3.18678">
        <ele>6.39</ele>
        <time>2012-12-03T13:00:20Z</time>
      </trkpt>
      <trkpt lat="43.19773" lon="3.18681">
        <ele>5.91</ele>
        <time>2012-12-03T13:00:24Z</time>
      </trkpt>
      <trkpt lat="43.19782" lon="3.187">
        <ele>4.94</ele>
        <time>2012-12-03T13:00:36Z</time>
      </trkpt>
      <trkpt lat="43.19792" lon="3.18719">
        <ele>5.42</ele>
        <time>2012-12-03T13:00:48Z</time>
      </trkpt>
      <trkpt lat="43.19796" lon="3.18726">
        <ele>4.46</ele>
        <time>2012-12-03T13:00:53Z</time>
      </trkpt>
      <trkpt lat="43.19797" lon="3.18739">
        <ele>4.94</ele>
        <time>2012-12-03T13:00:59Z</time>
      </trkpt>
      <trkpt lat="43.19799" lon="3.1875">
        <ele>5.91</ele>
        <time>2012-12-03T13:01:06Z</time>
      </trkpt>
      <trkpt lat="43.19796" lon="3.18776">
        <ele>6.39</ele>
        <time>2012-12-03T13:01:21Z</time>
      </trkpt>
      <trkpt lat="43.19796" lon="3.18778">
        <ele>6.39</ele>
        <time>2012-12-03T13:01:22Z</time>
      </trkpt>
      <trkpt lat="43.19793" lon="3.18799">
        <ele>7.35</ele>
        <time>2012-12-03T13:01:35Z</time>
      </trkpt>
      <trkpt lat="43.19789" lon="3.18816">
        <ele>9.27</ele>
        <time>2012-12-03T13:01:47Z</time>
      </trkpt>
      <trkpt lat="43.19788" lon="3.18816">
        <ele>8.31</ele>
        <time>2012-12-03T13:02:01Z</time>
      </trkpt>
      <trkpt lat="43.19788" lon="3.18818">
        <ele>8.31</ele>
        <time>2012-12-03T13:02:26Z</time>
      </trkpt>
      <trkpt lat="43.19787" lon="3.18826">
        <ele>9.27</ele>
        <time>2012-12-03T13:02:31Z</time>
      </trkpt>
      <trkpt lat="43.19787" lon="3.18847">
        <ele>7.83</ele>
        <time>2012-12-03T13:02:44Z</time>
      </trkpt>
      <trkpt lat="43.19786" lon="3.18853">
        <ele>8.31</ele>
        <time>2012-12-03T13:02:55Z</time>
      </trkpt>
      <trkpt lat="43.19776" lon="3.18867">
        <ele>7.83</ele>
        <time>2012-12-03T13:03:07Z</time>
      </trkpt>
      <trkpt lat="43.19769" lon="3.18876">
        <ele>7.83</ele>
        <time>2012-12-03T13:03:16Z</time>
      </trkpt>
      <trkpt lat="43.19763" lon="3.18883">
        <ele>7.35</ele>
        <time>2012-12-03T13:03:21Z</time>
      </trkpt>
      <trkpt lat="43.19749" lon="3.18894">
        <ele>7.83</ele>
        <time>2012-12-03T13:03:33Z</time>
      </trkpt>
      <trkpt lat="43.19744" lon="3.18895">
        <ele>6.87</ele>
        <time>2012-12-03T13:03:55Z</time>
      </trkpt>
      <trkpt lat="43.19743" lon="3.18896">
        <ele>8.31</ele>
        <time>2012-12-03T13:04:10Z</time>
      </trkpt>
      <trkpt lat="43.19743" lon="3.18896">
        <ele>8.79</ele>
        <time>2012-12-03T13:04:19Z</time>
      </trkpt>
      <trkpt lat="43.19739" lon="3.18903">
        <ele>7.35</ele>
        <time>2012-12-03T13:04:26Z</time>
      </trkpt>
      <trkpt lat="43.19734" lon="3.18908">
        <ele>7.83</ele>
        <time>2012-12-03T13:04:42Z</time>
      </trkpt>
      <trkpt lat="43.19731" lon="3.18909">
        <ele>6.87</ele>
        <time>2012-12-03T13:04:50Z</time>
      </trkpt>
      <trkpt lat="43.19724" lon="3.18913">
        <ele>7.35</ele>
        <time>2012-12-03T13:05:02Z</time>
      </trkpt>
      <trkpt lat="43.19724" lon="3.18913">
        <ele>6.87</ele>
        <time>2012-12-03T13:05:03Z</time>
      </trkpt>
      <trkpt lat="43.1972" lon="3.18915">
        <ele>7.83</ele>
        <time>2012-12-03T13:05:07Z</time>
      </trkpt>
      <trkpt lat="43.19719" lon="3.18916">
        <ele>7.83</ele>
        <time>2012-12-03T13:05:09Z</time>
      </trkpt>
      <trkpt lat="43.19717" lon="3.18917">
        <ele>7.35</ele>
        <time>2012-12-03T13:05:11Z</time>
      </trkpt>
      <trkpt lat="43.19712" lon="3.1892">
        <ele>7.35</ele>
        <time>2012-12-03T13:05:24Z</time>
      </trkpt>
      <trkpt lat="43.19705" lon="3.1892">
        <ele>8.31</ele>
        <time>2012-12-03T13:05:37Z</time>
      </trkpt>
      <trkpt lat="43.19703" lon="3.1892">
        <ele>8.31</ele>
        <time>2012-12-03T13:05:39Z</time>
      </trkpt>
      <trkpt lat="43.19701" lon="3.1892">
        <ele>8.31</ele>
        <time>2012-12-03T13:05:42Z</time>
      </trkpt>
      <trkpt lat="43.19696" lon="3.1892">
        <ele>8.31</ele>
        <time>2012-12-03T13:05:46Z</time>
      </trkpt>
      <trkpt lat="43.19693" lon="3.18917">
        <ele>9.27</ele>
        <time>2012-12-03T13:05:50Z</time>
      </trkpt>
      <trkpt lat="43.19687" lon="3.18909">
        <ele>12.15</ele>
        <time>2012-12-03T13:06:03Z</time>
      </trkpt>
      <trkpt lat="43.19686" lon="3.18908">
        <ele>12.15</ele>
        <time>2012-12-03T13:06:04Z</time>
      </trkpt>
      <trkpt lat="43.1968" lon="3.18903">
        <ele>12.63</ele>
        <time>2012-12-03T13:06:11Z</time>
      </trkpt>
      <trkpt lat="43.19673" lon="3.18888">
        <ele>14.56</ele>
        <time>2012-12-03T13:06:25Z</time>
      </trkpt>
      <trkpt lat="43.19672" lon="3.18886">
        <ele>14.56</ele>
        <time>2012-12-03T13:06:39Z</time>
      </trkpt>
      <trkpt lat="43.19673" lon="3.18886">
        <ele>13.6</ele>
        <time>2012-12-03T13:07:00Z</time>
      </trkpt>
      <trkpt lat="43.1967" lon="3.18887">
        <ele>15.52</ele>
        <time>2012-12-03T13:07:04Z</time>
      </trkpt>
      <trkpt lat="43.19667" lon="3.18888">
        <ele>15.04</ele>
        <time>2012-12-03T13:07:07Z</time>
      </trkpt>
      <trkpt lat="43.19663" lon="3.18887">
        <ele>15.52</ele>
        <time>2012-12-03T13:07:10Z</time>
      </trkpt>
      <trkpt lat="43.1966" lon="3.18885">
        <ele>16</ele>
        <time>2012-12-03T13:07:13Z</time>
      </trkpt>
      <trkpt lat="43.19658" lon="3.18882">
        <ele>16</ele>
        <time>2012-12-03T13:07:16Z</time>
      </trkpt>
      <trkpt lat="43.19655" lon="3.18877">
        <ele>16.96</ele>
        <time>2012-12-03T13:07:20Z</time>
      </trkpt>
      <trkpt lat="43.19651" lon="3.18872">
        <ele>17.92</ele>
        <time>2012-12-03T13:07:25Z</time>
      </trkpt>
      <trkpt lat="43.19639" lon="3.18859">
        <ele>18.88</ele>
        <time>2012-12-03T13:07:38Z</time>
      </trkpt>
      <trkpt lat="43.19624" lon="3.18849">
        <ele>19.84</ele>
        <time>2012-12-03T13:07:52Z</time>
      </trkpt>
      <trkpt lat="43.19616" lon="3.18842">
        <ele>20.81</ele>
        <time>2012-12-03T13:08:04Z</time>
      </trkpt>
      <trkpt lat="43.19617" lon="3.18843">
        <ele>20.32</ele>
        <time>2012-12-03T13:08:10Z</time>
      </trkpt>
      <trkpt lat="43.19615" lon="3.18843">
        <ele>20.81</ele>
        <time>2012-12-03T13:08:19Z</time>
      </trkpt>
      <trkpt lat="43.1962" lon="3.18843">
        <ele>20.81</ele>
        <time>2012-12-03T13:08:31Z</time>
      </trkpt>
      <trkpt lat="43.19615" lon="3.18842">
        <ele>19.84</ele>
        <time>2012-12-03T13:08:36Z</time>
      </trkpt>
      <trkpt lat="43.19612" lon="3.1884">
        <ele>19.84</ele>
        <time>2012-12-03T13:08:40Z</time>
      </trkpt>
      <trkpt lat="43.19605" lon="3.18835">
        <ele>19.36</ele>
        <time>2012-12-03T13:08:45Z</time>
      </trkpt>
      <trkpt lat="43.19603" lon="3.18834">
        <ele>18.88</ele>
        <time>2012-12-03T13:08:47Z</time>
      </trkpt>
      <trkpt lat="43.19588" lon="3.18824">
        <ele>17.44</ele>
        <time>2012-12-03T13:08:59Z</time>
      </trkpt>
      <trkpt lat="43.19573" lon="3.18814">
        <ele>16.96</ele>
        <time>2012-12-03T13:09:10Z</time>
      </trkpt>
      <trkpt lat="43.19557" lon="3.188">
        <ele>16</ele>
        <time>2012-12-03T13:09:25Z</time>
      </trkpt>
      <trkpt lat="43.19542" lon="3.18789">
        <ele>15.52</ele>
        <time>2012-12-03T13:09:38Z</time>
      </trkpt>
      <trkpt lat="43.19527" lon="3.18781">
        <ele>16</ele>
        <time>2012-12-03T13:09:51Z</time>
      </trkpt>
      <trkpt lat="43.19525" lon="3.18779">
        <ele>15.52</ele>
        <time>2012-12-03T13:09:53Z</time>
      </trkpt>
      <trkpt lat="43.19519" lon="3.18773">
        <ele>15.52</ele>
        <time>2012-12-03T13:09:58Z</time>
      </trkpt>
      <trkpt lat="43.19516" lon="3.18771">
        <ele>15.52</ele>
        <time>2012-12-03T13:10:00Z</time>
      </trkpt>
      <trkpt lat="43.19512" lon="3.18769">
        <ele>15.52</ele>
        <time>2012-12-03T13:10:04Z</time>
      </trkpt>
      <trkpt lat="43.19507" lon="3.18764">
        <ele>15.04</ele>
        <time>2012-12-03T13:10:09Z</time>
      </trkpt>
      <trkpt lat="43.19503" lon="3.1876">
        <ele>15.52</ele>
        <time>2012-12-03T13:10:13Z</time>
      </trkpt>
      <trkpt lat="43.19499" lon="3.18758">
        <ele>15.04</ele>
        <time>2012-12-03T13:10:16Z</time>
      </trkpt>
      <trkpt lat="43.19484" lon="3.18748">
        <ele>15.04</ele>
        <time>2012-12-03T13:10:31Z</time>
      </trkpt>
      <trkpt lat="43.19485" lon="3.18746">
        <ele>14.56</ele>
        <time>2012-12-03T13:10:39Z</time>
      </trkpt>
      <trkpt lat="43.19482" lon="3.18745">
        <ele>15.04</ele>
        <time>2012-12-03T13:10:41Z</time>
      </trkpt>
      <trkpt lat="43.1947" lon="3.18741">
        <ele>15.52</ele>
        <time>2012-12-03T13:10:52Z</time>
      </trkpt>
      <trkpt lat="43.19461" lon="3.18734">
        <ele>15.04</ele>
        <time>2012-12-03T13:11:03Z</time>
      </trkpt>
      <trkpt lat="43.19466" lon="3.18734">
        <ele>15.04</ele>
        <time>2012-12-03T13:11:15Z</time>
      </trkpt>
      <trkpt lat="43.19464" lon="3.18734">
        <ele>15.52</ele>
        <time>2012-12-03T13:11:17Z</time>
      </trkpt>
      <trkpt lat="43.19458" lon="3.18735">
        <ele>15.52</ele>
        <time>2012-12-03T13:11:21Z</time>
      </trkpt>
      <trkpt lat="43.19454" lon="3.18732">
        <ele>15.52</ele>
        <time>2012-12-03T13:11:25Z</time>
      </trkpt>
      <trkpt lat="43.19444" lon="3.18725">
        <ele>16.48</ele>
        <time>2012-12-03T13:11:34Z</time>
      </trkpt>
      <trkpt lat="43.19434" lon="3.18717">
        <ele>16.48</ele>
        <time>2012-12-03T13:11:43Z</time>
      </trkpt>
      <trkpt lat="43.19415" lon="3.18715">
        <ele>16</ele>
        <time>2012-12-03T13:11:59Z</time>
      </trkpt>
      <trkpt lat="43.19396" lon="3.18724">
        <ele>15.04</ele>
        <time>2012-12-03T13:12:14Z</time>
      </trkpt>
      <trkpt lat="43.1938" lon="3.18721">
        <ele>15.04</ele>
        <time>2012-12-03T13:12:27Z</time>
      </trkpt>
      <trkpt lat="43.19367" lon="3.1871">
        <ele>14.56</ele>
        <time>2012-12-03T13:12:40Z</time>
      </trkpt>
      <trkpt lat="43.19366" lon="3.18709">
        <ele>16.48</ele>
        <time>2012-12-03T13:12:45Z</time>
      </trkpt>
      <trkpt lat="43.19364" lon="3.18707">
        <ele>12.15</ele>
        <time>2012-12-03T13:12:47Z</time>
      </trkpt>
      <trkpt lat="43.19363" lon="3.18706">
        <ele>14.08</ele>
        <time>2012-12-03T13:12:48Z</time>
      </trkpt>
      <trkpt lat="43.19352" lon="3.18704">
        <ele>15.52</ele>
        <time>2012-12-03T13:13:00Z</time>
      </trkpt>
      <trkpt lat="43.19339" lon="3.18703">
        <ele>16</ele>
        <time>2012-12-03T13:13:14Z</time>
      </trkpt>
      <trkpt lat="43.19336" lon="3.18705">
        <ele>16.96</ele>
        <time>2012-12-03T13:13:19Z</time>
      </trkpt>
      <trkpt lat="43.1933" lon="3.18712">
        <ele>16.96</ele>
        <time>2012-12-03T13:13:33Z</time>
      </trkpt>
      <trkpt lat="43.1933" lon="3.18712">
        <ele>12.63</ele>
        <time>2012-12-03T13:13:34Z</time>
      </trkpt>
      <trkpt lat="43.1933" lon="3.18713">
        <ele>21.29</ele>
        <time>2012-12-03T13:13:35Z</time>
      </trkpt>
      <trkpt lat="43.19329" lon="3.18713">
        <ele>17.92</ele>
        <time>2012-12-03T13:13:36Z</time>
      </trkpt>
      <trkpt lat="43.19329" lon="3.18714">
        <ele>17.92</ele>
        <time>2012-12-03T13:13:37Z</time>
      </trkpt>
      <trkpt lat="43.19323" lon="3.18719">
        <ele>18.88</ele>
        <time>2012-12-03T13:13:44Z</time>
      </trkpt>
      <trkpt lat="43.19318" lon="3.18722">
        <ele>19.84</ele>
        <time>2012-12-03T13:13:49Z</time>
      </trkpt>
      <trkpt lat="43.19315" lon="3.18722">
        <ele>20.81</ele>
        <time>2012-12-03T13:13:58Z</time>
      </trkpt>
      <trkpt lat="43.19306" lon="3.18724">
        <ele>21.77</ele>
        <time>2012-12-03T13:14:06Z</time>
      </trkpt>
      <trkpt lat="43.19298" lon="3.18728">
        <ele>22.25</ele>
        <time>2012-12-03T13:14:15Z</time>
      </trkpt>
      <trkpt lat="43.19298" lon="3.18728">
        <ele>22.25</ele>
        <time>2012-12-03T13:14:16Z</time>
      </trkpt>
      <trkpt lat="43.19292" lon="3.18726">
        <ele>22.25</ele>
        <time>2012-12-03T13:14:22Z</time>
      </trkpt>
      <trkpt lat="43.19288" lon="3.18727">
        <ele>21.77</ele>
        <time>2012-12-03T13:14:26Z</time>
      </trkpt>
      <trkpt lat="43.19284" lon="3.18718">
        <ele>21.77</ele>
        <time>2012-12-03T13:14:36Z</time>
      </trkpt>
      <trkpt lat="43.19284" lon="3.18718">
        <ele>22.25</ele>
        <time>2012-12-03T13:14:52Z</time>
      </trkpt>
      <trkpt lat="43.19284" lon="3.18718">
        <ele>22.25</ele>
        <time>2012-12-03T13:15:07Z</time>
      </trkpt>
      <trkpt lat="43.19284" lon="3.18717">
        <ele>21.77</ele>
        <time>2012-12-03T13:15:19Z</time>
      </trkpt>
      <trkpt lat="43.19286" lon="3.18719">
        <ele>21.29</ele>
        <time>2012-12-03T13:15:21Z</time>
      </trkpt>
      <trkpt lat="43.19287" lon="3.1872">
        <ele>21.77</ele>
        <time>2012-12-03T13:15:24Z</time>
      </trkpt>
      <trkpt lat="43.1928" lon="3.18727">
        <ele>22.25</ele>
        <time>2012-12-03T13:15:33Z</time>
      </trkpt>
      <trkpt lat="43.19272" lon="3.18734">
        <ele>24.17</ele>
        <time>2012-12-03T13:15:44Z</time>
      </trkpt>
      <trkpt lat="43.19263" lon="3.18732">
        <ele>25.61</ele>
        <time>2012-12-03T13:15:57Z</time>
      </trkpt>
      <trkpt lat="43.19261" lon="3.18735">
        <ele>26.09</ele>
        <time>2012-12-03T13:16:12Z</time>
      </trkpt>
      <trkpt lat="43.19259" lon="3.18731">
        <ele>26.57</ele>
        <time>2012-12-03T13:16:23Z</time>
      </trkpt>
      <trkpt lat="43.19257" lon="3.18732">
        <ele>26.09</ele>
        <time>2012-12-03T13:16:34Z</time>
      </trkpt>
      <trkpt lat="43.19253" lon="3.1873">
        <ele>28.5</ele>
        <time>2012-12-03T13:16:46Z</time>
      </trkpt>
      <trkpt lat="43.19252" lon="3.18731">
        <ele>28.02</ele>
        <time>2012-12-03T13:17:13Z</time>
      </trkpt>
      <trkpt lat="43.19251" lon="3.18731">
        <ele>29.46</ele>
        <time>2012-12-03T13:17:33Z</time>
      </trkpt>
      <trkpt lat="43.19245" lon="3.18732">
        <ele>30.9</ele>
        <time>2012-12-03T13:17:46Z</time>
      </trkpt>
      <trkpt lat="43.19246" lon="3.18731">
        <ele>31.38</ele>
        <time>2012-12-03T13:18:03Z</time>
      </trkpt>
      <trkpt lat="43.19247" lon="3.1873">
        <ele>29.94</ele>
        <time>2012-12-03T13:18:24Z</time>
      </trkpt>
      <trkpt lat="43.19245" lon="3.18731">
        <ele>31.38</ele>
        <time>2012-12-03T13:18:37Z</time>
      </trkpt>
      <trkpt lat="43.19245" lon="3.18731">
        <ele>29.94</ele>
        <time>2012-12-03T13:18:48Z</time>
      </trkpt>
      <trkpt lat="43.19245" lon="3.18732">
        <ele>29.94</ele>
        <time>2012-12-03T13:18:54Z</time>
      </trkpt>
      <trkpt lat="43.19243" lon="3.18734">
        <ele>30.42</ele>
        <time>2012-12-03T13:19:05Z</time>
      </trkpt>
      <trkpt lat="43.1924" lon="3.18735">
        <ele>32.34</ele>
        <time>2012-12-03T13:19:11Z</time>
      </trkpt>
      <trkpt lat="43.19236" lon="3.18737">
        <ele>32.34</ele>
        <time>2012-12-03T13:19:21Z</time>
      </trkpt>
      <trkpt lat="43.19231" lon="3.18734">
        <ele>32.82</ele>
        <time>2012-12-03T13:19:32Z</time>
      </trkpt>
      <trkpt lat="43.19224" lon="3.18732">
        <ele>33.78</ele>
        <time>2012-12-03T13:19:44Z</time>
      </trkpt>
      <trkpt lat="43.1922" lon="3.1873">
        <ele>34.74</ele>
        <time>2012-12-03T13:19:56Z</time>
      </trkpt>
      <trkpt lat="43.19219" lon="3.18727">
        <ele>34.26</ele>
        <time>2012-12-03T13:20:11Z</time>
      </trkpt>
      <trkpt lat="43.1922" lon="3.18724">
        <ele>33.78</ele>
        <time>2012-12-03T13:20:24Z</time>
      </trkpt>
      <trkpt lat="43.1922" lon="3.18723">
        <ele>33.78</ele>
        <time>2012-12-03T13:20:33Z</time>
      </trkpt>
      <trkpt lat="43.19221" lon="3.18721">
        <ele>34.26</ele>
        <time>2012-12-03T13:20:49Z</time>
      </trkpt>
      <trkpt lat="43.19221" lon="3.18721">
        <ele>34.26</ele>
        <time>2012-12-03T13:20:50Z</time>
      </trkpt>
      <trkpt lat="43.19216" lon="3.18718">
        <ele>34.26</ele>
        <time>2012-12-03T13:21:03Z</time>
      </trkpt>
      <trkpt lat="43.19215" lon="3.18717">
        <ele>35.23</ele>
        <time>2012-12-03T13:21:27Z</time>
      </trkpt>
      <trkpt lat="43.19214" lon="3.18716">
        <ele>34.74</ele>
        <time>2012-12-03T13:21:50Z</time>
      </trkpt>
      <trkpt lat="43.19211" lon="3.18716">
        <ele>35.71</ele>
        <time>2012-12-03T13:22:03Z</time>
      </trkpt>
      <trkpt lat="43.19211" lon="3.18716">
        <ele>30.9</ele>
        <time>2012-12-03T13:22:04Z</time>
      </trkpt>
      <trkpt lat="43.19211" lon="3.18716">
        <ele>37.63</ele>
        <time>2012-12-03T13:22:05Z</time>
      </trkpt>
      <trkpt lat="43.19211" lon="3.18716">
        <ele>34.26</ele>
        <time>2012-12-03T13:22:07Z</time>
      </trkpt>
      <trkpt lat="43.19209" lon="3.18711">
        <ele>35.71</ele>
        <time>2012-12-03T13:22:21Z</time>
      </trkpt>
      <trkpt lat="43.19206" lon="3.18709">
        <ele>36.19</ele>
        <time>2012-12-03T13:22:36Z</time>
      </trkpt>
      <trkpt lat="43.19206" lon="3.18709">
        <ele>35.71</ele>
        <time>2012-12-03T13:22:57Z</time>
      </trkpt>
      <trkpt lat="43.19205" lon="3.18709">
        <ele>36.19</ele>
        <time>2012-12-03T13:23:09Z</time>
      </trkpt>
      <trkpt lat="43.19201" lon="3.18711">
        <ele>37.15</ele>
        <time>2012-12-03T13:23:19Z</time>
      </trkpt>
      <trkpt lat="43.19195" lon="3.18716">
        <ele>37.15</ele>
        <time>2012-12-03T13:23:31Z</time>
      </trkpt>
      <trkpt lat="43.19193" lon="3.18722">
        <ele>37.63</ele>
        <time>2012-12-03T13:23:40Z</time>
      </trkpt>
      <trkpt lat="43.19182" lon="3.18716">
        <ele>37.15</ele>
        <time>2012-12-03T13:23:52Z</time>
      </trkpt>
      <trkpt lat="43.19172" lon="3.18714">
        <ele>36.67</ele>
        <time>2012-12-03T13:24:04Z</time>
      </trkpt>
      <trkpt lat="43.19169" lon="3.18704">
        <ele>36.19</ele>
        <time>2012-12-03T13:24:16Z</time>
      </trkpt>
      <trkpt lat="43.19168" lon="3.18701">
        <ele>30.9</ele>
        <time>2012-12-03T13:24:24Z</time>
      </trkpt>
      <trkpt lat="43.19168" lon="3.18701">
        <ele>36.19</ele>
        <time>2012-12-03T13:24:25Z</time>
      </trkpt>
      <trkpt lat="43.19167" lon="3.187">
        <ele>42.92</ele>
        <time>2012-12-03T13:24:35Z</time>
      </trkpt>
      <trkpt lat="43.19167" lon="3.187">
        <ele>47.24</ele>
        <time>2012-12-03T13:24:36Z</time>
      </trkpt>
      <trkpt lat="43.19167" lon="3.187">
        <ele>35.71</ele>
        <time>2012-12-03T13:24:37Z</time>
      </trkpt>
      <trkpt lat="43.19167" lon="3.187">
        <ele>26.09</ele>
        <time>2012-12-03T13:24:38Z</time>
      </trkpt>
      <trkpt lat="43.19167" lon="3.187">
        <ele>33.78</ele>
        <time>2012-12-03T13:24:39Z</time>
      </trkpt>
      <trkpt lat="43.19167" lon="3.187">
        <ele>35.23</ele>
        <time>2012-12-03T13:24:41Z</time>
      </trkpt>
      <trkpt lat="43.19167" lon="3.187">
        <ele>36.67</ele>
        <time>2012-12-03T13:24:44Z</time>
      </trkpt>
      <trkpt lat="43.19167" lon="3.187">
        <ele>42.44</ele>
        <time>2012-12-03T13:24:45Z</time>
      </trkpt>
      <trkpt lat="43.19167" lon="3.187">
        <ele>36.19</ele>
        <time>2012-12-03T13:24:46Z</time>
      </trkpt>
      <trkpt lat="43.19167" lon="3.187">
        <ele>28.98</ele>
        <time>2012-12-03T13:24:52Z</time>
      </trkpt>
      <trkpt lat="43.19167" lon="3.187">
        <ele>37.15</ele>
        <time>2012-12-03T13:24:53Z</time>
      </trkpt>
      <trkpt lat="43.19167" lon="3.187">
        <ele>30.9</ele>
        <time>2012-12-03T13:24:54Z</time>
      </trkpt>
      <trkpt lat="43.19167" lon="3.187">
        <ele>41.47</ele>
        <time>2012-12-03T13:24:55Z</time>
      </trkpt>
      <trkpt lat="43.19167" lon="3.187">
        <ele>35.71</ele>
        <time>2012-12-03T13:24:56Z</time>
      </trkpt>
      <trkpt lat="43.19167" lon="3.187">
        <ele>31.38</ele>
        <time>2012-12-03T13:24:57Z</time>
      </trkpt>
      <trkpt lat="43.19167" lon="3.187">
        <ele>36.19</ele>
        <time>2012-12-03T13:24:58Z</time>
      </trkpt>
      <trkpt lat="43.19167" lon="3.187">
        <ele>40.03</ele>
        <time>2012-12-03T13:25:00Z</time>
      </trkpt>
      <trkpt lat="43.19167" lon="3.187">
        <ele>36.19</ele>
        <time>2012-12-03T13:25:01Z</time>
      </trkpt>
      <trkpt lat="43.19167" lon="3.187">
        <ele>32.34</ele>
        <time>2012-12-03T13:25:03Z</time>
      </trkpt>
      <trkpt lat="43.19167" lon="3.187">
        <ele>38.11</ele>
        <time>2012-12-03T13:25:06Z</time>
      </trkpt>
      <trkpt lat="43.19167" lon="3.187">
        <ele>36.67</ele>
        <time>2012-12-03T13:25:07Z</time>
      </trkpt>
      <trkpt lat="43.19167" lon="3.187">
        <ele>35.71</ele>
        <time>2012-12-03T13:25:09Z</time>
      </trkpt>
      <trkpt lat="43.19167" lon="3.187">
        <ele>39.07</ele>
        <time>2012-12-03T13:25:11Z</time>
      </trkpt>
      <trkpt lat="43.19167" lon="3.18699">
        <ele>29.46</ele>
        <time>2012-12-03T13:25:12Z</time>
      </trkpt>
      <trkpt lat="43.19167" lon="3.18699">
        <ele>37.63</ele>
        <time>2012-12-03T13:25:13Z</time>
      </trkpt>
      <trkpt lat="43.19167" lon="3.18699">
        <ele>31.86</ele>
        <time>2012-12-03T13:25:15Z</time>
      </trkpt>
      <trkpt lat="43.19167" lon="3.18699">
        <ele>38.59</ele>
        <time>2012-12-03T13:25:16Z</time>
      </trkpt>
      <trkpt lat="43.19166" lon="3.18699">
        <ele>28.02</ele>
        <time>2012-12-03T13:25:17Z</time>
      </trkpt>
      <trkpt lat="43.19166" lon="3.18699">
        <ele>39.55</ele>
        <time>2012-12-03T13:25:18Z</time>
      </trkpt>
      <trkpt lat="43.19166" lon="3.18699">
        <ele>36.19</ele>
        <time>2012-12-03T13:25:20Z</time>
      </trkpt>
      <trkpt lat="43.19166" lon="3.18699">
        <ele>28.98</ele>
        <time>2012-12-03T13:25:22Z</time>
      </trkpt>
      <trkpt lat="43.19166" lon="3.18699">
        <ele>29.94</ele>
        <time>2012-12-03T13:25:23Z</time>
      </trkpt>
      <trkpt lat="43.19166" lon="3.18699">
        <ele>36.67</ele>
        <time>2012-12-03T13:25:24Z</time>
      </trkpt>
      <trkpt lat="43.19166" lon="3.18699">
        <ele>35.71</ele>
        <time>2012-12-03T13:25:25Z</time>
      </trkpt>
      <trkpt lat="43.19166" lon="3.18699">
        <ele>35.71</ele>
        <time>2012-12-03T13:25:44Z</time>
      </trkpt>
      <trkpt lat="43.19165" lon="3.18691">
        <ele>36.19</ele>
        <time>2012-12-03T13:25:57Z</time>
      </trkpt>
      <trkpt lat="43.19163" lon="3.18676">
        <ele>35.23</ele>
        <time>2012-12-03T13:26:13Z</time>
      </trkpt>
      <trkpt lat="43.19162" lon="3.18674">
        <ele>35.23</ele>
        <time>2012-12-03T13:26:17Z</time>
      </trkpt>
      <trkpt lat="43.19163" lon="3.18668">
        <ele>35.23</ele>
        <time>2012-12-03T13:26:21Z</time>
      </trkpt>
      <trkpt lat="43.19164" lon="3.1866">
        <ele>35.71</ele>
        <time>2012-12-03T13:26:28Z</time>
      </trkpt>
      <trkpt lat="43.19165" lon="3.18653">
        <ele>34.74</ele>
        <time>2012-12-03T13:26:33Z</time>
      </trkpt>
      <trkpt lat="43.19166" lon="3.18645">
        <ele>35.23</ele>
        <time>2012-12-03T13:26:39Z</time>
      </trkpt>
      <trkpt lat="43.19168" lon="3.18641">
        <ele>35.71</ele>
        <time>2012-12-03T13:26:43Z</time>
      </trkpt>
      <trkpt lat="43.19172" lon="3.18637">
        <ele>35.71</ele>
        <time>2012-12-03T13:26:52Z</time>
      </trkpt>
      <trkpt lat="43.19172" lon="3.18637">
        <ele>35.71</ele>
        <time>2012-12-03T13:27:05Z</time>
      </trkpt>
      <trkpt lat="43.19172" lon="3.18638">
        <ele>35.23</ele>
        <time>2012-12-03T13:27:21Z</time>
      </trkpt>
      <trkpt lat="43.19172" lon="3.18638">
        <ele>35.71</ele>
        <time>2012-12-03T13:27:40Z</time>
      </trkpt>
      <trkpt lat="43.19172" lon="3.18638">
        <ele>36.19</ele>
        <time>2012-12-03T13:27:44Z</time>
      </trkpt>
      <trkpt lat="43.19177" lon="3.18625">
        <ele>36.67</ele>
        <time>2012-12-03T13:27:53Z</time>
      </trkpt>
      <trkpt lat="43.19178" lon="3.18624">
        <ele>35.71</ele>
        <time>2012-12-03T13:28:05Z</time>
      </trkpt>
      <trkpt lat="43.19178" lon="3.18623">
        <ele>36.19</ele>
        <time>2012-12-03T13:28:12Z</time>
      </trkpt>
      <trkpt lat="43.19181" lon="3.1862">
        <ele>36.67</ele>
        <time>2012-12-03T13:28:16Z</time>
      </trkpt>
      <trkpt lat="43.19183" lon="3.18615">
        <ele>36.67</ele>
        <time>2012-12-03T13:28:26Z</time>
      </trkpt>
      <trkpt lat="43.19184" lon="3.18614">
        <ele>37.15</ele>
        <time>2012-12-03T13:28:45Z</time>
      </trkpt>
      <trkpt lat="43.19183" lon="3.18611">
        <ele>37.63</ele>
        <time>2012-12-03T13:28:48Z</time>
      </trkpt>
      <trkpt lat="43.1918" lon="3.18601">
        <ele>38.11</ele>
        <time>2012-12-03T13:28:55Z</time>
      </trkpt>
      <trkpt lat="43.19183" lon="3.18593">
        <ele>38.11</ele>
        <time>2012-12-03T13:28:59Z</time>
      </trkpt>
      <trkpt lat="43.19184" lon="3.18581">
        <ele>38.59</ele>
        <time>2012-12-03T13:29:09Z</time>
      </trkpt>
      <trkpt lat="43.19186" lon="3.18563">
        <ele>39.07</ele>
        <time>2012-12-03T13:29:18Z</time>
      </trkpt>
      <trkpt lat="43.19189" lon="3.18551">
        <ele>36.67</ele>
        <time>2012-12-03T13:29:27Z</time>
      </trkpt>
      <trkpt lat="43.19189" lon="3.18551">
        <ele>40.03</ele>
        <time>2012-12-03T13:29:28Z</time>
      </trkpt>
      <trkpt lat="43.1919" lon="3.1855">
        <ele>39.55</ele>
        <time>2012-12-03T13:29:39Z</time>
      </trkpt>
      <trkpt lat="43.19191" lon="3.18542">
        <ele>40.03</ele>
        <time>2012-12-03T13:29:44Z</time>
      </trkpt>
      <trkpt lat="43.19192" lon="3.18538">
        <ele>39.55</ele>
        <time>2012-12-03T13:29:48Z</time>
      </trkpt>
      <trkpt lat="43.19194" lon="3.1853">
        <ele>40.03</ele>
        <time>2012-12-03T13:29:58Z</time>
      </trkpt>
      <trkpt lat="43.19195" lon="3.18529">
        <ele>40.03</ele>
        <time>2012-12-03T13:29:59Z</time>
      </trkpt>
      <trkpt lat="43.19197" lon="3.18522">
        <ele>40.03</ele>
        <time>2012-12-03T13:30:03Z</time>
      </trkpt>
      <trkpt lat="43.19197" lon="3.18514">
        <ele>40.03</ele>
        <time>2012-12-03T13:30:07Z</time>
      </trkpt>
      <trkpt lat="43.19201" lon="3.18491">
        <ele>40.99</ele>
        <time>2012-12-03T13:30:20Z</time>
      </trkpt>
      <trkpt lat="43.19202" lon="3.18486">
        <ele>40.99</ele>
        <time>2012-12-03T13:30:24Z</time>
      </trkpt>
      <trkpt lat="43.19202" lon="3.18481">
        <ele>41.47</ele>
        <time>2012-12-03T13:30:28Z</time>
      </trkpt>
      <trkpt lat="43.192" lon="3.18475">
        <ele>40.99</ele>
        <time>2012-12-03T13:30:32Z</time>
      </trkpt>
      <trkpt lat="43.19199" lon="3.18468">
        <ele>41.47</ele>
        <time>2012-12-03T13:30:37Z</time>
      </trkpt>
      <trkpt lat="43.19198" lon="3.18463">
        <ele>41.47</ele>
        <time>2012-12-03T13:30:40Z</time>
      </trkpt>
      <trkpt lat="43.19198" lon="3.18452">
        <ele>42.44</ele>
        <time>2012-12-03T13:30:47Z</time>
      </trkpt>
      <trkpt lat="43.19196" lon="3.18445">
        <ele>42.44</ele>
        <time>2012-12-03T13:30:51Z</time>
      </trkpt>
      <trkpt lat="43.19193" lon="3.18432">
        <ele>42.44</ele>
        <time>2012-12-03T13:30:57Z</time>
      </trkpt>
      <trkpt lat="43.19194" lon="3.18427">
        <ele>42.92</ele>
        <time>2012-12-03T13:31:00Z</time>
      </trkpt>
      <trkpt lat="43.19194" lon="3.18421">
        <ele>42.92</ele>
        <time>2012-12-03T13:31:04Z</time>
      </trkpt>
      <trkpt lat="43.19194" lon="3.18401">
        <ele>43.88</ele>
        <time>2012-12-03T13:31:15Z</time>
      </trkpt>
      <trkpt lat="43.19196" lon="3.18389">
        <ele>43.88</ele>
        <time>2012-12-03T13:31:25Z</time>
      </trkpt>
      <trkpt lat="43.19195" lon="3.18386">
        <ele>43.88</ele>
        <time>2012-12-03T13:31:27Z</time>
      </trkpt>
      <trkpt lat="43.19194" lon="3.18382">
        <ele>44.36</ele>
        <time>2012-12-03T13:31:30Z</time>
      </trkpt>
      <trkpt lat="43.19194" lon="3.18379">
        <ele>44.36</ele>
        <time>2012-12-03T13:31:32Z</time>
      </trkpt>
      <trkpt lat="43.19195" lon="3.18359">
        <ele>44.84</ele>
        <time>2012-12-03T13:31:44Z</time>
      </trkpt>
      <trkpt lat="43.19196" lon="3.18345">
        <ele>45.32</ele>
        <time>2012-12-03T13:31:53Z</time>
      </trkpt>
      <trkpt lat="43.19199" lon="3.18326">
        <ele>45.8</ele>
        <time>2012-12-03T13:32:04Z</time>
      </trkpt>
      <trkpt lat="43.19202" lon="3.1831">
        <ele>46.76</ele>
        <time>2012-12-03T13:32:14Z</time>
      </trkpt>
      <trkpt lat="43.19202" lon="3.18307">
        <ele>46.76</ele>
        <time>2012-12-03T13:32:16Z</time>
      </trkpt>
      <trkpt lat="43.19204" lon="3.18304">
        <ele>46.76</ele>
        <time>2012-12-03T13:32:19Z</time>
      </trkpt>
      <trkpt lat="43.19204" lon="3.18299">
        <ele>47.24</ele>
        <time>2012-12-03T13:32:22Z</time>
      </trkpt>
      <trkpt lat="43.19204" lon="3.18291">
        <ele>47.24</ele>
        <time>2012-12-03T13:32:27Z</time>
      </trkpt>
      <trkpt lat="43.19204" lon="3.18288">
        <ele>47.24</ele>
        <time>2012-12-03T13:32:29Z</time>
      </trkpt>
      <trkpt lat="43.19205" lon="3.18284">
        <ele>47.24</ele>
        <time>2012-12-03T13:32:32Z</time>
      </trkpt>
      <trkpt lat="43.19208" lon="3.18267">
        <ele>48.2</ele>
        <time>2012-12-03T13:32:42Z</time>
      </trkpt>
      <trkpt lat="43.19208" lon="3.18266">
        <ele>49.16</ele>
        <time>2012-12-03T13:32:43Z</time>
      </trkpt>
      <trkpt lat="43.1921" lon="3.18248">
        <ele>49.16</ele>
        <time>2012-12-03T13:32:54Z</time>
      </trkpt>
      <trkpt lat="43.19213" lon="3.18228">
        <ele>50.13</ele>
        <time>2012-12-03T13:33:07Z</time>
      </trkpt>
      <trkpt lat="43.19214" lon="3.18224">
        <ele>50.13</ele>
        <time>2012-12-03T13:33:09Z</time>
      </trkpt>
      <trkpt lat="43.19214" lon="3.1822">
        <ele>50.13</ele>
        <time>2012-12-03T13:33:12Z</time>
      </trkpt>
      <trkpt lat="43.19215" lon="3.18216">
        <ele>50.13</ele>
        <time>2012-12-03T13:33:15Z</time>
      </trkpt>
      <trkpt lat="43.19219" lon="3.182">
        <ele>51.09</ele>
        <time>2012-12-03T13:33:25Z</time>
      </trkpt>
      <trkpt lat="43.1922" lon="3.18192">
        <ele>51.09</ele>
        <time>2012-12-03T13:33:30Z</time>
      </trkpt>
      <trkpt lat="43.19222" lon="3.18179">
        <ele>51.57</ele>
        <time>2012-12-03T13:33:37Z</time>
      </trkpt>
      <trkpt lat="43.19224" lon="3.18161">
        <ele>52.05</ele>
        <time>2012-12-03T13:33:47Z</time>
      </trkpt>
      <trkpt lat="43.19229" lon="3.18145">
        <ele>52.53</ele>
        <time>2012-12-03T13:33:56Z</time>
      </trkpt>
      <trkpt lat="43.19231" lon="3.18136">
        <ele>52.05</ele>
        <time>2012-12-03T13:34:02Z</time>
      </trkpt>
      <trkpt lat="43.19233" lon="3.18125">
        <ele>52.53</ele>
        <time>2012-12-03T13:34:08Z</time>
      </trkpt>
      <trkpt lat="43.19235" lon="3.18122">
        <ele>52.53</ele>
        <time>2012-12-03T13:34:10Z</time>
      </trkpt>
      <trkpt lat="43.19236" lon="3.18108">
        <ele>52.53</ele>
        <time>2012-12-03T13:34:18Z</time>
      </trkpt>
      <trkpt lat="43.19241" lon="3.18097">
        <ele>52.53</ele>
        <time>2012-12-03T13:34:27Z</time>
      </trkpt>
      <trkpt lat="43.19244" lon="3.18087">
        <ele>52.53</ele>
        <time>2012-12-03T13:34:34Z</time>
      </trkpt>
      <trkpt lat="43.19245" lon="3.18081">
        <ele>52.05</ele>
        <time>2012-12-03T13:34:38Z</time>
      </trkpt>
      <trkpt lat="43.19246" lon="3.18077">
        <ele>52.05</ele>
        <time>2012-12-03T13:34:41Z</time>
      </trkpt>
      <trkpt lat="43.19249" lon="3.18063">
        <ele>51.09</ele>
        <time>2012-12-03T13:34:49Z</time>
      </trkpt>
      <trkpt lat="43.19249" lon="3.18051">
        <ele>50.13</ele>
        <time>2012-12-03T13:34:55Z</time>
      </trkpt>
      <trkpt lat="43.19252" lon="3.18045">
        <ele>49.16</ele>
        <time>2012-12-03T13:35:00Z</time>
      </trkpt>
      <trkpt lat="43.19257" lon="3.18037">
        <ele>47.72</ele>
        <time>2012-12-03T13:35:06Z</time>
      </trkpt>
      <trkpt lat="43.19256" lon="3.1803">
        <ele>47.24</ele>
        <time>2012-12-03T13:35:10Z</time>
      </trkpt>
      <trkpt lat="43.19255" lon="3.18027">
        <ele>47.24</ele>
        <time>2012-12-03T13:35:12Z</time>
      </trkpt>
      <trkpt lat="43.19258" lon="3.18021">
        <ele>46.28</ele>
        <time>2012-12-03T13:35:16Z</time>
      </trkpt>
      <trkpt lat="43.19257" lon="3.18014">
        <ele>45.8</ele>
        <time>2012-12-03T13:35:20Z</time>
      </trkpt>
      <trkpt lat="43.19253" lon="3.17996">
        <ele>43.88</ele>
        <time>2012-12-03T13:35:32Z</time>
      </trkpt>
      <trkpt lat="43.19248" lon="3.17981">
        <ele>42.44</ele>
        <time>2012-12-03T13:35:44Z</time>
      </trkpt>
      <trkpt lat="43.19249" lon="3.17978">
        <ele>41.95</ele>
        <time>2012-12-03T13:35:49Z</time>
      </trkpt>
      <trkpt lat="43.19245" lon="3.17969">
        <ele>40.99</ele>
        <time>2012-12-03T13:35:56Z</time>
      </trkpt>
      <trkpt lat="43.19243" lon="3.17961">
        <ele>40.99</ele>
        <time>2012-12-03T13:36:05Z</time>
      </trkpt>
      <trkpt lat="43.1924" lon="3.17956">
        <ele>40.51</ele>
        <time>2012-12-03T13:36:15Z</time>
      </trkpt>
      <trkpt lat="43.19234" lon="3.17948">
        <ele>40.03</ele>
        <time>2012-12-03T13:36:29Z</time>
      </trkpt>
      <trkpt lat="43.19235" lon="3.17949">
        <ele>40.03</ele>
        <time>2012-12-03T13:36:55Z</time>
      </trkpt>
      <trkpt lat="43.19234" lon="3.1795">
        <ele>39.55</ele>
        <time>2012-12-03T13:37:13Z</time>
      </trkpt>
      <trkpt lat="43.19232" lon="3.17947">
        <ele>39.55</ele>
        <time>2012-12-03T13:37:29Z</time>
      </trkpt>
      <trkpt lat="43.19231" lon="3.17946">
        <ele>39.55</ele>
        <time>2012-12-03T13:37:43Z</time>
      </trkpt>
      <trkpt lat="43.19226" lon="3.17934">
        <ele>39.07</ele>
        <time>2012-12-03T13:37:51Z</time>
      </trkpt>
      <trkpt lat="43.19225" lon="3.17926">
        <ele>38.11</ele>
        <time>2012-12-03T13:37:57Z</time>
      </trkpt>
      <trkpt lat="43.19221" lon="3.1791">
        <ele>38.11</ele>
        <time>2012-12-03T13:38:07Z</time>
      </trkpt>
      <trkpt lat="43.1922" lon="3.17906">
        <ele>37.63</ele>
        <time>2012-12-03T13:38:10Z</time>
      </trkpt>
      <trkpt lat="43.19218" lon="3.179">
        <ele>37.15</ele>
        <time>2012-12-03T13:38:13Z</time>
      </trkpt>
      <trkpt lat="43.19215" lon="3.1788">
        <ele>36.67</ele>
        <time>2012-12-03T13:38:24Z</time>
      </trkpt>
      <trkpt lat="43.19211" lon="3.17869">
        <ele>36.67</ele>
        <time>2012-12-03T13:38:28Z</time>
      </trkpt>
      <trkpt lat="43.1921" lon="3.17864">
        <ele>36.67</ele>
        <time>2012-12-03T13:38:31Z</time>
      </trkpt>
      <trkpt lat="43.19209" lon="3.17858">
        <ele>36.19</ele>
        <time>2012-12-03T13:38:34Z</time>
      </trkpt>
      <trkpt lat="43.19206" lon="3.1785">
        <ele>35.71</ele>
        <time>2012-12-03T13:38:44Z</time>
      </trkpt>
      <trkpt lat="43.19204" lon="3.17848">
        <ele>36.19</ele>
        <time>2012-12-03T13:38:53Z</time>
      </trkpt>
      <trkpt lat="43.19202" lon="3.17845">
        <ele>36.19</ele>
        <time>2012-12-03T13:39:00Z</time>
      </trkpt>
      <trkpt lat="43.19196" lon="3.17844">
        <ele>35.71</ele>
        <time>2012-12-03T13:39:06Z</time>
      </trkpt>
      <trkpt lat="43.1918" lon="3.17844">
        <ele>34.74</ele>
        <time>2012-12-03T13:39:18Z</time>
      </trkpt>
      <trkpt lat="43.1917" lon="3.17839">
        <ele>35.23</ele>
        <time>2012-12-03T13:39:26Z</time>
      </trkpt>
      <trkpt lat="43.19166" lon="3.1784">
        <ele>34.74</ele>
        <time>2012-12-03T13:39:29Z</time>
      </trkpt>
      <trkpt lat="43.1916" lon="3.17843">
        <ele>34.74</ele>
        <time>2012-12-03T13:39:35Z</time>
      </trkpt>
      <trkpt lat="43.19157" lon="3.17844">
        <ele>34.74</ele>
        <time>2012-12-03T13:39:39Z</time>
      </trkpt>
      <trkpt lat="43.19146" lon="3.17844">
        <ele>34.74</ele>
        <time>2012-12-03T13:39:51Z</time>
      </trkpt>
      <trkpt lat="43.19142" lon="3.17846">
        <ele>34.74</ele>
        <time>2012-12-03T13:39:55Z</time>
      </trkpt>
      <trkpt lat="43.19139" lon="3.17846">
        <ele>34.74</ele>
        <time>2012-12-03T13:39:57Z</time>
      </trkpt>
      <trkpt lat="43.19126" lon="3.17842">
        <ele>34.74</ele>
        <time>2012-12-03T13:40:08Z</time>
      </trkpt>
      <trkpt lat="43.19125" lon="3.17842">
        <ele>34.26</ele>
        <time>2012-12-03T13:40:10Z</time>
      </trkpt>
      <trkpt lat="43.19114" lon="3.17834">
        <ele>34.74</ele>
        <time>2012-12-03T13:40:20Z</time>
      </trkpt>
      <trkpt lat="43.19112" lon="3.17834">
        <ele>34.74</ele>
        <time>2012-12-03T13:40:22Z</time>
      </trkpt>
      <trkpt lat="43.19108" lon="3.1783">
        <ele>34.74</ele>
        <time>2012-12-03T13:40:26Z</time>
      </trkpt>
      <trkpt lat="43.19106" lon="3.17829">
        <ele>34.74</ele>
        <time>2012-12-03T13:40:28Z</time>
      </trkpt>
      <trkpt lat="43.19095" lon="3.17821">
        <ele>34.74</ele>
        <time>2012-12-03T13:40:40Z</time>
      </trkpt>
      <trkpt lat="43.19083" lon="3.17818">
        <ele>34.74</ele>
        <time>2012-12-03T13:40:51Z</time>
      </trkpt>
      <trkpt lat="43.19077" lon="3.17821">
        <ele>34.74</ele>
        <time>2012-12-03T13:40:56Z</time>
      </trkpt>
      <trkpt lat="43.19074" lon="3.17824">
        <ele>35.23</ele>
        <time>2012-12-03T13:41:00Z</time>
      </trkpt>
      <trkpt lat="43.1907" lon="3.17823">
        <ele>34.26</ele>
        <time>2012-12-03T13:41:04Z</time>
      </trkpt>
      <trkpt lat="43.19061" lon="3.17823">
        <ele>34.26</ele>
        <time>2012-12-03T13:41:12Z</time>
      </trkpt>
      <trkpt lat="43.19051" lon="3.17826">
        <ele>34.74</ele>
        <time>2012-12-03T13:41:22Z</time>
      </trkpt>
      <trkpt lat="43.19038" lon="3.17829">
        <ele>34.74</ele>
        <time>2012-12-03T13:41:32Z</time>
      </trkpt>
      <trkpt lat="43.19029" lon="3.17838">
        <ele>34.74</ele>
        <time>2012-12-03T13:41:44Z</time>
      </trkpt>
      <trkpt lat="43.19026" lon="3.17844">
        <ele>35.71</ele>
        <time>2012-12-03T13:41:50Z</time>
      </trkpt>
      <trkpt lat="43.19021" lon="3.17846">
        <ele>36.19</ele>
        <time>2012-12-03T13:41:54Z</time>
      </trkpt>
      <trkpt lat="43.19016" lon="3.17851">
        <ele>36.67</ele>
        <time>2012-12-03T13:42:01Z</time>
      </trkpt>
      <trkpt lat="43.19009" lon="3.17858">
        <ele>36.19</ele>
        <time>2012-12-03T13:42:08Z</time>
      </trkpt>
      <trkpt lat="43.18995" lon="3.17867">
        <ele>37.15</ele>
        <time>2012-12-03T13:42:20Z</time>
      </trkpt>
      <trkpt lat="43.18993" lon="3.17869">
        <ele>37.15</ele>
        <time>2012-12-03T13:42:22Z</time>
      </trkpt>
      <trkpt lat="43.18988" lon="3.17876">
        <ele>37.15</ele>
        <time>2012-12-03T13:42:28Z</time>
      </trkpt>
      <trkpt lat="43.18975" lon="3.17884">
        <ele>37.63</ele>
        <time>2012-12-03T13:42:41Z</time>
      </trkpt>
      <trkpt lat="43.18966" lon="3.17889">
        <ele>37.15</ele>
        <time>2012-12-03T13:42:49Z</time>
      </trkpt>
      <trkpt lat="43.1896" lon="3.17894">
        <ele>37.15</ele>
        <time>2012-12-03T13:42:54Z</time>
      </trkpt>
      <trkpt lat="43.18954" lon="3.17901">
        <ele>37.15</ele>
        <time>2012-12-03T13:43:00Z</time>
      </trkpt>
      <trkpt lat="43.18947" lon="3.17906">
        <ele>36.67</ele>
        <time>2012-12-03T13:43:07Z</time>
      </trkpt>
      <trkpt lat="43.18942" lon="3.17906">
        <ele>36.67</ele>
        <time>2012-12-03T13:43:11Z</time>
      </trkpt>
      <trkpt lat="43.1894" lon="3.17907">
        <ele>36.67</ele>
        <time>2012-12-03T13:43:13Z</time>
      </trkpt>
      <trkpt lat="43.18935" lon="3.17912">
        <ele>36.19</ele>
        <time>2012-12-03T13:43:25Z</time>
      </trkpt>
      <trkpt lat="43.18935" lon="3.17912">
        <ele>36.19</ele>
        <time>2012-12-03T13:43:31Z</time>
      </trkpt>
      <trkpt lat="43.18931" lon="3.17915">
        <ele>36.67</ele>
        <time>2012-12-03T13:43:34Z</time>
      </trkpt>
      <trkpt lat="43.18924" lon="3.17922">
        <ele>36.19</ele>
        <time>2012-12-03T13:43:43Z</time>
      </trkpt>
      <trkpt lat="43.18922" lon="3.17923">
        <ele>36.19</ele>
        <time>2012-12-03T13:43:45Z</time>
      </trkpt>
      <trkpt lat="43.18914" lon="3.17929">
        <ele>36.19</ele>
        <time>2012-12-03T13:43:52Z</time>
      </trkpt>
      <trkpt lat="43.18911" lon="3.17932">
        <ele>36.19</ele>
        <time>2012-12-03T13:43:55Z</time>
      </trkpt>
      <trkpt lat="43.18909" lon="3.17931">
        <ele>36.19</ele>
        <time>2012-12-03T13:44:06Z</time>
      </trkpt>
      <trkpt lat="43.18902" lon="3.17938">
        <ele>35.71</ele>
        <time>2012-12-03T13:44:16Z</time>
      </trkpt>
      <trkpt lat="43.18901" lon="3.17948">
        <ele>36.67</ele>
        <time>2012-12-03T13:44:23Z</time>
      </trkpt>
      <trkpt lat="43.18903" lon="3.17955">
        <ele>36.67</ele>
        <time>2012-12-03T13:44:28Z</time>
      </trkpt>
      <trkpt lat="43.18896" lon="3.17972">
        <ele>37.15</ele>
        <time>2012-12-03T13:44:42Z</time>
      </trkpt>
      <trkpt lat="43.18896" lon="3.17972">
        <ele>37.63</ele>
        <time>2012-12-03T13:44:45Z</time>
      </trkpt>
      <trkpt lat="43.18894" lon="3.17977">
        <ele>37.63</ele>
        <time>2012-12-03T13:44:48Z</time>
      </trkpt>
      <trkpt lat="43.18889" lon="3.17985">
        <ele>38.59</ele>
        <time>2012-12-03T13:44:55Z</time>
      </trkpt>
      <trkpt lat="43.1888" lon="3.18">
        <ele>40.03</ele>
        <time>2012-12-03T13:45:10Z</time>
      </trkpt>
      <trkpt lat="43.18871" lon="3.18015">
        <ele>41.47</ele>
        <time>2012-12-03T13:45:23Z</time>
      </trkpt>
      <trkpt lat="43.18869" lon="3.18018">
        <ele>41.95</ele>
        <time>2012-12-03T13:45:34Z</time>
      </trkpt>
      <trkpt lat="43.18868" lon="3.18018">
        <ele>41.95</ele>
        <time>2012-12-03T13:45:37Z</time>
      </trkpt>
      <trkpt lat="43.18863" lon="3.18023">
        <ele>42.44</ele>
        <time>2012-12-03T13:45:44Z</time>
      </trkpt>
      <trkpt lat="43.18858" lon="3.18024">
        <ele>43.4</ele>
        <time>2012-12-03T13:45:56Z</time>
      </trkpt>
      <trkpt lat="43.18858" lon="3.18024">
        <ele>43.4</ele>
        <time>2012-12-03T13:45:57Z</time>
      </trkpt>
      <trkpt lat="43.18854" lon="3.18015">
        <ele>40.99</ele>
        <time>2012-12-03T13:46:07Z</time>
      </trkpt>
      <trkpt lat="43.18853" lon="3.18015">
        <ele>39.55</ele>
        <time>2012-12-03T13:46:11Z</time>
      </trkpt>
      <trkpt lat="43.18853" lon="3.18013">
        <ele>39.07</ele>
        <time>2012-12-03T13:46:13Z</time>
      </trkpt>
      <trkpt lat="43.1885" lon="3.18011">
        <ele>37.63</ele>
        <time>2012-12-03T13:46:16Z</time>
      </trkpt>
      <trkpt lat="43.18846" lon="3.18012">
        <ele>36.67</ele>
        <time>2012-12-03T13:46:22Z</time>
      </trkpt>
      <trkpt lat="43.18842" lon="3.18012">
        <ele>35.23</ele>
        <time>2012-12-03T13:46:29Z</time>
      </trkpt>
      <trkpt lat="43.18835" lon="3.18006">
        <ele>34.74</ele>
        <time>2012-12-03T13:46:36Z</time>
      </trkpt>
      <trkpt lat="43.18829" lon="3.18007">
        <ele>34.74</ele>
        <time>2012-12-03T13:46:42Z</time>
      </trkpt>
      <trkpt lat="43.18827" lon="3.1801">
        <ele>34.74</ele>
        <time>2012-12-03T13:46:44Z</time>
      </trkpt>
      <trkpt lat="43.18818" lon="3.18024">
        <ele>33.78</ele>
        <time>2012-12-03T13:46:55Z</time>
      </trkpt>
      <trkpt lat="43.18806" lon="3.18032">
        <ele>33.78</ele>
        <time>2012-12-03T13:47:05Z</time>
      </trkpt>
      <trkpt lat="43.18801" lon="3.18034">
        <ele>33.3</ele>
        <time>2012-12-03T13:47:10Z</time>
      </trkpt>
      <trkpt lat="43.18798" lon="3.18037">
        <ele>33.3</ele>
        <time>2012-12-03T13:47:13Z</time>
      </trkpt>
      <trkpt lat="43.18793" lon="3.18043">
        <ele>32.82</ele>
        <time>2012-12-03T13:47:18Z</time>
      </trkpt>
      <trkpt lat="43.18789" lon="3.18051">
        <ele>32.82</ele>
        <time>2012-12-03T13:47:24Z</time>
      </trkpt>
      <trkpt lat="43.1878" lon="3.18068">
        <ele>32.82</ele>
        <time>2012-12-03T13:47:37Z</time>
      </trkpt>
      <trkpt lat="43.18777" lon="3.18076">
        <ele>32.82</ele>
        <time>2012-12-03T13:47:42Z</time>
      </trkpt>
      <trkpt lat="43.18775" lon="3.18077">
        <ele>32.82</ele>
        <time>2012-12-03T13:47:44Z</time>
      </trkpt>
      <trkpt lat="43.18766" lon="3.18091">
        <ele>32.82</ele>
        <time>2012-12-03T13:47:56Z</time>
      </trkpt>
      <trkpt lat="43.1876" lon="3.18099">
        <ele>32.34</ele>
        <time>2012-12-03T13:48:03Z</time>
      </trkpt>
      <trkpt lat="43.18753" lon="3.18108">
        <ele>32.34</ele>
        <time>2012-12-03T13:48:11Z</time>
      </trkpt>
      <trkpt lat="43.18739" lon="3.18104">
        <ele>33.78</ele>
        <time>2012-12-03T13:48:21Z</time>
      </trkpt>
      <trkpt lat="43.18735" lon="3.18105">
        <ele>33.78</ele>
        <time>2012-12-03T13:48:25Z</time>
      </trkpt>
      <trkpt lat="43.18731" lon="3.18111">
        <ele>34.74</ele>
        <time>2012-12-03T13:48:30Z</time>
      </trkpt>
      <trkpt lat="43.18728" lon="3.18114">
        <ele>34.74</ele>
        <time>2012-12-03T13:48:33Z</time>
      </trkpt>
      <trkpt lat="43.18725" lon="3.18118">
        <ele>34.74</ele>
        <time>2012-12-03T13:48:36Z</time>
      </trkpt>
      <trkpt lat="43.18717" lon="3.18121">
        <ele>35.71</ele>
        <time>2012-12-03T13:48:44Z</time>
      </trkpt>
      <trkpt lat="43.18714" lon="3.18121">
        <ele>35.71</ele>
        <time>2012-12-03T13:48:47Z</time>
      </trkpt>
      <trkpt lat="43.18711" lon="3.1812">
        <ele>35.71</ele>
        <time>2012-12-03T13:48:50Z</time>
      </trkpt>
      <trkpt lat="43.18709" lon="3.18121">
        <ele>35.71</ele>
        <time>2012-12-03T13:48:53Z</time>
      </trkpt>
      <trkpt lat="43.18705" lon="3.18122">
        <ele>35.23</ele>
        <time>2012-12-03T13:48:56Z</time>
      </trkpt>
      <trkpt lat="43.18703" lon="3.18123">
        <ele>34.74</ele>
        <time>2012-12-03T13:48:58Z</time>
      </trkpt>
      <trkpt lat="43.18696" lon="3.18126">
        <ele>35.71</ele>
        <time>2012-12-03T13:49:06Z</time>
      </trkpt>
      <trkpt lat="43.18693" lon="3.18128">
        <ele>35.23</ele>
        <time>2012-12-03T13:49:09Z</time>
      </trkpt>
      <trkpt lat="43.18686" lon="3.18133">
        <ele>35.23</ele>
        <time>2012-12-03T13:49:16Z</time>
      </trkpt>
      <trkpt lat="43.1868" lon="3.18134">
        <ele>35.23</ele>
        <time>2012-12-03T13:49:21Z</time>
      </trkpt>
      <trkpt lat="43.18673" lon="3.18133">
        <ele>35.71</ele>
        <time>2012-12-03T13:49:27Z</time>
      </trkpt>
      <trkpt lat="43.1866" lon="3.18145">
        <ele>35.23</ele>
        <time>2012-12-03T13:49:39Z</time>
      </trkpt>
      <trkpt lat="43.18658" lon="3.18147">
        <ele>35.23</ele>
        <time>2012-12-03T13:49:41Z</time>
      </trkpt>
      <trkpt lat="43.18651" lon="3.18149">
        <ele>35.23</ele>
        <time>2012-12-03T13:49:46Z</time>
      </trkpt>
      <trkpt lat="43.18646" lon="3.18149">
        <ele>35.23</ele>
        <time>2012-12-03T13:49:49Z</time>
      </trkpt>
      <trkpt lat="43.18643" lon="3.18149">
        <ele>35.71</ele>
        <time>2012-12-03T13:49:52Z</time>
      </trkpt>
      <trkpt lat="43.18639" lon="3.18149">
        <ele>35.71</ele>
        <time>2012-12-03T13:49:55Z</time>
      </trkpt>
      <trkpt lat="43.18625" lon="3.18145">
        <ele>36.67</ele>
        <time>2012-12-03T13:50:06Z</time>
      </trkpt>
      <trkpt lat="43.18609" lon="3.18144">
        <ele>37.15</ele>
        <time>2012-12-03T13:50:17Z</time>
      </trkpt>
      <trkpt lat="43.18605" lon="3.18145">
        <ele>37.15</ele>
        <time>2012-12-03T13:50:21Z</time>
      </trkpt>
      <trkpt lat="43.18591" lon="3.18146">
        <ele>37.63</ele>
        <time>2012-12-03T13:50:32Z</time>
      </trkpt>
      <trkpt lat="43.18591" lon="3.18146">
        <ele>38.59</ele>
        <time>2012-12-03T13:50:35Z</time>
      </trkpt>
      <trkpt lat="43.18586" lon="3.18147">
        <ele>38.59</ele>
        <time>2012-12-03T13:50:39Z</time>
      </trkpt>
      <trkpt lat="43.1858" lon="3.18147">
        <ele>35.23</ele>
        <time>2012-12-03T13:50:45Z</time>
      </trkpt>
      <trkpt lat="43.18579" lon="3.18147">
        <ele>40.03</ele>
        <time>2012-12-03T13:50:46Z</time>
      </trkpt>
      <trkpt lat="43.18578" lon="3.18147">
        <ele>36.19</ele>
        <time>2012-12-03T13:50:47Z</time>
      </trkpt>
      <trkpt lat="43.18577" lon="3.18146">
        <ele>40.99</ele>
        <time>2012-12-03T13:50:48Z</time>
      </trkpt>
      <trkpt lat="43.18572" lon="3.18145">
        <ele>40.51</ele>
        <time>2012-12-03T13:50:55Z</time>
      </trkpt>
      <trkpt lat="43.1857" lon="3.18146">
        <ele>40.03</ele>
        <time>2012-12-03T13:50:57Z</time>
      </trkpt>
      <trkpt lat="43.18569" lon="3.18146">
        <ele>43.4</ele>
        <time>2012-12-03T13:50:58Z</time>
      </trkpt>
      <trkpt lat="43.18568" lon="3.18146">
        <ele>40.51</ele>
        <time>2012-12-03T13:50:59Z</time>
      </trkpt>
      <trkpt lat="43.1855" lon="3.18153">
        <ele>40.99</ele>
        <time>2012-12-03T13:51:15Z</time>
      </trkpt>
      <trkpt lat="43.18537" lon="3.1816">
        <ele>41.47</ele>
        <time>2012-12-03T13:51:25Z</time>
      </trkpt>
      <trkpt lat="43.18527" lon="3.18161">
        <ele>41.95</ele>
        <time>2012-12-03T13:51:33Z</time>
      </trkpt>
      <trkpt lat="43.18522" lon="3.18161">
        <ele>41.95</ele>
        <time>2012-12-03T13:51:37Z</time>
      </trkpt>
      <trkpt lat="43.1851" lon="3.18165">
        <ele>42.44</ele>
        <time>2012-12-03T13:51:47Z</time>
      </trkpt>
      <trkpt lat="43.18508" lon="3.18167">
        <ele>42.92</ele>
        <time>2012-12-03T13:51:49Z</time>
      </trkpt>
      <trkpt lat="43.18495" lon="3.1817">
        <ele>42.92</ele>
        <time>2012-12-03T13:51:59Z</time>
      </trkpt>
      <trkpt lat="43.18491" lon="3.1817">
        <ele>43.4</ele>
        <time>2012-12-03T13:52:01Z</time>
      </trkpt>
      <trkpt lat="43.18483" lon="3.18173">
        <ele>43.88</ele>
        <time>2012-12-03T13:52:13Z</time>
      </trkpt>
      <trkpt lat="43.18481" lon="3.18174">
        <ele>43.88</ele>
        <time>2012-12-03T13:52:18Z</time>
      </trkpt>
      <trkpt lat="43.18477" lon="3.18175">
        <ele>43.88</ele>
        <time>2012-12-03T13:52:22Z</time>
      </trkpt>
      <trkpt lat="43.18474" lon="3.18176">
        <ele>43.88</ele>
        <time>2012-12-03T13:52:26Z</time>
      </trkpt>
      <trkpt lat="43.18469" lon="3.1818">
        <ele>44.36</ele>
        <time>2012-12-03T13:52:32Z</time>
      </trkpt>
      <trkpt lat="43.18464" lon="3.18181">
        <ele>44.36</ele>
        <time>2012-12-03T13:52:36Z</time>
      </trkpt>
      <trkpt lat="43.18451" lon="3.18187">
        <ele>45.32</ele>
        <time>2012-12-03T13:52:47Z</time>
      </trkpt>
      <trkpt lat="43.18442" lon="3.18192">
        <ele>45.32</ele>
        <time>2012-12-03T13:52:55Z</time>
      </trkpt>
      <trkpt lat="43.18432" lon="3.18197">
        <ele>45.8</ele>
        <time>2012-12-03T13:53:05Z</time>
      </trkpt>
      <trkpt lat="43.18428" lon="3.18203">
        <ele>46.28</ele>
        <time>2012-12-03T13:53:17Z</time>
      </trkpt>
      <trkpt lat="43.18427" lon="3.18202">
        <ele>46.76</ele>
        <time>2012-12-03T13:53:42Z</time>
      </trkpt>
      <trkpt lat="43.18423" lon="3.18203">
        <ele>46.76</ele>
        <time>2012-12-03T13:53:45Z</time>
      </trkpt>
      <trkpt lat="43.18411" lon="3.18201">
        <ele>46.28</ele>
        <time>2012-12-03T13:53:54Z</time>
      </trkpt>
      <trkpt lat="43.18407" lon="3.18202">
        <ele>46.76</ele>
        <time>2012-12-03T13:53:59Z</time>
      </trkpt>
      <trkpt lat="43.18399" lon="3.18204">
        <ele>46.28</ele>
        <time>2012-12-03T13:54:05Z</time>
      </trkpt>
      <trkpt lat="43.18382" lon="3.18206">
        <ele>46.76</ele>
        <time>2012-12-03T13:54:18Z</time>
      </trkpt>
      <trkpt lat="43.18377" lon="3.18207">
        <ele>46.76</ele>
        <time>2012-12-03T13:54:22Z</time>
      </trkpt>
      <trkpt lat="43.18372" lon="3.18212">
        <ele>47.24</ele>
        <time>2012-12-03T13:54:27Z</time>
      </trkpt>
      <trkpt lat="43.18359" lon="3.18206">
        <ele>46.76</ele>
        <time>2012-12-03T13:54:38Z</time>
      </trkpt>
      <trkpt lat="43.18351" lon="3.18205">
        <ele>46.76</ele>
        <time>2012-12-03T13:54:46Z</time>
      </trkpt>
      <trkpt lat="43.18347" lon="3.18205">
        <ele>46.28</ele>
        <time>2012-12-03T13:54:53Z</time>
      </trkpt>
      <trkpt lat="43.18346" lon="3.18202">
        <ele>45.8</ele>
        <time>2012-12-03T13:55:04Z</time>
      </trkpt>
      <trkpt lat="43.18346" lon="3.18201">
        <ele>46.28</ele>
        <time>2012-12-03T13:55:17Z</time>
      </trkpt>
    </trkseg>
  </trk>
  <trk>
    <name><![CDATA[Tracé 002]]></name>
    <trkseg>
      <trkpt lat="43.18346" lon="3.18201">
        <ele>46.28</ele>
        <time>2012-12-03T13:55:17Z</time>
      </trkpt>
      <trkpt lat="43.18346" lon="3.18202">
        <ele>46.28</ele>
        <time>2012-12-03T13:55:27Z</time>
      </trkpt>
    </trkseg>
  </trk>
</gpx>